<?xml version="1.0" encoding="UTF-8" standalone="no" ?>
<gpx xmlns="http://www.topografix.com/GPX/1/1" xmlns:xsi="http://www.w3.org/2001/XMLSchema-instance" xsi:schemaLocation="http://www.topografix.com/GPX/1/1 http://www.topografix.com/GPX/1/1/gpx.xsd" version="1.1" creator="VisuGPX - https://www.visugpx.com">
  <metadata>
    <name>Dolmen de Ferrussac</name>
    <desc><![CDATA[ferrussac]]></desc>
  </metadata>
  <trk>
    <name><![CDATA[ferrussac]]></name>
    <trkseg>
      <trkpt lat="43.79065" lon="3.45867">
        <ele>682</ele>
        <time>2015-04-11T08:24:51.079Z</time>
      </trkpt>
      <trkpt lat="43.79063" lon="3.45873">
        <ele>680</ele>
        <time>2015-04-11T08:29:57.733Z</time>
      </trkpt>
      <trkpt lat="43.79058" lon="3.45884">
        <ele>674</ele>
        <time>2015-04-11T08:30:05.730Z</time>
      </trkpt>
      <trkpt lat="43.79057" lon="3.45886">
        <ele>674</ele>
        <time>2015-04-11T08:30:06.736Z</time>
      </trkpt>
      <trkpt lat="43.7905" lon="3.45893">
        <ele>673</ele>
        <time>2015-04-11T08:30:15.733Z</time>
      </trkpt>
      <trkpt lat="43.79042" lon="3.45899">
        <ele>684</ele>
        <time>2015-04-11T08:31:11.732Z</time>
      </trkpt>
      <trkpt lat="43.79035" lon="3.45908">
        <ele>680</ele>
        <time>2015-04-11T08:31:20.741Z</time>
      </trkpt>
      <trkpt lat="43.79027" lon="3.45931">
        <ele>680</ele>
        <time>2015-04-11T08:31:34.737Z</time>
      </trkpt>
      <trkpt lat="43.79024" lon="3.45945">
        <ele>680</ele>
        <time>2015-04-11T08:31:42.739Z</time>
      </trkpt>
      <trkpt lat="43.79017" lon="3.45972">
        <ele>674</ele>
        <time>2015-04-11T08:31:57.739Z</time>
      </trkpt>
      <trkpt lat="43.79013" lon="3.45984">
        <ele>672</ele>
        <time>2015-04-11T08:32:04.742Z</time>
      </trkpt>
      <trkpt lat="43.79013" lon="3.45996">
        <ele>671</ele>
        <time>2015-04-11T08:32:11.738Z</time>
      </trkpt>
      <trkpt lat="43.79013" lon="3.45997">
        <ele>671</ele>
        <time>2015-04-11T08:32:12.740Z</time>
      </trkpt>
      <trkpt lat="43.79021" lon="3.45999">
        <ele>675</ele>
        <time>2015-04-11T08:32:22.741Z</time>
      </trkpt>
      <trkpt lat="43.79022" lon="3.45999">
        <ele>676</ele>
        <time>2015-04-11T08:32:23.739Z</time>
      </trkpt>
      <trkpt lat="43.79037" lon="3.45986">
        <ele>676</ele>
        <time>2015-04-11T08:32:40.832Z</time>
      </trkpt>
      <trkpt lat="43.79044" lon="3.45975">
        <ele>681</ele>
        <time>2015-04-11T08:32:48.750Z</time>
      </trkpt>
      <trkpt lat="43.79052" lon="3.45966">
        <ele>686</ele>
        <time>2015-04-11T08:32:56.749Z</time>
      </trkpt>
      <trkpt lat="43.7906" lon="3.45962">
        <ele>677</ele>
        <time>2015-04-11T08:33:04.751Z</time>
      </trkpt>
      <trkpt lat="43.79067" lon="3.45952">
        <ele>679</ele>
        <time>2015-04-11T08:33:13.748Z</time>
      </trkpt>
      <trkpt lat="43.79074" lon="3.45947">
        <ele>679</ele>
        <time>2015-04-11T08:33:20.749Z</time>
      </trkpt>
      <trkpt lat="43.79084" lon="3.45948">
        <ele>678</ele>
        <time>2015-04-11T08:33:28.748Z</time>
      </trkpt>
      <trkpt lat="43.79094" lon="3.45943">
        <ele>676</ele>
        <time>2015-04-11T08:33:36.748Z</time>
      </trkpt>
      <trkpt lat="43.79094" lon="3.45942">
        <ele>677</ele>
        <time>2015-04-11T08:33:37.748Z</time>
      </trkpt>
      <trkpt lat="43.79102" lon="3.45938">
        <ele>681</ele>
        <time>2015-04-11T08:33:45.745Z</time>
      </trkpt>
      <trkpt lat="43.79118" lon="3.45925">
        <ele>675</ele>
        <time>2015-04-11T08:34:05.751Z</time>
      </trkpt>
      <trkpt lat="43.79123" lon="3.45918">
        <ele>684</ele>
        <time>2015-04-11T08:34:52.754Z</time>
      </trkpt>
      <trkpt lat="43.79132" lon="3.45909">
        <ele>680</ele>
        <time>2015-04-11T08:35:02.754Z</time>
      </trkpt>
      <trkpt lat="43.79141" lon="3.45903">
        <ele>678</ele>
        <time>2015-04-11T08:35:09.733Z</time>
      </trkpt>
      <trkpt lat="43.79149" lon="3.45895">
        <ele>677</ele>
        <time>2015-04-11T08:35:18.733Z</time>
      </trkpt>
      <trkpt lat="43.79158" lon="3.45889">
        <ele>676</ele>
        <time>2015-04-11T08:35:27.938Z</time>
      </trkpt>
      <trkpt lat="43.79167" lon="3.45881">
        <ele>677</ele>
        <time>2015-04-11T08:35:38.197Z</time>
      </trkpt>
      <trkpt lat="43.79172" lon="3.45878">
        <ele>674</ele>
        <time>2015-04-11T08:35:44.800Z</time>
      </trkpt>
      <trkpt lat="43.7917" lon="3.45879">
        <ele>674</ele>
        <time>2015-04-11T08:35:47.907Z</time>
      </trkpt>
      <trkpt lat="43.79163" lon="3.45886">
        <ele>671</ele>
        <time>2015-04-11T08:35:57.039Z</time>
      </trkpt>
      <trkpt lat="43.79155" lon="3.45894">
        <ele>671</ele>
        <time>2015-04-11T08:36:06.004Z</time>
      </trkpt>
      <trkpt lat="43.79148" lon="3.459">
        <ele>673</ele>
        <time>2015-04-11T08:36:12.224Z</time>
      </trkpt>
      <trkpt lat="43.79132" lon="3.45915">
        <ele>671</ele>
        <time>2015-04-11T08:36:28.089Z</time>
      </trkpt>
      <trkpt lat="43.79123" lon="3.45925">
        <ele>673</ele>
        <time>2015-04-11T08:36:38.126Z</time>
      </trkpt>
      <trkpt lat="43.79107" lon="3.45934">
        <ele>677</ele>
        <time>2015-04-11T08:36:53.174Z</time>
      </trkpt>
      <trkpt lat="43.79098" lon="3.45939">
        <ele>677</ele>
        <time>2015-04-11T08:36:59.946Z</time>
      </trkpt>
      <trkpt lat="43.79088" lon="3.45944">
        <ele>675</ele>
        <time>2015-04-11T08:37:06.870Z</time>
      </trkpt>
      <trkpt lat="43.79079" lon="3.45948">
        <ele>676</ele>
        <time>2015-04-11T08:37:15.873Z</time>
      </trkpt>
      <trkpt lat="43.79071" lon="3.45954">
        <ele>675</ele>
        <time>2015-04-11T08:37:23.888Z</time>
      </trkpt>
      <trkpt lat="43.79063" lon="3.45962">
        <ele>675</ele>
        <time>2015-04-11T08:37:31.883Z</time>
      </trkpt>
      <trkpt lat="43.79055" lon="3.45969">
        <ele>680</ele>
        <time>2015-04-11T08:37:39.876Z</time>
      </trkpt>
      <trkpt lat="43.79045" lon="3.45974">
        <ele>679</ele>
        <time>2015-04-11T08:37:46.927Z</time>
      </trkpt>
      <trkpt lat="43.79038" lon="3.45979">
        <ele>678</ele>
        <time>2015-04-11T08:37:52.876Z</time>
      </trkpt>
      <trkpt lat="43.79032" lon="3.45989">
        <ele>676</ele>
        <time>2015-04-11T08:38:00.318Z</time>
      </trkpt>
      <trkpt lat="43.79023" lon="3.45999">
        <ele>672</ele>
        <time>2015-04-11T08:38:07.908Z</time>
      </trkpt>
      <trkpt lat="43.79016" lon="3.46005">
        <ele>671</ele>
        <time>2015-04-11T08:38:13.864Z</time>
      </trkpt>
      <trkpt lat="43.79008" lon="3.46011">
        <ele>675</ele>
        <time>2015-04-11T08:38:21.868Z</time>
      </trkpt>
      <trkpt lat="43.79" lon="3.4602">
        <ele>677</ele>
        <time>2015-04-11T08:38:51.884Z</time>
      </trkpt>
      <trkpt lat="43.79001" lon="3.46033">
        <ele>678</ele>
        <time>2015-04-11T08:39:00.952Z</time>
      </trkpt>
      <trkpt lat="43.79004" lon="3.46047">
        <ele>680</ele>
        <time>2015-04-11T08:39:10.901Z</time>
      </trkpt>
      <trkpt lat="43.79009" lon="3.46059">
        <ele>677</ele>
        <time>2015-04-11T08:39:19.078Z</time>
      </trkpt>
      <trkpt lat="43.79008" lon="3.46073">
        <ele>683</ele>
        <time>2015-04-11T08:39:30.354Z</time>
      </trkpt>
      <trkpt lat="43.79004" lon="3.46085">
        <ele>685</ele>
        <time>2015-04-11T08:39:39.486Z</time>
      </trkpt>
      <trkpt lat="43.78998" lon="3.46093">
        <ele>685</ele>
        <time>2015-04-11T08:39:46.881Z</time>
      </trkpt>
      <trkpt lat="43.7899" lon="3.46102">
        <ele>686</ele>
        <time>2015-04-11T08:39:56.168Z</time>
      </trkpt>
      <trkpt lat="43.78982" lon="3.4611">
        <ele>684</ele>
        <time>2015-04-11T08:40:04.879Z</time>
      </trkpt>
      <trkpt lat="43.78974" lon="3.46114">
        <ele>688</ele>
        <time>2015-04-11T08:40:26.838Z</time>
      </trkpt>
      <trkpt lat="43.78972" lon="3.46127">
        <ele>690</ele>
        <time>2015-04-11T08:40:38.887Z</time>
      </trkpt>
      <trkpt lat="43.78974" lon="3.46141">
        <ele>690</ele>
        <time>2015-04-11T08:40:49.229Z</time>
      </trkpt>
      <trkpt lat="43.78974" lon="3.4615">
        <ele>695</ele>
        <time>2015-04-11T08:41:08.305Z</time>
      </trkpt>
      <trkpt lat="43.78975" lon="3.46151">
        <ele>693</ele>
        <time>2015-04-11T08:41:18.891Z</time>
      </trkpt>
      <trkpt lat="43.78982" lon="3.46166">
        <ele>691</ele>
        <time>2015-04-11T08:41:29.891Z</time>
      </trkpt>
      <trkpt lat="43.78995" lon="3.46185">
        <ele>693</ele>
        <time>2015-04-11T08:41:46.886Z</time>
      </trkpt>
      <trkpt lat="43.79005" lon="3.46206">
        <ele>691</ele>
        <time>2015-04-11T08:42:03.860Z</time>
      </trkpt>
      <trkpt lat="43.79013" lon="3.46229">
        <ele>691</ele>
        <time>2015-04-11T08:42:21.001Z</time>
      </trkpt>
      <trkpt lat="43.79016" lon="3.46242">
        <ele>694</ele>
        <time>2015-04-11T08:42:30.895Z</time>
      </trkpt>
      <trkpt lat="43.79013" lon="3.46253">
        <ele>693</ele>
        <time>2015-04-11T08:42:39.338Z</time>
      </trkpt>
      <trkpt lat="43.79012" lon="3.46266">
        <ele>693</ele>
        <time>2015-04-11T08:42:47.023Z</time>
      </trkpt>
      <trkpt lat="43.79012" lon="3.46267">
        <ele>693</ele>
        <time>2015-04-11T08:42:47.859Z</time>
      </trkpt>
      <trkpt lat="43.79007" lon="3.46256">
        <ele>696</ele>
        <time>2015-04-11T08:43:18.886Z</time>
      </trkpt>
      <trkpt lat="43.79001" lon="3.46247">
        <ele>697</ele>
        <time>2015-04-11T08:43:28.158Z</time>
      </trkpt>
      <trkpt lat="43.78995" lon="3.46236">
        <ele>699</ele>
        <time>2015-04-11T08:43:37.939Z</time>
      </trkpt>
      <trkpt lat="43.78991" lon="3.46226">
        <ele>700</ele>
        <time>2015-04-11T08:43:45.898Z</time>
      </trkpt>
      <trkpt lat="43.78987" lon="3.46214">
        <ele>699</ele>
        <time>2015-04-11T08:43:54.993Z</time>
      </trkpt>
      <trkpt lat="43.78984" lon="3.462">
        <ele>698</ele>
        <time>2015-04-11T08:44:06.013Z</time>
      </trkpt>
      <trkpt lat="43.78984" lon="3.46187">
        <ele>697</ele>
        <time>2015-04-11T08:44:15.851Z</time>
      </trkpt>
      <trkpt lat="43.78976" lon="3.46182">
        <ele>697</ele>
        <time>2015-04-11T08:44:28.878Z</time>
      </trkpt>
      <trkpt lat="43.78972" lon="3.46182">
        <ele>695</ele>
        <time>2015-04-11T08:44:52.901Z</time>
      </trkpt>
      <trkpt lat="43.78971" lon="3.46184">
        <ele>695</ele>
        <time>2015-04-11T08:44:55.795Z</time>
      </trkpt>
      <trkpt lat="43.78968" lon="3.46185">
        <ele>700</ele>
        <time>2015-04-11T08:45:09.104Z</time>
      </trkpt>
      <trkpt lat="43.78962" lon="3.46195">
        <ele>700</ele>
        <time>2015-04-11T08:45:18.860Z</time>
      </trkpt>
      <trkpt lat="43.78955" lon="3.46204">
        <ele>703</ele>
        <time>2015-04-11T08:45:30.374Z</time>
      </trkpt>
      <trkpt lat="43.78947" lon="3.46208">
        <ele>704</ele>
        <time>2015-04-11T08:45:40.423Z</time>
      </trkpt>
      <trkpt lat="43.78938" lon="3.46216">
        <ele>707</ele>
        <time>2015-04-11T08:45:51.970Z</time>
      </trkpt>
      <trkpt lat="43.78933" lon="3.46226">
        <ele>705</ele>
        <time>2015-04-11T08:46:08.972Z</time>
      </trkpt>
      <trkpt lat="43.78931" lon="3.46239">
        <ele>707</ele>
        <time>2015-04-11T08:46:19.193Z</time>
      </trkpt>
      <trkpt lat="43.7893" lon="3.4624">
        <ele>707</ele>
        <time>2015-04-11T08:46:20.307Z</time>
      </trkpt>
      <trkpt lat="43.78929" lon="3.46251">
        <ele>708</ele>
        <time>2015-04-11T08:46:27.871Z</time>
      </trkpt>
      <trkpt lat="43.78929" lon="3.46253">
        <ele>707</ele>
        <time>2015-04-11T08:46:28.859Z</time>
      </trkpt>
      <trkpt lat="43.78924" lon="3.46263">
        <ele>713</ele>
        <time>2015-04-11T08:46:40.016Z</time>
      </trkpt>
      <trkpt lat="43.78918" lon="3.46274">
        <ele>716</ele>
        <time>2015-04-11T08:46:51.100Z</time>
      </trkpt>
      <trkpt lat="43.78915" lon="3.46285">
        <ele>713</ele>
        <time>2015-04-11T08:47:09.135Z</time>
      </trkpt>
      <trkpt lat="43.78915" lon="3.46286">
        <ele>713</ele>
        <time>2015-04-11T08:47:09.977Z</time>
      </trkpt>
      <trkpt lat="43.78909" lon="3.46295">
        <ele>716</ele>
        <time>2015-04-11T08:47:41.925Z</time>
      </trkpt>
      <trkpt lat="43.78908" lon="3.46296">
        <ele>716</ele>
        <time>2015-04-11T08:47:42.790Z</time>
      </trkpt>
      <trkpt lat="43.7891" lon="3.46302">
        <ele>719</ele>
        <time>2015-04-11T08:47:59.981Z</time>
      </trkpt>
      <trkpt lat="43.78907" lon="3.46313">
        <ele>719</ele>
        <time>2015-04-11T08:48:08.149Z</time>
      </trkpt>
      <trkpt lat="43.78901" lon="3.46323">
        <ele>720</ele>
        <time>2015-04-11T08:48:17.796Z</time>
      </trkpt>
      <trkpt lat="43.78899" lon="3.46337">
        <ele>721</ele>
        <time>2015-04-11T08:48:45.894Z</time>
      </trkpt>
      <trkpt lat="43.78896" lon="3.46349">
        <ele>717</ele>
        <time>2015-04-11T08:48:56.056Z</time>
      </trkpt>
      <trkpt lat="43.78889" lon="3.46357">
        <ele>717</ele>
        <time>2015-04-11T08:49:06.917Z</time>
      </trkpt>
      <trkpt lat="43.78888" lon="3.46357">
        <ele>718</ele>
        <time>2015-04-11T08:49:07.882Z</time>
      </trkpt>
      <trkpt lat="43.78872" lon="3.4637">
        <ele>718</ele>
        <time>2015-04-11T08:49:25.864Z</time>
      </trkpt>
      <trkpt lat="43.78866" lon="3.46377">
        <ele>720</ele>
        <time>2015-04-11T08:49:36.145Z</time>
      </trkpt>
      <trkpt lat="43.78859" lon="3.46386">
        <ele>719</ele>
        <time>2015-04-11T08:49:44.889Z</time>
      </trkpt>
      <trkpt lat="43.78856" lon="3.464">
        <ele>715</ele>
        <time>2015-04-11T08:49:53.874Z</time>
      </trkpt>
      <trkpt lat="43.78839" lon="3.46413">
        <ele>721</ele>
        <time>2015-04-11T08:50:21.792Z</time>
      </trkpt>
      <trkpt lat="43.78837" lon="3.46417">
        <ele>717</ele>
        <time>2015-04-11T08:50:33.781Z</time>
      </trkpt>
      <trkpt lat="43.78846" lon="3.46411">
        <ele>721</ele>
        <time>2015-04-11T08:50:56.888Z</time>
      </trkpt>
      <trkpt lat="43.78853" lon="3.46402">
        <ele>720</ele>
        <time>2015-04-11T08:51:07.866Z</time>
      </trkpt>
      <trkpt lat="43.78858" lon="3.46391">
        <ele>717</ele>
        <time>2015-04-11T08:51:16.923Z</time>
      </trkpt>
      <trkpt lat="43.7888" lon="3.46368">
        <ele>716</ele>
        <time>2015-04-11T08:51:40.877Z</time>
      </trkpt>
      <trkpt lat="43.78889" lon="3.4636">
        <ele>715</ele>
        <time>2015-04-11T08:51:49.956Z</time>
      </trkpt>
      <trkpt lat="43.78895" lon="3.46353">
        <ele>715</ele>
        <time>2015-04-11T08:51:56.884Z</time>
      </trkpt>
      <trkpt lat="43.78901" lon="3.46328">
        <ele>719</ele>
        <time>2015-04-11T08:52:16.841Z</time>
      </trkpt>
      <trkpt lat="43.78906" lon="3.46316">
        <ele>720</ele>
        <time>2015-04-11T08:52:28.003Z</time>
      </trkpt>
      <trkpt lat="43.78909" lon="3.46305">
        <ele>717</ele>
        <time>2015-04-11T08:52:34.954Z</time>
      </trkpt>
      <trkpt lat="43.78909" lon="3.46304">
        <ele>717</ele>
        <time>2015-04-11T08:52:35.860Z</time>
      </trkpt>
      <trkpt lat="43.78912" lon="3.46293">
        <ele>720</ele>
        <time>2015-04-11T08:52:47.993Z</time>
      </trkpt>
      <trkpt lat="43.78921" lon="3.46269">
        <ele>715</ele>
        <time>2015-04-11T08:53:05.862Z</time>
      </trkpt>
      <trkpt lat="43.78927" lon="3.46258">
        <ele>712</ele>
        <time>2015-04-11T08:53:16.921Z</time>
      </trkpt>
      <trkpt lat="43.78928" lon="3.46246">
        <ele>712</ele>
        <time>2015-04-11T08:53:26.953Z</time>
      </trkpt>
      <trkpt lat="43.78932" lon="3.46234">
        <ele>711</ele>
        <time>2015-04-11T08:53:37.947Z</time>
      </trkpt>
      <trkpt lat="43.78935" lon="3.46221">
        <ele>709</ele>
        <time>2015-04-11T08:53:51.331Z</time>
      </trkpt>
      <trkpt lat="43.78942" lon="3.46214">
        <ele>708</ele>
        <time>2015-04-11T08:54:01.190Z</time>
      </trkpt>
      <trkpt lat="43.7895" lon="3.46208">
        <ele>703</ele>
        <time>2015-04-11T08:54:09.918Z</time>
      </trkpt>
      <trkpt lat="43.78958" lon="3.46202">
        <ele>702</ele>
        <time>2015-04-11T08:54:20.250Z</time>
      </trkpt>
      <trkpt lat="43.78965" lon="3.4619">
        <ele>701</ele>
        <time>2015-04-11T08:54:33.107Z</time>
      </trkpt>
      <trkpt lat="43.7897" lon="3.46178">
        <ele>700</ele>
        <time>2015-04-11T08:54:43.363Z</time>
      </trkpt>
      <trkpt lat="43.78973" lon="3.46166">
        <ele>698</ele>
        <time>2015-04-11T08:54:53.944Z</time>
      </trkpt>
      <trkpt lat="43.78976" lon="3.46154">
        <ele>700</ele>
        <time>2015-04-11T08:55:03.844Z</time>
      </trkpt>
      <trkpt lat="43.78976" lon="3.46142">
        <ele>692</ele>
        <time>2015-04-11T08:55:11.275Z</time>
      </trkpt>
      <trkpt lat="43.78974" lon="3.46129">
        <ele>693</ele>
        <time>2015-04-11T08:55:21.548Z</time>
      </trkpt>
      <trkpt lat="43.78973" lon="3.46114">
        <ele>694</ele>
        <time>2015-04-11T08:55:32.267Z</time>
      </trkpt>
      <trkpt lat="43.78968" lon="3.46103">
        <ele>690</ele>
        <time>2015-04-11T08:55:38.865Z</time>
      </trkpt>
      <trkpt lat="43.78958" lon="3.46095">
        <ele>689</ele>
        <time>2015-04-11T08:55:49.408Z</time>
      </trkpt>
      <trkpt lat="43.78949" lon="3.46091">
        <ele>697</ele>
        <time>2015-04-11T08:55:58.072Z</time>
      </trkpt>
      <trkpt lat="43.7894" lon="3.4609">
        <ele>696</ele>
        <time>2015-04-11T08:56:03.975Z</time>
      </trkpt>
      <trkpt lat="43.78931" lon="3.46087">
        <ele>685</ele>
        <time>2015-04-11T08:56:09.878Z</time>
      </trkpt>
      <trkpt lat="43.78922" lon="3.46094">
        <ele>687</ele>
        <time>2015-04-11T08:56:20.176Z</time>
      </trkpt>
      <trkpt lat="43.78914" lon="3.46099">
        <ele>693</ele>
        <time>2015-04-11T08:56:28.859Z</time>
      </trkpt>
      <trkpt lat="43.78906" lon="3.46105">
        <ele>693</ele>
        <time>2015-04-11T08:56:36.897Z</time>
      </trkpt>
      <trkpt lat="43.78899" lon="3.46112">
        <ele>692</ele>
        <time>2015-04-11T08:56:44.861Z</time>
      </trkpt>
      <trkpt lat="43.78889" lon="3.46119">
        <ele>692</ele>
        <time>2015-04-11T08:56:53.865Z</time>
      </trkpt>
      <trkpt lat="43.78883" lon="3.46127">
        <ele>690</ele>
        <time>2015-04-11T08:57:00.907Z</time>
      </trkpt>
      <trkpt lat="43.78886" lon="3.46139">
        <ele>689</ele>
        <time>2015-04-11T08:57:08.268Z</time>
      </trkpt>
      <trkpt lat="43.78888" lon="3.46148">
        <ele>695</ele>
        <time>2015-04-11T08:57:40.927Z</time>
      </trkpt>
      <trkpt lat="43.78888" lon="3.46148">
        <ele>696</ele>
        <time>2015-04-11T08:57:42.183Z</time>
      </trkpt>
      <trkpt lat="43.78889" lon="3.46149">
        <ele>694</ele>
        <time>2015-04-11T08:57:44.881Z</time>
      </trkpt>
      <trkpt lat="43.78894" lon="3.46161">
        <ele>694</ele>
        <time>2015-04-11T08:57:58.859Z</time>
      </trkpt>
      <trkpt lat="43.78897" lon="3.46173">
        <ele>696</ele>
        <time>2015-04-11T08:58:14.952Z</time>
      </trkpt>
      <trkpt lat="43.78898" lon="3.46186">
        <ele>696</ele>
        <time>2015-04-11T08:58:24.859Z</time>
      </trkpt>
      <trkpt lat="43.789" lon="3.46201">
        <ele>700</ele>
        <time>2015-04-11T09:00:02.818Z</time>
      </trkpt>
      <trkpt lat="43.78902" lon="3.46198">
        <ele>700</ele>
        <time>2015-04-11T09:00:08.854Z</time>
      </trkpt>
      <trkpt lat="43.78911" lon="3.46199">
        <ele>702</ele>
        <time>2015-04-11T09:00:20.866Z</time>
      </trkpt>
      <trkpt lat="43.7892" lon="3.46195">
        <ele>700</ele>
        <time>2015-04-11T09:00:32.865Z</time>
      </trkpt>
      <trkpt lat="43.7892" lon="3.46194">
        <ele>701</ele>
        <time>2015-04-11T09:00:33.869Z</time>
      </trkpt>
      <trkpt lat="43.78928" lon="3.46198">
        <ele>700</ele>
        <time>2015-04-11T09:00:48.886Z</time>
      </trkpt>
      <trkpt lat="43.78936" lon="3.46207">
        <ele>705</ele>
        <time>2015-04-11T09:01:03.045Z</time>
      </trkpt>
      <trkpt lat="43.78938" lon="3.46208">
        <ele>705</ele>
        <time>2015-04-11T09:07:58.045Z</time>
      </trkpt>
      <trkpt lat="43.78938" lon="3.46208">
        <ele>709</ele>
        <time>2015-04-11T09:08:00.136Z</time>
      </trkpt>
      <trkpt lat="43.78934" lon="3.46198">
        <ele>703</ele>
        <time>2015-04-11T09:08:19.979Z</time>
      </trkpt>
      <trkpt lat="43.78924" lon="3.46194">
        <ele>706</ele>
        <time>2015-04-11T09:08:40.885Z</time>
      </trkpt>
      <trkpt lat="43.78915" lon="3.46198">
        <ele>705</ele>
        <time>2015-04-11T09:08:57.080Z</time>
      </trkpt>
      <trkpt lat="43.78907" lon="3.46207">
        <ele>697</ele>
        <time>2015-04-11T09:09:15.785Z</time>
      </trkpt>
      <trkpt lat="43.78906" lon="3.46213">
        <ele>699</ele>
        <time>2015-04-11T09:09:33.842Z</time>
      </trkpt>
      <trkpt lat="43.78899" lon="3.46237">
        <ele>701</ele>
        <time>2015-04-11T09:09:54.842Z</time>
      </trkpt>
      <trkpt lat="43.78893" lon="3.46248">
        <ele>703</ele>
        <time>2015-04-11T09:10:04.916Z</time>
      </trkpt>
      <trkpt lat="43.78887" lon="3.46259">
        <ele>707</ele>
        <time>2015-04-11T09:10:19.909Z</time>
      </trkpt>
      <trkpt lat="43.78883" lon="3.46269">
        <ele>707</ele>
        <time>2015-04-11T09:10:29.202Z</time>
      </trkpt>
      <trkpt lat="43.78877" lon="3.4628">
        <ele>707</ele>
        <time>2015-04-11T09:10:41.762Z</time>
      </trkpt>
      <trkpt lat="43.7887" lon="3.46288">
        <ele>711</ele>
        <time>2015-04-11T09:11:35.917Z</time>
      </trkpt>
      <trkpt lat="43.78862" lon="3.46294">
        <ele>711</ele>
        <time>2015-04-11T09:11:44.770Z</time>
      </trkpt>
      <trkpt lat="43.78855" lon="3.46302">
        <ele>709</ele>
        <time>2015-04-11T09:11:52.861Z</time>
      </trkpt>
      <trkpt lat="43.78843" lon="3.46323">
        <ele>707</ele>
        <time>2015-04-11T09:12:12.829Z</time>
      </trkpt>
      <trkpt lat="43.78835" lon="3.46331">
        <ele>710</ele>
        <time>2015-04-11T09:12:23.852Z</time>
      </trkpt>
      <trkpt lat="43.78826" lon="3.46336">
        <ele>710</ele>
        <time>2015-04-11T09:12:43.874Z</time>
      </trkpt>
      <trkpt lat="43.78817" lon="3.46338">
        <ele>710</ele>
        <time>2015-04-11T09:12:55.027Z</time>
      </trkpt>
      <trkpt lat="43.78808" lon="3.46337">
        <ele>711</ele>
        <time>2015-04-11T09:13:05.872Z</time>
      </trkpt>
      <trkpt lat="43.788" lon="3.46332">
        <ele>712</ele>
        <time>2015-04-11T09:13:25.898Z</time>
      </trkpt>
      <trkpt lat="43.78795" lon="3.46336">
        <ele>710</ele>
        <time>2015-04-11T09:14:01.905Z</time>
      </trkpt>
      <trkpt lat="43.78795" lon="3.46335">
        <ele>712</ele>
        <time>2015-04-11T09:14:05.753Z</time>
      </trkpt>
      <trkpt lat="43.78795" lon="3.46334">
        <ele>716</ele>
        <time>2015-04-11T09:14:14.746Z</time>
      </trkpt>
      <trkpt lat="43.78793" lon="3.46333">
        <ele>713</ele>
        <time>2015-04-11T09:14:21.017Z</time>
      </trkpt>
      <trkpt lat="43.7879" lon="3.46322">
        <ele>710</ele>
        <time>2015-04-11T09:15:11.797Z</time>
      </trkpt>
      <trkpt lat="43.78785" lon="3.46319">
        <ele>709</ele>
        <time>2015-04-11T09:15:24.891Z</time>
      </trkpt>
      <trkpt lat="43.78783" lon="3.46316">
        <ele>707</ele>
        <time>2015-04-11T09:15:30.856Z</time>
      </trkpt>
      <trkpt lat="43.78789" lon="3.46325">
        <ele>708</ele>
        <time>2015-04-11T09:18:30.756Z</time>
      </trkpt>
      <trkpt lat="43.78789" lon="3.46326">
        <ele>708</ele>
        <time>2015-04-11T09:18:31.754Z</time>
      </trkpt>
      <trkpt lat="43.78799" lon="3.46349">
        <ele>711</ele>
        <time>2015-04-11T09:19:14.825Z</time>
      </trkpt>
      <trkpt lat="43.78806" lon="3.46358">
        <ele>715</ele>
        <time>2015-04-11T09:19:27.034Z</time>
      </trkpt>
      <trkpt lat="43.7881" lon="3.46369">
        <ele>716</ele>
        <time>2015-04-11T09:19:41.825Z</time>
      </trkpt>
      <trkpt lat="43.78817" lon="3.46377">
        <ele>717</ele>
        <time>2015-04-11T09:19:55.037Z</time>
      </trkpt>
      <trkpt lat="43.78818" lon="3.46386">
        <ele>721</ele>
        <time>2015-04-11T09:20:20.755Z</time>
      </trkpt>
      <trkpt lat="43.78818" lon="3.46386">
        <ele>721</ele>
        <time>2015-04-11T09:20:22.831Z</time>
      </trkpt>
      <trkpt lat="43.78816" lon="3.46387">
        <ele>722</ele>
        <time>2015-04-11T09:20:26.801Z</time>
      </trkpt>
      <trkpt lat="43.78816" lon="3.46388">
        <ele>722</ele>
        <time>2015-04-11T09:20:31.881Z</time>
      </trkpt>
      <trkpt lat="43.78825" lon="3.46389">
        <ele>719</ele>
        <time>2015-04-11T09:20:43.082Z</time>
      </trkpt>
      <trkpt lat="43.78826" lon="3.46389">
        <ele>718</ele>
        <time>2015-04-11T09:20:43.880Z</time>
      </trkpt>
      <trkpt lat="43.78833" lon="3.46396">
        <ele>718</ele>
        <time>2015-04-11T09:21:01.076Z</time>
      </trkpt>
      <trkpt lat="43.78833" lon="3.46397">
        <ele>729</ele>
        <time>2015-04-11T09:21:12.889Z</time>
      </trkpt>
      <trkpt lat="43.78833" lon="3.46397">
        <ele>727</ele>
        <time>2015-04-11T09:21:13.750Z</time>
      </trkpt>
      <trkpt lat="43.78834" lon="3.46399">
        <ele>720</ele>
        <time>2015-04-11T09:21:23.819Z</time>
      </trkpt>
      <trkpt lat="43.78835" lon="3.46403">
        <ele>722</ele>
        <time>2015-04-11T09:21:28.048Z</time>
      </trkpt>
      <trkpt lat="43.78827" lon="3.46409">
        <ele>718</ele>
        <time>2015-04-11T09:21:43.878Z</time>
      </trkpt>
      <trkpt lat="43.78826" lon="3.46409">
        <ele>718</ele>
        <time>2015-04-11T09:21:44.826Z</time>
      </trkpt>
      <trkpt lat="43.78818" lon="3.46415">
        <ele>726</ele>
        <time>2015-04-11T09:21:56.941Z</time>
      </trkpt>
      <trkpt lat="43.78811" lon="3.46422">
        <ele>727</ele>
        <time>2015-04-11T09:22:11.847Z</time>
      </trkpt>
      <trkpt lat="43.78804" lon="3.4643">
        <ele>732</ele>
        <time>2015-04-11T09:22:36.150Z</time>
      </trkpt>
      <trkpt lat="43.78796" lon="3.46439">
        <ele>729</ele>
        <time>2015-04-11T09:22:46.843Z</time>
      </trkpt>
      <trkpt lat="43.78788" lon="3.46445">
        <ele>733</ele>
        <time>2015-04-11T09:23:01.133Z</time>
      </trkpt>
      <trkpt lat="43.78781" lon="3.46453">
        <ele>732</ele>
        <time>2015-04-11T09:23:17.832Z</time>
      </trkpt>
      <trkpt lat="43.78775" lon="3.46462">
        <ele>736</ele>
        <time>2015-04-11T09:23:30.822Z</time>
      </trkpt>
      <trkpt lat="43.78774" lon="3.46462">
        <ele>737</ele>
        <time>2015-04-11T09:23:31.833Z</time>
      </trkpt>
      <trkpt lat="43.78767" lon="3.4647">
        <ele>737</ele>
        <time>2015-04-11T09:23:56.913Z</time>
      </trkpt>
      <trkpt lat="43.78759" lon="3.46479">
        <ele>742</ele>
        <time>2015-04-11T09:24:13.927Z</time>
      </trkpt>
      <trkpt lat="43.78748" lon="3.46501">
        <ele>746</ele>
        <time>2015-04-11T09:25:01.287Z</time>
      </trkpt>
      <trkpt lat="43.78748" lon="3.46503">
        <ele>747</ele>
        <time>2015-04-11T09:25:04.897Z</time>
      </trkpt>
      <trkpt lat="43.78739" lon="3.46518">
        <ele>748</ele>
        <time>2015-04-11T09:25:44.814Z</time>
      </trkpt>
      <trkpt lat="43.78732" lon="3.46525">
        <ele>753</ele>
        <time>2015-04-11T09:25:58.002Z</time>
      </trkpt>
      <trkpt lat="43.78723" lon="3.4653">
        <ele>752</ele>
        <time>2015-04-11T09:26:11.800Z</time>
      </trkpt>
      <trkpt lat="43.78722" lon="3.46532">
        <ele>758</ele>
        <time>2015-04-11T09:26:22.788Z</time>
      </trkpt>
      <trkpt lat="43.78722" lon="3.46534">
        <ele>759</ele>
        <time>2015-04-11T09:26:28.746Z</time>
      </trkpt>
      <trkpt lat="43.78718" lon="3.46546">
        <ele>760</ele>
        <time>2015-04-11T09:26:43.833Z</time>
      </trkpt>
      <trkpt lat="43.78711" lon="3.46556">
        <ele>757</ele>
        <time>2015-04-11T09:26:55.879Z</time>
      </trkpt>
      <trkpt lat="43.78704" lon="3.46562">
        <ele>762</ele>
        <time>2015-04-11T09:27:24.826Z</time>
      </trkpt>
      <trkpt lat="43.78702" lon="3.46568">
        <ele>763</ele>
        <time>2015-04-11T09:27:52.078Z</time>
      </trkpt>
      <trkpt lat="43.787" lon="3.4657">
        <ele>765</ele>
        <time>2015-04-11T09:27:56.009Z</time>
      </trkpt>
      <trkpt lat="43.78691" lon="3.46576">
        <ele>767</ele>
        <time>2015-04-11T09:28:12.895Z</time>
      </trkpt>
      <trkpt lat="43.78687" lon="3.46577">
        <ele>767</ele>
        <time>2015-04-11T09:28:22.846Z</time>
      </trkpt>
      <trkpt lat="43.78683" lon="3.46588">
        <ele>772</ele>
        <time>2015-04-11T09:28:36.916Z</time>
      </trkpt>
      <trkpt lat="43.78683" lon="3.46589">
        <ele>770</ele>
        <time>2015-04-11T09:28:37.744Z</time>
      </trkpt>
      <trkpt lat="43.7868" lon="3.46591">
        <ele>771</ele>
        <time>2015-04-11T09:28:50.846Z</time>
      </trkpt>
      <trkpt lat="43.78677" lon="3.46594">
        <ele>770</ele>
        <time>2015-04-11T09:28:55.025Z</time>
      </trkpt>
      <trkpt lat="43.78671" lon="3.46605">
        <ele>771</ele>
        <time>2015-04-11T09:29:10.128Z</time>
      </trkpt>
      <trkpt lat="43.78663" lon="3.46612">
        <ele>774</ele>
        <time>2015-04-11T09:29:32.822Z</time>
      </trkpt>
      <trkpt lat="43.78656" lon="3.4662">
        <ele>774</ele>
        <time>2015-04-11T09:29:44.824Z</time>
      </trkpt>
      <trkpt lat="43.78647" lon="3.46621">
        <ele>778</ele>
        <time>2015-04-11T09:30:18.775Z</time>
      </trkpt>
      <trkpt lat="43.78639" lon="3.46628">
        <ele>780</ele>
        <time>2015-04-11T09:30:36.896Z</time>
      </trkpt>
      <trkpt lat="43.78639" lon="3.46629">
        <ele>781</ele>
        <time>2015-04-11T09:30:37.878Z</time>
      </trkpt>
      <trkpt lat="43.78631" lon="3.46634">
        <ele>781</ele>
        <time>2015-04-11T09:30:49.832Z</time>
      </trkpt>
      <trkpt lat="43.7863" lon="3.46634">
        <ele>781</ele>
        <time>2015-04-11T09:30:50.835Z</time>
      </trkpt>
      <trkpt lat="43.78622" lon="3.46639">
        <ele>784</ele>
        <time>2015-04-11T09:31:03.827Z</time>
      </trkpt>
      <trkpt lat="43.78614" lon="3.46649">
        <ele>785</ele>
        <time>2015-04-11T09:31:22.011Z</time>
      </trkpt>
      <trkpt lat="43.78608" lon="3.46659">
        <ele>787</ele>
        <time>2015-04-11T09:31:31.855Z</time>
      </trkpt>
      <trkpt lat="43.78609" lon="3.4666">
        <ele>789</ele>
        <time>2015-04-11T09:31:36.754Z</time>
      </trkpt>
      <trkpt lat="43.78606" lon="3.46663">
        <ele>789</ele>
        <time>2015-04-11T09:31:41.836Z</time>
      </trkpt>
      <trkpt lat="43.78603" lon="3.46675">
        <ele>790</ele>
        <time>2015-04-11T09:31:52.095Z</time>
      </trkpt>
      <trkpt lat="43.78601" lon="3.46686">
        <ele>791</ele>
        <time>2015-04-11T09:32:02.888Z</time>
      </trkpt>
      <trkpt lat="43.78602" lon="3.467">
        <ele>794</ele>
        <time>2015-04-11T09:32:23.905Z</time>
      </trkpt>
      <trkpt lat="43.78607" lon="3.4671">
        <ele>792</ele>
        <time>2015-04-11T09:32:51.819Z</time>
      </trkpt>
      <trkpt lat="43.78611" lon="3.46722">
        <ele>791</ele>
        <time>2015-04-11T09:33:02.065Z</time>
      </trkpt>
      <trkpt lat="43.78613" lon="3.46734">
        <ele>792</ele>
        <time>2015-04-11T09:33:11.828Z</time>
      </trkpt>
      <trkpt lat="43.78613" lon="3.46746">
        <ele>796</ele>
        <time>2015-04-11T09:33:23.084Z</time>
      </trkpt>
      <trkpt lat="43.78612" lon="3.46765">
        <ele>794</ele>
        <time>2015-04-11T09:33:46.753Z</time>
      </trkpt>
      <trkpt lat="43.78612" lon="3.46767">
        <ele>796</ele>
        <time>2015-04-11T09:33:49.827Z</time>
      </trkpt>
      <trkpt lat="43.78615" lon="3.46792">
        <ele>794</ele>
        <time>2015-04-11T09:34:10.990Z</time>
      </trkpt>
      <trkpt lat="43.78616" lon="3.46793">
        <ele>794</ele>
        <time>2015-04-11T09:34:11.847Z</time>
      </trkpt>
      <trkpt lat="43.78623" lon="3.46799">
        <ele>796</ele>
        <time>2015-04-11T09:34:21.826Z</time>
      </trkpt>
      <trkpt lat="43.78624" lon="3.468">
        <ele>796</ele>
        <time>2015-04-11T09:34:23.056Z</time>
      </trkpt>
      <trkpt lat="43.78631" lon="3.46804">
        <ele>799</ele>
        <time>2015-04-11T09:34:44.813Z</time>
      </trkpt>
      <trkpt lat="43.78637" lon="3.46816">
        <ele>800</ele>
        <time>2015-04-11T09:34:54.831Z</time>
      </trkpt>
      <trkpt lat="43.7864" lon="3.46827">
        <ele>807</ele>
        <time>2015-04-11T09:35:14.856Z</time>
      </trkpt>
      <trkpt lat="43.78642" lon="3.4684">
        <ele>806</ele>
        <time>2015-04-11T09:35:27.828Z</time>
      </trkpt>
      <trkpt lat="43.78646" lon="3.4685">
        <ele>809</ele>
        <time>2015-04-11T09:35:36.755Z</time>
      </trkpt>
      <trkpt lat="43.78652" lon="3.46854">
        <ele>807</ele>
        <time>2015-04-11T09:35:48.829Z</time>
      </trkpt>
      <trkpt lat="43.78649" lon="3.46855">
        <ele>807</ele>
        <time>2015-04-11T09:35:52.866Z</time>
      </trkpt>
      <trkpt lat="43.78647" lon="3.46866">
        <ele>805</ele>
        <time>2015-04-11T09:36:04.011Z</time>
      </trkpt>
      <trkpt lat="43.78652" lon="3.46878">
        <ele>804</ele>
        <time>2015-04-11T09:36:15.045Z</time>
      </trkpt>
      <trkpt lat="43.78655" lon="3.4689">
        <ele>805</ele>
        <time>2015-04-11T09:36:24.836Z</time>
      </trkpt>
      <trkpt lat="43.78657" lon="3.46894">
        <ele>811</ele>
        <time>2015-04-11T09:36:37.074Z</time>
      </trkpt>
      <trkpt lat="43.78662" lon="3.46903">
        <ele>809</ele>
        <time>2015-04-11T09:36:46.888Z</time>
      </trkpt>
      <trkpt lat="43.78668" lon="3.46914">
        <ele>809</ele>
        <time>2015-04-11T09:36:56.829Z</time>
      </trkpt>
      <trkpt lat="43.78674" lon="3.46925">
        <ele>808</ele>
        <time>2015-04-11T09:37:09.994Z</time>
      </trkpt>
      <trkpt lat="43.78686" lon="3.46943">
        <ele>807</ele>
        <time>2015-04-11T09:38:13.142Z</time>
      </trkpt>
      <trkpt lat="43.78694" lon="3.46948">
        <ele>807</ele>
        <time>2015-04-11T09:38:24.910Z</time>
      </trkpt>
      <trkpt lat="43.78703" lon="3.4695">
        <ele>804</ele>
        <time>2015-04-11T09:38:39.925Z</time>
      </trkpt>
      <trkpt lat="43.78707" lon="3.4695">
        <ele>805</ele>
        <time>2015-04-11T09:38:49.180Z</time>
      </trkpt>
      <trkpt lat="43.78706" lon="3.46953">
        <ele>804</ele>
        <time>2015-04-11T09:38:53.915Z</time>
      </trkpt>
      <trkpt lat="43.7871" lon="3.46962">
        <ele>805</ele>
        <time>2015-04-11T09:39:10.916Z</time>
      </trkpt>
      <trkpt lat="43.78711" lon="3.46963">
        <ele>804</ele>
        <time>2015-04-11T09:39:12.205Z</time>
      </trkpt>
      <trkpt lat="43.78719" lon="3.4697">
        <ele>803</ele>
        <time>2015-04-11T09:39:28.749Z</time>
      </trkpt>
      <trkpt lat="43.78728" lon="3.46967">
        <ele>800</ele>
        <time>2015-04-11T09:39:55.048Z</time>
      </trkpt>
      <trkpt lat="43.78737" lon="3.46963">
        <ele>801</ele>
        <time>2015-04-11T09:40:03.826Z</time>
      </trkpt>
      <trkpt lat="43.78745" lon="3.46956">
        <ele>801</ele>
        <time>2015-04-11T09:40:13.851Z</time>
      </trkpt>
      <trkpt lat="43.78762" lon="3.46949">
        <ele>802</ele>
        <time>2015-04-11T09:40:32.949Z</time>
      </trkpt>
      <trkpt lat="43.78763" lon="3.46949">
        <ele>803</ele>
        <time>2015-04-11T09:40:33.869Z</time>
      </trkpt>
      <trkpt lat="43.7877" lon="3.46942">
        <ele>799</ele>
        <time>2015-04-11T09:40:45.822Z</time>
      </trkpt>
      <trkpt lat="43.78779" lon="3.46938">
        <ele>797</ele>
        <time>2015-04-11T09:40:57.244Z</time>
      </trkpt>
      <trkpt lat="43.7878" lon="3.46937">
        <ele>797</ele>
        <time>2015-04-11T09:40:58.190Z</time>
      </trkpt>
      <trkpt lat="43.78788" lon="3.46932">
        <ele>799</ele>
        <time>2015-04-11T09:41:06.813Z</time>
      </trkpt>
      <trkpt lat="43.78806" lon="3.46925">
        <ele>800</ele>
        <time>2015-04-11T09:41:26.095Z</time>
      </trkpt>
      <trkpt lat="43.78816" lon="3.46922">
        <ele>799</ele>
        <time>2015-04-11T09:41:36.822Z</time>
      </trkpt>
      <trkpt lat="43.78824" lon="3.46923">
        <ele>798</ele>
        <time>2015-04-11T09:41:44.830Z</time>
      </trkpt>
      <trkpt lat="43.78834" lon="3.46925">
        <ele>801</ele>
        <time>2015-04-11T09:41:57.037Z</time>
      </trkpt>
      <trkpt lat="43.78847" lon="3.46935">
        <ele>803</ele>
        <time>2015-04-11T09:42:24.951Z</time>
      </trkpt>
      <trkpt lat="43.78848" lon="3.46935">
        <ele>802</ele>
        <time>2015-04-11T09:42:28.005Z</time>
      </trkpt>
      <trkpt lat="43.78856" lon="3.46941">
        <ele>805</ele>
        <time>2015-04-11T09:42:36.900Z</time>
      </trkpt>
      <trkpt lat="43.78866" lon="3.46944">
        <ele>805</ele>
        <time>2015-04-11T09:42:47.108Z</time>
      </trkpt>
      <trkpt lat="43.78868" lon="3.46943">
        <ele>801</ele>
        <time>2015-04-11T09:42:59.229Z</time>
      </trkpt>
      <trkpt lat="43.78878" lon="3.46951">
        <ele>802</ele>
        <time>2015-04-11T09:43:13.156Z</time>
      </trkpt>
      <trkpt lat="43.78878" lon="3.46952">
        <ele>801</ele>
        <time>2015-04-11T09:43:13.823Z</time>
      </trkpt>
      <trkpt lat="43.78882" lon="3.46956">
        <ele>802</ele>
        <time>2015-04-11T09:43:25.158Z</time>
      </trkpt>
      <trkpt lat="43.78882" lon="3.46955">
        <ele>801</ele>
        <time>2015-04-11T09:43:25.797Z</time>
      </trkpt>
      <trkpt lat="43.78882" lon="3.46956">
        <ele>801</ele>
        <time>2015-04-11T09:43:39.109Z</time>
      </trkpt>
      <trkpt lat="43.78889" lon="3.46963">
        <ele>804</ele>
        <time>2015-04-11T09:43:50.999Z</time>
      </trkpt>
      <trkpt lat="43.78895" lon="3.46975">
        <ele>805</ele>
        <time>2015-04-11T09:44:02.130Z</time>
      </trkpt>
      <trkpt lat="43.78909" lon="3.4701">
        <ele>800</ele>
        <time>2015-04-11T09:44:28.808Z</time>
      </trkpt>
      <trkpt lat="43.78913" lon="3.47022">
        <ele>801</ele>
        <time>2015-04-11T09:44:39.889Z</time>
      </trkpt>
      <trkpt lat="43.78918" lon="3.4703">
        <ele>801</ele>
        <time>2015-04-11T09:44:48.829Z</time>
      </trkpt>
      <trkpt lat="43.78924" lon="3.47043">
        <ele>801</ele>
        <time>2015-04-11T09:44:59.866Z</time>
      </trkpt>
      <trkpt lat="43.78924" lon="3.47055">
        <ele>802</ele>
        <time>2015-04-11T09:45:34.965Z</time>
      </trkpt>
      <trkpt lat="43.78925" lon="3.47057">
        <ele>807</ele>
        <time>2015-04-11T09:45:44.134Z</time>
      </trkpt>
      <trkpt lat="43.78925" lon="3.4707">
        <ele>804</ele>
        <time>2015-04-11T09:45:55.259Z</time>
      </trkpt>
      <trkpt lat="43.78927" lon="3.47083">
        <ele>804</ele>
        <time>2015-04-11T09:46:07.074Z</time>
      </trkpt>
      <trkpt lat="43.78927" lon="3.47084">
        <ele>803</ele>
        <time>2015-04-11T09:46:07.817Z</time>
      </trkpt>
      <trkpt lat="43.78929" lon="3.47095">
        <ele>809</ele>
        <time>2015-04-11T09:46:19.858Z</time>
      </trkpt>
      <trkpt lat="43.78929" lon="3.47108">
        <ele>809</ele>
        <time>2015-04-11T09:46:29.926Z</time>
      </trkpt>
      <trkpt lat="43.78933" lon="3.47119">
        <ele>809</ele>
        <time>2015-04-11T09:46:41.820Z</time>
      </trkpt>
      <trkpt lat="43.78936" lon="3.47134">
        <ele>809</ele>
        <time>2015-04-11T09:46:59.051Z</time>
      </trkpt>
      <trkpt lat="43.78935" lon="3.47146">
        <ele>812</ele>
        <time>2015-04-11T09:47:09.937Z</time>
      </trkpt>
      <trkpt lat="43.78939" lon="3.47159">
        <ele>812</ele>
        <time>2015-04-11T09:47:21.065Z</time>
      </trkpt>
      <trkpt lat="43.78941" lon="3.47172">
        <ele>812</ele>
        <time>2015-04-11T09:47:30.925Z</time>
      </trkpt>
      <trkpt lat="43.78942" lon="3.47186">
        <ele>813</ele>
        <time>2015-04-11T09:47:40.838Z</time>
      </trkpt>
      <trkpt lat="43.78946" lon="3.47197">
        <ele>814</ele>
        <time>2015-04-11T09:47:50.806Z</time>
      </trkpt>
      <trkpt lat="43.78948" lon="3.47201">
        <ele>812</ele>
        <time>2015-04-11T09:47:59.969Z</time>
      </trkpt>
      <trkpt lat="43.78952" lon="3.47213">
        <ele>812</ele>
        <time>2015-04-11T09:48:08.815Z</time>
      </trkpt>
      <trkpt lat="43.78953" lon="3.47225">
        <ele>814</ele>
        <time>2015-04-11T09:48:37.867Z</time>
      </trkpt>
      <trkpt lat="43.78952" lon="3.47225">
        <ele>814</ele>
        <time>2015-04-11T09:48:38.893Z</time>
      </trkpt>
      <trkpt lat="43.78954" lon="3.47238">
        <ele>813</ele>
        <time>2015-04-11T09:48:53.072Z</time>
      </trkpt>
      <trkpt lat="43.78955" lon="3.4725">
        <ele>812</ele>
        <time>2015-04-11T09:49:03.851Z</time>
      </trkpt>
      <trkpt lat="43.78954" lon="3.47251">
        <ele>812</ele>
        <time>2015-04-11T09:49:05.298Z</time>
      </trkpt>
      <trkpt lat="43.78956" lon="3.47263">
        <ele>810</ele>
        <time>2015-04-11T09:49:13.994Z</time>
      </trkpt>
      <trkpt lat="43.78963" lon="3.47273">
        <ele>809</ele>
        <time>2015-04-11T09:49:22.961Z</time>
      </trkpt>
      <trkpt lat="43.78976" lon="3.47291">
        <ele>812</ele>
        <time>2015-04-11T09:49:46.201Z</time>
      </trkpt>
      <trkpt lat="43.78984" lon="3.473">
        <ele>810</ele>
        <time>2015-04-11T09:49:58.831Z</time>
      </trkpt>
      <trkpt lat="43.78997" lon="3.47319">
        <ele>812</ele>
        <time>2015-04-11T09:50:19.212Z</time>
      </trkpt>
      <trkpt lat="43.79005" lon="3.47328">
        <ele>811</ele>
        <time>2015-04-11T09:50:28.868Z</time>
      </trkpt>
      <trkpt lat="43.7901" lon="3.47338">
        <ele>814</ele>
        <time>2015-04-11T09:50:40.826Z</time>
      </trkpt>
      <trkpt lat="43.79016" lon="3.47346">
        <ele>811</ele>
        <time>2015-04-11T09:50:49.862Z</time>
      </trkpt>
      <trkpt lat="43.79023" lon="3.47357">
        <ele>809</ele>
        <time>2015-04-11T09:51:02.860Z</time>
      </trkpt>
      <trkpt lat="43.79028" lon="3.47368">
        <ele>810</ele>
        <time>2015-04-11T09:51:13.913Z</time>
      </trkpt>
      <trkpt lat="43.79035" lon="3.47374">
        <ele>809</ele>
        <time>2015-04-11T09:51:22.805Z</time>
      </trkpt>
      <trkpt lat="43.79041" lon="3.47384">
        <ele>808</ele>
        <time>2015-04-11T09:51:33.742Z</time>
      </trkpt>
      <trkpt lat="43.79041" lon="3.47385">
        <ele>809</ele>
        <time>2015-04-11T09:51:34.803Z</time>
      </trkpt>
      <trkpt lat="43.79047" lon="3.47392">
        <ele>809</ele>
        <time>2015-04-11T09:51:43.808Z</time>
      </trkpt>
      <trkpt lat="43.79055" lon="3.474">
        <ele>806</ele>
        <time>2015-04-11T09:51:54.820Z</time>
      </trkpt>
      <trkpt lat="43.79061" lon="3.47411">
        <ele>806</ele>
        <time>2015-04-11T09:52:05.950Z</time>
      </trkpt>
      <trkpt lat="43.7907" lon="3.47418">
        <ele>803</ele>
        <time>2015-04-11T09:52:15.824Z</time>
      </trkpt>
      <trkpt lat="43.79072" lon="3.47429">
        <ele>803</ele>
        <time>2015-04-11T09:52:24.957Z</time>
      </trkpt>
      <trkpt lat="43.79077" lon="3.47441">
        <ele>802</ele>
        <time>2015-04-11T09:52:34.828Z</time>
      </trkpt>
      <trkpt lat="43.79078" lon="3.47442">
        <ele>801</ele>
        <time>2015-04-11T09:52:36.050Z</time>
      </trkpt>
      <trkpt lat="43.79087" lon="3.47448">
        <ele>803</ele>
        <time>2015-04-11T09:52:45.033Z</time>
      </trkpt>
      <trkpt lat="43.79093" lon="3.47458">
        <ele>801</ele>
        <time>2015-04-11T09:52:55.811Z</time>
      </trkpt>
      <trkpt lat="43.79102" lon="3.47463">
        <ele>800</ele>
        <time>2015-04-11T09:53:09.111Z</time>
      </trkpt>
      <trkpt lat="43.7911" lon="3.4747">
        <ele>798</ele>
        <time>2015-04-11T09:53:19.207Z</time>
      </trkpt>
      <trkpt lat="43.79114" lon="3.47481">
        <ele>796</ele>
        <time>2015-04-11T09:53:59.823Z</time>
      </trkpt>
      <trkpt lat="43.79115" lon="3.47481">
        <ele>794</ele>
        <time>2015-04-11T09:54:02.772Z</time>
      </trkpt>
      <trkpt lat="43.79116" lon="3.47485">
        <ele>798</ele>
        <time>2015-04-11T09:54:40.822Z</time>
      </trkpt>
      <trkpt lat="43.79121" lon="3.47494">
        <ele>798</ele>
        <time>2015-04-11T09:54:50.855Z</time>
      </trkpt>
      <trkpt lat="43.7913" lon="3.47503">
        <ele>792</ele>
        <time>2015-04-11T09:55:04.162Z</time>
      </trkpt>
      <trkpt lat="43.79146" lon="3.47515">
        <ele>788</ele>
        <time>2015-04-11T09:55:30.816Z</time>
      </trkpt>
      <trkpt lat="43.79147" lon="3.47519">
        <ele>791</ele>
        <time>2015-04-11T09:55:38.736Z</time>
      </trkpt>
      <trkpt lat="43.79147" lon="3.4752">
        <ele>790</ele>
        <time>2015-04-11T09:55:39.732Z</time>
      </trkpt>
      <trkpt lat="43.79156" lon="3.47525">
        <ele>787</ele>
        <time>2015-04-11T09:55:54.845Z</time>
      </trkpt>
      <trkpt lat="43.79165" lon="3.47528">
        <ele>788</ele>
        <time>2015-04-11T09:56:06.106Z</time>
      </trkpt>
      <trkpt lat="43.79166" lon="3.47529">
        <ele>787</ele>
        <time>2015-04-11T09:56:06.829Z</time>
      </trkpt>
      <trkpt lat="43.79174" lon="3.47529">
        <ele>784</ele>
        <time>2015-04-11T09:56:17.940Z</time>
      </trkpt>
      <trkpt lat="43.79183" lon="3.47534">
        <ele>784</ele>
        <time>2015-04-11T09:56:31.035Z</time>
      </trkpt>
      <trkpt lat="43.79184" lon="3.47534">
        <ele>783</ele>
        <time>2015-04-11T09:56:31.886Z</time>
      </trkpt>
      <trkpt lat="43.79187" lon="3.47537">
        <ele>784</ele>
        <time>2015-04-11T09:56:46.931Z</time>
      </trkpt>
      <trkpt lat="43.79188" lon="3.47538">
        <ele>784</ele>
        <time>2015-04-11T09:56:49.007Z</time>
      </trkpt>
      <trkpt lat="43.79196" lon="3.47545">
        <ele>781</ele>
        <time>2015-04-11T09:57:04.082Z</time>
      </trkpt>
      <trkpt lat="43.79205" lon="3.47546">
        <ele>783</ele>
        <time>2015-04-11T09:57:19.804Z</time>
      </trkpt>
      <trkpt lat="43.79213" lon="3.47552">
        <ele>778</ele>
        <time>2015-04-11T09:57:32.976Z</time>
      </trkpt>
      <trkpt lat="43.7922" lon="3.4756">
        <ele>779</ele>
        <time>2015-04-11T09:57:44.820Z</time>
      </trkpt>
      <trkpt lat="43.79225" lon="3.4757">
        <ele>776</ele>
        <time>2015-04-11T09:57:57.844Z</time>
      </trkpt>
      <trkpt lat="43.79226" lon="3.47571">
        <ele>776</ele>
        <time>2015-04-11T09:57:58.739Z</time>
      </trkpt>
      <trkpt lat="43.79232" lon="3.4758">
        <ele>777</ele>
        <time>2015-04-11T09:58:10.127Z</time>
      </trkpt>
      <trkpt lat="43.7924" lon="3.47586">
        <ele>772</ele>
        <time>2015-04-11T09:58:21.806Z</time>
      </trkpt>
      <trkpt lat="43.7924" lon="3.47587">
        <ele>771</ele>
        <time>2015-04-11T09:58:22.818Z</time>
      </trkpt>
      <trkpt lat="43.79243" lon="3.47598">
        <ele>771</ele>
        <time>2015-04-11T09:58:33.812Z</time>
      </trkpt>
      <trkpt lat="43.79243" lon="3.47599">
        <ele>771</ele>
        <time>2015-04-11T09:58:34.869Z</time>
      </trkpt>
      <trkpt lat="43.7925" lon="3.47608">
        <ele>774</ele>
        <time>2015-04-11T09:58:46.041Z</time>
      </trkpt>
      <trkpt lat="43.79256" lon="3.47619">
        <ele>768</ele>
        <time>2015-04-11T09:58:57.030Z</time>
      </trkpt>
      <trkpt lat="43.7926" lon="3.47631">
        <ele>765</ele>
        <time>2015-04-11T09:59:07.805Z</time>
      </trkpt>
      <trkpt lat="43.79265" lon="3.47641">
        <ele>763</ele>
        <time>2015-04-11T09:59:17.022Z</time>
      </trkpt>
      <trkpt lat="43.79272" lon="3.47651">
        <ele>762</ele>
        <time>2015-04-11T09:59:27.811Z</time>
      </trkpt>
      <trkpt lat="43.79276" lon="3.47661">
        <ele>763</ele>
        <time>2015-04-11T09:59:50.737Z</time>
      </trkpt>
      <trkpt lat="43.7928" lon="3.47668">
        <ele>758</ele>
        <time>2015-04-11T10:00:07.113Z</time>
      </trkpt>
      <trkpt lat="43.7928" lon="3.47668">
        <ele>756</ele>
        <time>2015-04-11T10:00:07.941Z</time>
      </trkpt>
      <trkpt lat="43.79283" lon="3.47671">
        <ele>759</ele>
        <time>2015-04-11T10:00:10.736Z</time>
      </trkpt>
      <trkpt lat="43.79288" lon="3.4768">
        <ele>757</ele>
        <time>2015-04-11T10:00:25.040Z</time>
      </trkpt>
      <trkpt lat="43.7929" lon="3.47689">
        <ele>753</ele>
        <time>2015-04-11T10:00:37.969Z</time>
      </trkpt>
      <trkpt lat="43.79298" lon="3.477">
        <ele>754</ele>
        <time>2015-04-11T10:00:51.822Z</time>
      </trkpt>
      <trkpt lat="43.79303" lon="3.4771">
        <ele>758</ele>
        <time>2015-04-11T10:01:05.866Z</time>
      </trkpt>
      <trkpt lat="43.79308" lon="3.47722">
        <ele>754</ele>
        <time>2015-04-11T10:01:18.827Z</time>
      </trkpt>
      <trkpt lat="43.79314" lon="3.4773">
        <ele>752</ele>
        <time>2015-04-11T10:01:31.145Z</time>
      </trkpt>
      <trkpt lat="43.79314" lon="3.47731">
        <ele>751</ele>
        <time>2015-04-11T10:01:31.939Z</time>
      </trkpt>
      <trkpt lat="43.79322" lon="3.47737">
        <ele>751</ele>
        <time>2015-04-11T10:01:42.722Z</time>
      </trkpt>
      <trkpt lat="43.79331" lon="3.4774">
        <ele>753</ele>
        <time>2015-04-11T10:02:01.827Z</time>
      </trkpt>
      <trkpt lat="43.79339" lon="3.47736">
        <ele>748</ele>
        <time>2015-04-11T10:02:18.684Z</time>
      </trkpt>
      <trkpt lat="43.79339" lon="3.47733">
        <ele>747</ele>
        <time>2015-04-11T10:02:23.107Z</time>
      </trkpt>
      <trkpt lat="43.79344" lon="3.47723">
        <ele>751</ele>
        <time>2015-04-11T10:02:37.819Z</time>
      </trkpt>
      <trkpt lat="43.79345" lon="3.47723">
        <ele>750</ele>
        <time>2015-04-11T10:02:38.852Z</time>
      </trkpt>
      <trkpt lat="43.79353" lon="3.47728">
        <ele>748</ele>
        <time>2015-04-11T10:02:53.807Z</time>
      </trkpt>
      <trkpt lat="43.79359" lon="3.47737">
        <ele>747</ele>
        <time>2015-04-11T10:03:07.816Z</time>
      </trkpt>
      <trkpt lat="43.79359" lon="3.47737">
        <ele>747</ele>
        <time>2015-04-11T10:03:08.806Z</time>
      </trkpt>
      <trkpt lat="43.79368" lon="3.47742">
        <ele>744</ele>
        <time>2015-04-11T10:03:26.248Z</time>
      </trkpt>
      <trkpt lat="43.79372" lon="3.47752">
        <ele>741</ele>
        <time>2015-04-11T10:03:49.721Z</time>
      </trkpt>
      <trkpt lat="43.79372" lon="3.47753">
        <ele>741</ele>
        <time>2015-04-11T10:03:50.729Z</time>
      </trkpt>
      <trkpt lat="43.79376" lon="3.47761">
        <ele>745</ele>
        <time>2015-04-11T10:04:12.720Z</time>
      </trkpt>
      <trkpt lat="43.79376" lon="3.4776">
        <ele>745</ele>
        <time>2015-04-11T10:04:13.721Z</time>
      </trkpt>
      <trkpt lat="43.79377" lon="3.47758">
        <ele>743</ele>
        <time>2015-04-11T10:04:19.183Z</time>
      </trkpt>
      <trkpt lat="43.7938" lon="3.47756">
        <ele>740</ele>
        <time>2015-04-11T10:04:31.723Z</time>
      </trkpt>
      <trkpt lat="43.7939" lon="3.47755">
        <ele>742</ele>
        <time>2015-04-11T10:04:48.812Z</time>
      </trkpt>
      <trkpt lat="43.79395" lon="3.47758">
        <ele>739</ele>
        <time>2015-04-11T10:05:06.851Z</time>
      </trkpt>
      <trkpt lat="43.79394" lon="3.47758">
        <ele>740</ele>
        <time>2015-04-11T10:05:07.720Z</time>
      </trkpt>
      <trkpt lat="43.79395" lon="3.47759">
        <ele>739</ele>
        <time>2015-04-11T10:05:09.720Z</time>
      </trkpt>
      <trkpt lat="43.794" lon="3.4777">
        <ele>737</ele>
        <time>2015-04-11T10:05:30.905Z</time>
      </trkpt>
      <trkpt lat="43.79403" lon="3.47782">
        <ele>736</ele>
        <time>2015-04-11T10:05:43.847Z</time>
      </trkpt>
      <trkpt lat="43.79405" lon="3.47783">
        <ele>737</ele>
        <time>2015-04-11T10:05:47.725Z</time>
      </trkpt>
      <trkpt lat="43.79405" lon="3.47785">
        <ele>738</ele>
        <time>2015-04-11T10:05:49.723Z</time>
      </trkpt>
      <trkpt lat="43.79411" lon="3.47794">
        <ele>733</ele>
        <time>2015-04-11T10:06:01.803Z</time>
      </trkpt>
      <trkpt lat="43.79418" lon="3.47803">
        <ele>733</ele>
        <time>2015-04-11T10:06:12.028Z</time>
      </trkpt>
      <trkpt lat="43.79424" lon="3.47813">
        <ele>734</ele>
        <time>2015-04-11T10:06:22.910Z</time>
      </trkpt>
      <trkpt lat="43.79429" lon="3.47824">
        <ele>735</ele>
        <time>2015-04-11T10:06:33.801Z</time>
      </trkpt>
      <trkpt lat="43.7943" lon="3.47825">
        <ele>734</ele>
        <time>2015-04-11T10:06:34.827Z</time>
      </trkpt>
      <trkpt lat="43.79434" lon="3.47837">
        <ele>732</ele>
        <time>2015-04-11T10:06:44.972Z</time>
      </trkpt>
      <trkpt lat="43.79436" lon="3.47848">
        <ele>731</ele>
        <time>2015-04-11T10:06:54.825Z</time>
      </trkpt>
      <trkpt lat="43.79436" lon="3.47853">
        <ele>727</ele>
        <time>2015-04-11T10:07:01Z</time>
      </trkpt>
      <trkpt lat="43.79437" lon="3.47855">
        <ele>728</ele>
        <time>2015-04-11T10:07:03.719Z</time>
      </trkpt>
      <trkpt lat="43.79438" lon="3.47881">
        <ele>731</ele>
        <time>2015-04-11T10:07:30.023Z</time>
      </trkpt>
      <trkpt lat="43.79439" lon="3.47888">
        <ele>720</ele>
        <time>2015-04-11T10:07:57.823Z</time>
      </trkpt>
      <trkpt lat="43.79442" lon="3.47896">
        <ele>722</ele>
        <time>2015-04-11T10:08:02.064Z</time>
      </trkpt>
      <trkpt lat="43.79445" lon="3.47908">
        <ele>732</ele>
        <time>2015-04-11T10:08:14.812Z</time>
      </trkpt>
      <trkpt lat="43.79446" lon="3.4792">
        <ele>735</ele>
        <time>2015-04-11T10:08:40.912Z</time>
      </trkpt>
      <trkpt lat="43.79447" lon="3.47935">
        <ele>736</ele>
        <time>2015-04-11T10:08:52.764Z</time>
      </trkpt>
      <trkpt lat="43.79448" lon="3.47948">
        <ele>735</ele>
        <time>2015-04-11T10:09:03.792Z</time>
      </trkpt>
      <trkpt lat="43.79448" lon="3.4796">
        <ele>735</ele>
        <time>2015-04-11T10:09:12.792Z</time>
      </trkpt>
      <trkpt lat="43.7945" lon="3.47987">
        <ele>741</ele>
        <time>2015-04-11T10:10:00.976Z</time>
      </trkpt>
      <trkpt lat="43.79448" lon="3.48002">
        <ele>734</ele>
        <time>2015-04-11T10:10:12.961Z</time>
      </trkpt>
      <trkpt lat="43.7945" lon="3.48013">
        <ele>739</ele>
        <time>2015-04-11T10:10:20.860Z</time>
      </trkpt>
      <trkpt lat="43.79452" lon="3.48025">
        <ele>736</ele>
        <time>2015-04-11T10:10:33.058Z</time>
      </trkpt>
      <trkpt lat="43.79451" lon="3.48033">
        <ele>740</ele>
        <time>2015-04-11T10:10:51.913Z</time>
      </trkpt>
      <trkpt lat="43.7945" lon="3.48036">
        <ele>742</ele>
        <time>2015-04-11T10:10:54.791Z</time>
      </trkpt>
      <trkpt lat="43.7945" lon="3.48049">
        <ele>741</ele>
        <time>2015-04-11T10:11:10.099Z</time>
      </trkpt>
      <trkpt lat="43.79453" lon="3.4807">
        <ele>740</ele>
        <time>2015-04-11T10:11:31.801Z</time>
      </trkpt>
      <trkpt lat="43.79453" lon="3.48074">
        <ele>740</ele>
        <time>2015-04-11T10:11:35.914Z</time>
      </trkpt>
      <trkpt lat="43.79455" lon="3.48085">
        <ele>741</ele>
        <time>2015-04-11T10:11:44.786Z</time>
      </trkpt>
      <trkpt lat="43.79456" lon="3.48087">
        <ele>741</ele>
        <time>2015-04-11T10:11:45.836Z</time>
      </trkpt>
      <trkpt lat="43.79459" lon="3.48097">
        <ele>740</ele>
        <time>2015-04-11T10:11:56.896Z</time>
      </trkpt>
      <trkpt lat="43.79462" lon="3.48111">
        <ele>739</ele>
        <time>2015-04-11T10:12:10.822Z</time>
      </trkpt>
      <trkpt lat="43.79466" lon="3.48122">
        <ele>741</ele>
        <time>2015-04-11T10:12:22.807Z</time>
      </trkpt>
      <trkpt lat="43.79465" lon="3.48135">
        <ele>744</ele>
        <time>2015-04-11T10:12:40.910Z</time>
      </trkpt>
      <trkpt lat="43.79465" lon="3.48136">
        <ele>744</ele>
        <time>2015-04-11T10:12:41.779Z</time>
      </trkpt>
      <trkpt lat="43.79468" lon="3.48174">
        <ele>742</ele>
        <time>2015-04-11T10:13:16Z</time>
      </trkpt>
      <trkpt lat="43.79475" lon="3.48201">
        <ele>742</ele>
        <time>2015-04-11T10:13:48.807Z</time>
      </trkpt>
      <trkpt lat="43.7948" lon="3.48216">
        <ele>742</ele>
        <time>2015-04-11T10:14:02.764Z</time>
      </trkpt>
      <trkpt lat="43.79485" lon="3.48227">
        <ele>742</ele>
        <time>2015-04-11T10:14:12.920Z</time>
      </trkpt>
      <trkpt lat="43.79489" lon="3.48239">
        <ele>743</ele>
        <time>2015-04-11T10:14:24.768Z</time>
      </trkpt>
      <trkpt lat="43.79494" lon="3.48248">
        <ele>743</ele>
        <time>2015-04-11T10:14:36.978Z</time>
      </trkpt>
      <trkpt lat="43.795" lon="3.48259">
        <ele>741</ele>
        <time>2015-04-11T10:14:49.857Z</time>
      </trkpt>
      <trkpt lat="43.79503" lon="3.48271">
        <ele>741</ele>
        <time>2015-04-11T10:15:02.780Z</time>
      </trkpt>
      <trkpt lat="43.79515" lon="3.48294">
        <ele>733</ele>
        <time>2015-04-11T10:16:36.966Z</time>
      </trkpt>
      <trkpt lat="43.79521" lon="3.48309">
        <ele>736</ele>
        <time>2015-04-11T10:16:50.778Z</time>
      </trkpt>
      <trkpt lat="43.79525" lon="3.4832">
        <ele>736</ele>
        <time>2015-04-11T10:16:59.763Z</time>
      </trkpt>
      <trkpt lat="43.79525" lon="3.48321">
        <ele>736</ele>
        <time>2015-04-11T10:17:00.747Z</time>
      </trkpt>
      <trkpt lat="43.7953" lon="3.48333">
        <ele>739</ele>
        <time>2015-04-11T10:17:13.749Z</time>
      </trkpt>
      <trkpt lat="43.79537" lon="3.48346">
        <ele>740</ele>
        <time>2015-04-11T10:17:29.794Z</time>
      </trkpt>
      <trkpt lat="43.79537" lon="3.48351">
        <ele>739</ele>
        <time>2015-04-11T10:17:33.873Z</time>
      </trkpt>
      <trkpt lat="43.79542" lon="3.48361">
        <ele>740</ele>
        <time>2015-04-11T10:17:46.749Z</time>
      </trkpt>
      <trkpt lat="43.79544" lon="3.48373">
        <ele>740</ele>
        <time>2015-04-11T10:17:56.774Z</time>
      </trkpt>
      <trkpt lat="43.79544" lon="3.48374">
        <ele>740</ele>
        <time>2015-04-11T10:17:57.791Z</time>
      </trkpt>
      <trkpt lat="43.79549" lon="3.48381">
        <ele>735</ele>
        <time>2015-04-11T10:18:19.698Z</time>
      </trkpt>
      <trkpt lat="43.79549" lon="3.48381">
        <ele>735</ele>
        <time>2015-04-11T10:18:20.697Z</time>
      </trkpt>
      <trkpt lat="43.79555" lon="3.48391">
        <ele>737</ele>
        <time>2015-04-11T10:18:34.081Z</time>
      </trkpt>
      <trkpt lat="43.79562" lon="3.48401">
        <ele>742</ele>
        <time>2015-04-11T10:18:43.771Z</time>
      </trkpt>
      <trkpt lat="43.79568" lon="3.48412">
        <ele>741</ele>
        <time>2015-04-11T10:18:54.764Z</time>
      </trkpt>
      <trkpt lat="43.79572" lon="3.48423">
        <ele>738</ele>
        <time>2015-04-11T10:19:11.934Z</time>
      </trkpt>
      <trkpt lat="43.79579" lon="3.48433">
        <ele>736</ele>
        <time>2015-04-11T10:19:26.005Z</time>
      </trkpt>
      <trkpt lat="43.79581" lon="3.48444">
        <ele>738</ele>
        <time>2015-04-11T10:19:39.767Z</time>
      </trkpt>
      <trkpt lat="43.79587" lon="3.48455">
        <ele>734</ele>
        <time>2015-04-11T10:19:50.775Z</time>
      </trkpt>
      <trkpt lat="43.79604" lon="3.48467">
        <ele>730</ele>
        <time>2015-04-11T10:20:14.907Z</time>
      </trkpt>
      <trkpt lat="43.7961" lon="3.48474">
        <ele>734</ele>
        <time>2015-04-11T10:20:29.835Z</time>
      </trkpt>
      <trkpt lat="43.79616" lon="3.48486">
        <ele>736</ele>
        <time>2015-04-11T10:20:43.014Z</time>
      </trkpt>
      <trkpt lat="43.79619" lon="3.48498">
        <ele>735</ele>
        <time>2015-04-11T10:20:53.776Z</time>
      </trkpt>
      <trkpt lat="43.79621" lon="3.48501">
        <ele>732</ele>
        <time>2015-04-11T10:20:58.784Z</time>
      </trkpt>
      <trkpt lat="43.79623" lon="3.48514">
        <ele>730</ele>
        <time>2015-04-11T10:21:18.799Z</time>
      </trkpt>
      <trkpt lat="43.79625" lon="3.48526">
        <ele>726</ele>
        <time>2015-04-11T10:21:34.753Z</time>
      </trkpt>
      <trkpt lat="43.79626" lon="3.48539">
        <ele>726</ele>
        <time>2015-04-11T10:21:49.759Z</time>
      </trkpt>
      <trkpt lat="43.7963" lon="3.4855">
        <ele>731</ele>
        <time>2015-04-11T10:22:02.750Z</time>
      </trkpt>
      <trkpt lat="43.79631" lon="3.48563">
        <ele>727</ele>
        <time>2015-04-11T10:22:14.894Z</time>
      </trkpt>
      <trkpt lat="43.79638" lon="3.48588">
        <ele>723</ele>
        <time>2015-04-11T10:22:46.770Z</time>
      </trkpt>
      <trkpt lat="43.79643" lon="3.48599">
        <ele>718</ele>
        <time>2015-04-11T10:22:59.868Z</time>
      </trkpt>
      <trkpt lat="43.79645" lon="3.48611">
        <ele>716</ele>
        <time>2015-04-11T10:23:18.852Z</time>
      </trkpt>
      <trkpt lat="43.79648" lon="3.48622">
        <ele>709</ele>
        <time>2015-04-11T10:23:30.083Z</time>
      </trkpt>
      <trkpt lat="43.79663" lon="3.48656">
        <ele>705</ele>
        <time>2015-04-11T10:24:15.783Z</time>
      </trkpt>
      <trkpt lat="43.7967" lon="3.4868">
        <ele>704</ele>
        <time>2015-04-11T10:24:35.776Z</time>
      </trkpt>
      <trkpt lat="43.79675" lon="3.48688">
        <ele>700</ele>
        <time>2015-04-11T10:24:44.688Z</time>
      </trkpt>
      <trkpt lat="43.79683" lon="3.48697">
        <ele>697</ele>
        <time>2015-04-11T10:25:21.768Z</time>
      </trkpt>
      <trkpt lat="43.79687" lon="3.4871">
        <ele>706</ele>
        <time>2015-04-11T10:25:36.897Z</time>
      </trkpt>
      <trkpt lat="43.79689" lon="3.48722">
        <ele>702</ele>
        <time>2015-04-11T10:25:49.757Z</time>
      </trkpt>
      <trkpt lat="43.79692" lon="3.48734">
        <ele>702</ele>
        <time>2015-04-11T10:26:03.447Z</time>
      </trkpt>
      <trkpt lat="43.79692" lon="3.48735">
        <ele>705</ele>
        <time>2015-04-11T10:26:04.069Z</time>
      </trkpt>
      <trkpt lat="43.79702" lon="3.48756">
        <ele>694</ele>
        <time>2015-04-11T10:26:24.467Z</time>
      </trkpt>
      <trkpt lat="43.79704" lon="3.48769">
        <ele>700</ele>
        <time>2015-04-11T10:26:34.770Z</time>
      </trkpt>
      <trkpt lat="43.79704" lon="3.48783">
        <ele>697</ele>
        <time>2015-04-11T10:26:49.212Z</time>
      </trkpt>
      <trkpt lat="43.79703" lon="3.48795">
        <ele>691</ele>
        <time>2015-04-11T10:27:02.688Z</time>
      </trkpt>
      <trkpt lat="43.79702" lon="3.48796">
        <ele>691</ele>
        <time>2015-04-11T10:27:03.690Z</time>
      </trkpt>
      <trkpt lat="43.79703" lon="3.48808">
        <ele>696</ele>
        <time>2015-04-11T10:27:17.946Z</time>
      </trkpt>
      <trkpt lat="43.79705" lon="3.48821">
        <ele>689</ele>
        <time>2015-04-11T10:27:33.690Z</time>
      </trkpt>
      <trkpt lat="43.79705" lon="3.48822">
        <ele>689</ele>
        <time>2015-04-11T10:27:34.691Z</time>
      </trkpt>
      <trkpt lat="43.79704" lon="3.48834">
        <ele>690</ele>
        <time>2015-04-11T10:27:50.793Z</time>
      </trkpt>
      <trkpt lat="43.79707" lon="3.48846">
        <ele>693</ele>
        <time>2015-04-11T10:28:06.928Z</time>
      </trkpt>
      <trkpt lat="43.79709" lon="3.48873">
        <ele>695</ele>
        <time>2015-04-11T10:28:29.779Z</time>
      </trkpt>
      <trkpt lat="43.79711" lon="3.48885">
        <ele>688</ele>
        <time>2015-04-11T10:28:40.947Z</time>
      </trkpt>
      <trkpt lat="43.79712" lon="3.48897">
        <ele>690</ele>
        <time>2015-04-11T10:28:51.806Z</time>
      </trkpt>
      <trkpt lat="43.79712" lon="3.48911">
        <ele>688</ele>
        <time>2015-04-11T10:29:02.908Z</time>
      </trkpt>
      <trkpt lat="43.79706" lon="3.48932">
        <ele>692</ele>
        <time>2015-04-11T10:29:32.849Z</time>
      </trkpt>
      <trkpt lat="43.79706" lon="3.48934">
        <ele>688</ele>
        <time>2015-04-11T10:29:37.093Z</time>
      </trkpt>
      <trkpt lat="43.79703" lon="3.48946">
        <ele>684</ele>
        <time>2015-04-11T10:29:55.138Z</time>
      </trkpt>
      <trkpt lat="43.79699" lon="3.48957">
        <ele>685</ele>
        <time>2015-04-11T10:30:04.740Z</time>
      </trkpt>
      <trkpt lat="43.79691" lon="3.48967">
        <ele>683</ele>
        <time>2015-04-11T10:30:16.834Z</time>
      </trkpt>
      <trkpt lat="43.79687" lon="3.48976">
        <ele>687</ele>
        <time>2015-04-11T10:30:25.763Z</time>
      </trkpt>
      <trkpt lat="43.7968" lon="3.48984">
        <ele>684</ele>
        <time>2015-04-11T10:30:36.782Z</time>
      </trkpt>
      <trkpt lat="43.79674" lon="3.48995">
        <ele>680</ele>
        <time>2015-04-11T10:30:48.810Z</time>
      </trkpt>
      <trkpt lat="43.79672" lon="3.49008">
        <ele>676</ele>
        <time>2015-04-11T10:30:59.854Z</time>
      </trkpt>
      <trkpt lat="43.7967" lon="3.49022">
        <ele>677</ele>
        <time>2015-04-11T10:31:10.784Z</time>
      </trkpt>
      <trkpt lat="43.79668" lon="3.49034">
        <ele>677</ele>
        <time>2015-04-11T10:31:22.758Z</time>
      </trkpt>
      <trkpt lat="43.79664" lon="3.49045">
        <ele>679</ele>
        <time>2015-04-11T10:31:36.771Z</time>
      </trkpt>
      <trkpt lat="43.79656" lon="3.49054">
        <ele>681</ele>
        <time>2015-04-11T10:31:47.751Z</time>
      </trkpt>
      <trkpt lat="43.79651" lon="3.49065">
        <ele>677</ele>
        <time>2015-04-11T10:31:57.031Z</time>
      </trkpt>
      <trkpt lat="43.79649" lon="3.49076">
        <ele>676</ele>
        <time>2015-04-11T10:32:05.784Z</time>
      </trkpt>
      <trkpt lat="43.79639" lon="3.491">
        <ele>677</ele>
        <time>2015-04-11T10:32:25.805Z</time>
      </trkpt>
      <trkpt lat="43.79635" lon="3.4911">
        <ele>673</ele>
        <time>2015-04-11T10:32:33.882Z</time>
      </trkpt>
      <trkpt lat="43.79636" lon="3.49122">
        <ele>679</ele>
        <time>2015-04-11T10:32:43.781Z</time>
      </trkpt>
      <trkpt lat="43.79636" lon="3.49124">
        <ele>678</ele>
        <time>2015-04-11T10:32:45.150Z</time>
      </trkpt>
      <trkpt lat="43.79636" lon="3.49137">
        <ele>675</ele>
        <time>2015-04-11T10:32:55.768Z</time>
      </trkpt>
      <trkpt lat="43.79632" lon="3.49147">
        <ele>676</ele>
        <time>2015-04-11T10:33:01.862Z</time>
      </trkpt>
      <trkpt lat="43.79629" lon="3.49159">
        <ele>672</ele>
        <time>2015-04-11T10:33:10.232Z</time>
      </trkpt>
      <trkpt lat="43.79625" lon="3.49172">
        <ele>677</ele>
        <time>2015-04-11T10:33:19.027Z</time>
      </trkpt>
      <trkpt lat="43.79623" lon="3.49186">
        <ele>674</ele>
        <time>2015-04-11T10:33:27.760Z</time>
      </trkpt>
      <trkpt lat="43.79621" lon="3.49199">
        <ele>673</ele>
        <time>2015-04-11T10:33:35.754Z</time>
      </trkpt>
      <trkpt lat="43.79615" lon="3.49209">
        <ele>679</ele>
        <time>2015-04-11T10:33:45.871Z</time>
      </trkpt>
      <trkpt lat="43.79612" lon="3.49219">
        <ele>673</ele>
        <time>2015-04-11T10:33:52.805Z</time>
      </trkpt>
      <trkpt lat="43.79607" lon="3.49232">
        <ele>674</ele>
        <time>2015-04-11T10:34:03.048Z</time>
      </trkpt>
      <trkpt lat="43.796" lon="3.49242">
        <ele>672</ele>
        <time>2015-04-11T10:34:13.926Z</time>
      </trkpt>
      <trkpt lat="43.79597" lon="3.49254">
        <ele>671</ele>
        <time>2015-04-11T10:34:23.775Z</time>
      </trkpt>
      <trkpt lat="43.79596" lon="3.49266">
        <ele>673</ele>
        <time>2015-04-11T10:34:38.822Z</time>
      </trkpt>
      <trkpt lat="43.79596" lon="3.49279">
        <ele>675</ele>
        <time>2015-04-11T10:34:50.772Z</time>
      </trkpt>
      <trkpt lat="43.79594" lon="3.49289">
        <ele>671</ele>
        <time>2015-04-11T10:35:01.969Z</time>
      </trkpt>
      <trkpt lat="43.79593" lon="3.4929">
        <ele>673</ele>
        <time>2015-04-11T10:35:05.766Z</time>
      </trkpt>
      <trkpt lat="43.79587" lon="3.49299">
        <ele>673</ele>
        <time>2015-04-11T10:35:18.768Z</time>
      </trkpt>
      <trkpt lat="43.79578" lon="3.49307">
        <ele>675</ele>
        <time>2015-04-11T10:35:28.869Z</time>
      </trkpt>
      <trkpt lat="43.79571" lon="3.49315">
        <ele>672</ele>
        <time>2015-04-11T10:35:38.735Z</time>
      </trkpt>
      <trkpt lat="43.79564" lon="3.49323">
        <ele>679</ele>
        <time>2015-04-11T10:35:52.692Z</time>
      </trkpt>
      <trkpt lat="43.79563" lon="3.49322">
        <ele>678</ele>
        <time>2015-04-11T10:35:54.842Z</time>
      </trkpt>
      <trkpt lat="43.79556" lon="3.49321">
        <ele>671</ele>
        <time>2015-04-11T10:36:03.751Z</time>
      </trkpt>
      <trkpt lat="43.79553" lon="3.49321">
        <ele>672</ele>
        <time>2015-04-11T10:36:04.737Z</time>
      </trkpt>
      <trkpt lat="43.79548" lon="3.49324">
        <ele>667</ele>
        <time>2015-04-11T10:37:11.864Z</time>
      </trkpt>
      <trkpt lat="43.7954" lon="3.4931">
        <ele>650</ele>
        <time>2015-04-11T10:37:41.902Z</time>
      </trkpt>
      <trkpt lat="43.7954" lon="3.49311">
        <ele>648</ele>
        <time>2015-04-11T10:37:42.799Z</time>
      </trkpt>
      <trkpt lat="43.79539" lon="3.4931">
        <ele>638</ele>
        <time>2015-04-11T10:37:57.780Z</time>
      </trkpt>
      <trkpt lat="43.79536" lon="3.49298">
        <ele>674</ele>
        <time>2015-04-11T10:38:08.925Z</time>
      </trkpt>
      <trkpt lat="43.79529" lon="3.49286">
        <ele>672</ele>
        <time>2015-04-11T10:38:17.694Z</time>
      </trkpt>
      <trkpt lat="43.79522" lon="3.49277">
        <ele>674</ele>
        <time>2015-04-11T10:38:28.027Z</time>
      </trkpt>
      <trkpt lat="43.79511" lon="3.49256">
        <ele>676</ele>
        <time>2015-04-11T10:38:44.829Z</time>
      </trkpt>
      <trkpt lat="43.79504" lon="3.49247">
        <ele>673</ele>
        <time>2015-04-11T10:38:53.010Z</time>
      </trkpt>
      <trkpt lat="43.79499" lon="3.49236">
        <ele>674</ele>
        <time>2015-04-11T10:39:01.964Z</time>
      </trkpt>
      <trkpt lat="43.79493" lon="3.49226">
        <ele>671</ele>
        <time>2015-04-11T10:39:11.045Z</time>
      </trkpt>
      <trkpt lat="43.79487" lon="3.49218">
        <ele>669</ele>
        <time>2015-04-11T10:39:18.863Z</time>
      </trkpt>
      <trkpt lat="43.79475" lon="3.49198">
        <ele>671</ele>
        <time>2015-04-11T10:39:36.747Z</time>
      </trkpt>
      <trkpt lat="43.79469" lon="3.49186">
        <ele>667</ele>
        <time>2015-04-11T10:40:02.150Z</time>
      </trkpt>
      <trkpt lat="43.79469" lon="3.49182">
        <ele>673</ele>
        <time>2015-04-11T10:40:15.800Z</time>
      </trkpt>
      <trkpt lat="43.7947" lon="3.49169">
        <ele>672</ele>
        <time>2015-04-11T10:40:41.798Z</time>
      </trkpt>
      <trkpt lat="43.7947" lon="3.49165">
        <ele>666</ele>
        <time>2015-04-11T10:41:09.779Z</time>
      </trkpt>
      <trkpt lat="43.79473" lon="3.49162">
        <ele>663</ele>
        <time>2015-04-11T11:00:28.351Z</time>
      </trkpt>
      <trkpt lat="43.79472" lon="3.49163">
        <ele>664</ele>
        <time>2015-04-11T11:00:31.283Z</time>
      </trkpt>
      <trkpt lat="43.79474" lon="3.49162">
        <ele>667</ele>
        <time>2015-04-11T11:01:43.284Z</time>
      </trkpt>
      <trkpt lat="43.79472" lon="3.49165">
        <ele>662</ele>
        <time>2015-04-11T11:02:46.375Z</time>
      </trkpt>
      <trkpt lat="43.79471" lon="3.49164">
        <ele>681</ele>
        <time>2015-04-11T11:03:22.683Z</time>
      </trkpt>
      <trkpt lat="43.79471" lon="3.49164">
        <ele>682</ele>
        <time>2015-04-11T11:03:23.522Z</time>
      </trkpt>
      <trkpt lat="43.79472" lon="3.49163">
        <ele>674</ele>
        <time>2015-04-11T11:05:36.526Z</time>
      </trkpt>
      <trkpt lat="43.79472" lon="3.49164">
        <ele>671</ele>
        <time>2015-04-11T11:05:39.355Z</time>
      </trkpt>
      <trkpt lat="43.79473" lon="3.49163">
        <ele>668</ele>
        <time>2015-04-11T11:06:19.323Z</time>
      </trkpt>
      <trkpt lat="43.7947" lon="3.49162">
        <ele>668</ele>
        <time>2015-04-11T11:07:00.491Z</time>
      </trkpt>
      <trkpt lat="43.79475" lon="3.4916">
        <ele>653</ele>
        <time>2015-04-11T11:12:42.370Z</time>
      </trkpt>
      <trkpt lat="43.79475" lon="3.49162">
        <ele>664</ele>
        <time>2015-04-11T11:13:38.290Z</time>
      </trkpt>
      <trkpt lat="43.79475" lon="3.49161">
        <ele>663</ele>
        <time>2015-04-11T11:13:39.289Z</time>
      </trkpt>
      <trkpt lat="43.79475" lon="3.49161">
        <ele>661</ele>
        <time>2015-04-11T11:13:45.296Z</time>
      </trkpt>
      <trkpt lat="43.79475" lon="3.4916">
        <ele>667</ele>
        <time>2015-04-11T11:14:12.466Z</time>
      </trkpt>
      <trkpt lat="43.79469" lon="3.4916">
        <ele>665</ele>
        <time>2015-04-11T11:19:04.304Z</time>
      </trkpt>
      <trkpt lat="43.79468" lon="3.4916">
        <ele>666</ele>
        <time>2015-04-11T11:19:17.326Z</time>
      </trkpt>
      <trkpt lat="43.79468" lon="3.49159">
        <ele>666</ele>
        <time>2015-04-11T11:19:18.304Z</time>
      </trkpt>
      <trkpt lat="43.79467" lon="3.49165">
        <ele>664</ele>
        <time>2015-04-11T11:21:49.327Z</time>
      </trkpt>
      <trkpt lat="43.79467" lon="3.49164">
        <ele>664</ele>
        <time>2015-04-11T11:21:50.368Z</time>
      </trkpt>
      <trkpt lat="43.79467" lon="3.49163">
        <ele>660</ele>
        <time>2015-04-11T11:22:03.444Z</time>
      </trkpt>
      <trkpt lat="43.79468" lon="3.49163">
        <ele>658</ele>
        <time>2015-04-11T11:22:07.454Z</time>
      </trkpt>
      <trkpt lat="43.79469" lon="3.49167">
        <ele>663</ele>
        <time>2015-04-11T11:22:28.283Z</time>
      </trkpt>
      <trkpt lat="43.79469" lon="3.49167">
        <ele>663</ele>
        <time>2015-04-11T11:22:29.285Z</time>
      </trkpt>
      <trkpt lat="43.79469" lon="3.49166">
        <ele>658</ele>
        <time>2015-04-11T11:22:59.283Z</time>
      </trkpt>
      <trkpt lat="43.79468" lon="3.49164">
        <ele>664</ele>
        <time>2015-04-11T11:23:19.447Z</time>
      </trkpt>
      <trkpt lat="43.79467" lon="3.49165">
        <ele>670</ele>
        <time>2015-04-11T11:23:26.332Z</time>
      </trkpt>
      <trkpt lat="43.79467" lon="3.49166">
        <ele>672</ele>
        <time>2015-04-11T11:24:18.745Z</time>
      </trkpt>
      <trkpt lat="43.79467" lon="3.49168">
        <ele>670</ele>
        <time>2015-04-11T11:24:47.056Z</time>
      </trkpt>
      <trkpt lat="43.79469" lon="3.49167">
        <ele>663</ele>
        <time>2015-04-11T11:25:39.271Z</time>
      </trkpt>
      <trkpt lat="43.79468" lon="3.49168">
        <ele>669</ele>
        <time>2015-04-11T11:27:32.281Z</time>
      </trkpt>
      <trkpt lat="43.79466" lon="3.49167">
        <ele>668</ele>
        <time>2015-04-11T11:27:52.275Z</time>
      </trkpt>
      <trkpt lat="43.79473" lon="3.49164">
        <ele>666</ele>
        <time>2015-04-11T11:33:00.452Z</time>
      </trkpt>
      <trkpt lat="43.79473" lon="3.49165">
        <ele>664</ele>
        <time>2015-04-11T11:33:05.270Z</time>
      </trkpt>
      <trkpt lat="43.79473" lon="3.49165">
        <ele>668</ele>
        <time>2015-04-11T11:33:08.257Z</time>
      </trkpt>
      <trkpt lat="43.79473" lon="3.49166">
        <ele>667</ele>
        <time>2015-04-11T11:33:09.269Z</time>
      </trkpt>
      <trkpt lat="43.79472" lon="3.49169">
        <ele>665</ele>
        <time>2015-04-11T11:33:14.173Z</time>
      </trkpt>
      <trkpt lat="43.7947" lon="3.49171">
        <ele>667</ele>
        <time>2015-04-11T11:33:18.245Z</time>
      </trkpt>
      <trkpt lat="43.7947" lon="3.49172">
        <ele>667</ele>
        <time>2015-04-11T11:33:19.276Z</time>
      </trkpt>
      <trkpt lat="43.79461" lon="3.49171">
        <ele>668</ele>
        <time>2015-04-11T11:33:37.275Z</time>
      </trkpt>
      <trkpt lat="43.7946" lon="3.4917">
        <ele>668</ele>
        <time>2015-04-11T11:33:38.590Z</time>
      </trkpt>
      <trkpt lat="43.79454" lon="3.4916">
        <ele>671</ele>
        <time>2015-04-11T11:33:47.306Z</time>
      </trkpt>
      <trkpt lat="43.7945" lon="3.49149">
        <ele>670</ele>
        <time>2015-04-11T11:33:55.289Z</time>
      </trkpt>
      <trkpt lat="43.79447" lon="3.49137">
        <ele>668</ele>
        <time>2015-04-11T11:34:03.245Z</time>
      </trkpt>
      <trkpt lat="43.79442" lon="3.49125">
        <ele>669</ele>
        <time>2015-04-11T11:34:13.210Z</time>
      </trkpt>
      <trkpt lat="43.79437" lon="3.49114">
        <ele>670</ele>
        <time>2015-04-11T11:34:23.268Z</time>
      </trkpt>
      <trkpt lat="43.79434" lon="3.49101">
        <ele>669</ele>
        <time>2015-04-11T11:34:31.218Z</time>
      </trkpt>
      <trkpt lat="43.79427" lon="3.49077">
        <ele>666</ele>
        <time>2015-04-11T11:34:48.395Z</time>
      </trkpt>
      <trkpt lat="43.79422" lon="3.49067">
        <ele>669</ele>
        <time>2015-04-11T11:34:58.534Z</time>
      </trkpt>
      <trkpt lat="43.79417" lon="3.49053">
        <ele>669</ele>
        <time>2015-04-11T11:35:09.266Z</time>
      </trkpt>
      <trkpt lat="43.79414" lon="3.49042">
        <ele>669</ele>
        <time>2015-04-11T11:35:15.262Z</time>
      </trkpt>
      <trkpt lat="43.79412" lon="3.49027">
        <ele>669</ele>
        <time>2015-04-11T11:35:26.426Z</time>
      </trkpt>
      <trkpt lat="43.79408" lon="3.49016">
        <ele>666</ele>
        <time>2015-04-11T11:35:34.359Z</time>
      </trkpt>
      <trkpt lat="43.79404" lon="3.49002">
        <ele>666</ele>
        <time>2015-04-11T11:35:43.230Z</time>
      </trkpt>
      <trkpt lat="43.79398" lon="3.48993">
        <ele>665</ele>
        <time>2015-04-11T11:35:53.205Z</time>
      </trkpt>
      <trkpt lat="43.79394" lon="3.48981">
        <ele>667</ele>
        <time>2015-04-11T11:36:01.629Z</time>
      </trkpt>
      <trkpt lat="43.7939" lon="3.48969">
        <ele>666</ele>
        <time>2015-04-11T11:36:11.223Z</time>
      </trkpt>
      <trkpt lat="43.79379" lon="3.48947">
        <ele>666</ele>
        <time>2015-04-11T11:36:30.228Z</time>
      </trkpt>
      <trkpt lat="43.79373" lon="3.48934">
        <ele>665</ele>
        <time>2015-04-11T11:36:42.213Z</time>
      </trkpt>
      <trkpt lat="43.79362" lon="3.48912">
        <ele>668</ele>
        <time>2015-04-11T11:37:01.225Z</time>
      </trkpt>
      <trkpt lat="43.79357" lon="3.48899">
        <ele>667</ele>
        <time>2015-04-11T11:37:10.439Z</time>
      </trkpt>
      <trkpt lat="43.79347" lon="3.4888">
        <ele>664</ele>
        <time>2015-04-11T11:37:25.216Z</time>
      </trkpt>
      <trkpt lat="43.79342" lon="3.48868">
        <ele>664</ele>
        <time>2015-04-11T11:37:33.259Z</time>
      </trkpt>
      <trkpt lat="43.79337" lon="3.48858">
        <ele>663</ele>
        <time>2015-04-11T11:37:45.390Z</time>
      </trkpt>
      <trkpt lat="43.7933" lon="3.48847">
        <ele>670</ele>
        <time>2015-04-11T11:37:56.419Z</time>
      </trkpt>
      <trkpt lat="43.79325" lon="3.48834">
        <ele>666</ele>
        <time>2015-04-11T11:38:05.236Z</time>
      </trkpt>
      <trkpt lat="43.79319" lon="3.48826">
        <ele>669</ele>
        <time>2015-04-11T11:38:14.203Z</time>
      </trkpt>
      <trkpt lat="43.79306" lon="3.48806">
        <ele>667</ele>
        <time>2015-04-11T11:38:30.219Z</time>
      </trkpt>
      <trkpt lat="43.79288" lon="3.48772">
        <ele>666</ele>
        <time>2015-04-11T11:38:58.198Z</time>
      </trkpt>
      <trkpt lat="43.79281" lon="3.48764">
        <ele>664</ele>
        <time>2015-04-11T11:39:06.493Z</time>
      </trkpt>
      <trkpt lat="43.79273" lon="3.48756">
        <ele>664</ele>
        <time>2015-04-11T11:39:14.187Z</time>
      </trkpt>
      <trkpt lat="43.79265" lon="3.48748">
        <ele>666</ele>
        <time>2015-04-11T11:39:22.240Z</time>
      </trkpt>
      <trkpt lat="43.79259" lon="3.48739">
        <ele>666</ele>
        <time>2015-04-11T11:39:31.392Z</time>
      </trkpt>
      <trkpt lat="43.79255" lon="3.48727">
        <ele>666</ele>
        <time>2015-04-11T11:39:38.370Z</time>
      </trkpt>
      <trkpt lat="43.79242" lon="3.48705">
        <ele>662</ele>
        <time>2015-04-11T11:39:58.426Z</time>
      </trkpt>
      <trkpt lat="43.79228" lon="3.48687">
        <ele>668</ele>
        <time>2015-04-11T11:40:16.228Z</time>
      </trkpt>
      <trkpt lat="43.79223" lon="3.48675">
        <ele>668</ele>
        <time>2015-04-11T11:40:25.215Z</time>
      </trkpt>
      <trkpt lat="43.79216" lon="3.48666">
        <ele>669</ele>
        <time>2015-04-11T11:40:34.427Z</time>
      </trkpt>
      <trkpt lat="43.7921" lon="3.48657">
        <ele>667</ele>
        <time>2015-04-11T11:40:42.232Z</time>
      </trkpt>
      <trkpt lat="43.79201" lon="3.48648">
        <ele>667</ele>
        <time>2015-04-11T11:40:50.210Z</time>
      </trkpt>
      <trkpt lat="43.79194" lon="3.48643">
        <ele>667</ele>
        <time>2015-04-11T11:40:58.399Z</time>
      </trkpt>
      <trkpt lat="43.79188" lon="3.48631">
        <ele>669</ele>
        <time>2015-04-11T11:41:10.303Z</time>
      </trkpt>
      <trkpt lat="43.79181" lon="3.48625">
        <ele>665</ele>
        <time>2015-04-11T11:41:18.539Z</time>
      </trkpt>
      <trkpt lat="43.79175" lon="3.48616">
        <ele>667</ele>
        <time>2015-04-11T11:41:27.267Z</time>
      </trkpt>
      <trkpt lat="43.79165" lon="3.48606">
        <ele>667</ele>
        <time>2015-04-11T11:41:36.244Z</time>
      </trkpt>
      <trkpt lat="43.79149" lon="3.48589">
        <ele>667</ele>
        <time>2015-04-11T11:41:51.241Z</time>
      </trkpt>
      <trkpt lat="43.79135" lon="3.48572">
        <ele>667</ele>
        <time>2015-04-11T11:42:07.235Z</time>
      </trkpt>
      <trkpt lat="43.79128" lon="3.48561">
        <ele>669</ele>
        <time>2015-04-11T11:42:16.581Z</time>
      </trkpt>
      <trkpt lat="43.79114" lon="3.48548">
        <ele>670</ele>
        <time>2015-04-11T11:42:30.221Z</time>
      </trkpt>
      <trkpt lat="43.79098" lon="3.48533">
        <ele>667</ele>
        <time>2015-04-11T11:42:48.222Z</time>
      </trkpt>
      <trkpt lat="43.79083" lon="3.48513">
        <ele>668</ele>
        <time>2015-04-11T11:43:08.208Z</time>
      </trkpt>
      <trkpt lat="43.79076" lon="3.48507">
        <ele>665</ele>
        <time>2015-04-11T11:43:16.223Z</time>
      </trkpt>
      <trkpt lat="43.79069" lon="3.48498">
        <ele>671</ele>
        <time>2015-04-11T11:43:25.313Z</time>
      </trkpt>
      <trkpt lat="43.79062" lon="3.48491">
        <ele>667</ele>
        <time>2015-04-11T11:43:34.395Z</time>
      </trkpt>
      <trkpt lat="43.79061" lon="3.48491">
        <ele>666</ele>
        <time>2015-04-11T11:43:35.258Z</time>
      </trkpt>
      <trkpt lat="43.79054" lon="3.48483">
        <ele>667</ele>
        <time>2015-04-11T11:43:46.296Z</time>
      </trkpt>
      <trkpt lat="43.79049" lon="3.48472">
        <ele>667</ele>
        <time>2015-04-11T11:43:56.546Z</time>
      </trkpt>
      <trkpt lat="43.79043" lon="3.48461">
        <ele>668</ele>
        <time>2015-04-11T11:44:06.203Z</time>
      </trkpt>
      <trkpt lat="43.79035" lon="3.48453">
        <ele>668</ele>
        <time>2015-04-11T11:44:18.510Z</time>
      </trkpt>
      <trkpt lat="43.79028" lon="3.48446">
        <ele>666</ele>
        <time>2015-04-11T11:44:26.216Z</time>
      </trkpt>
      <trkpt lat="43.79024" lon="3.48434">
        <ele>668</ele>
        <time>2015-04-11T11:44:36.220Z</time>
      </trkpt>
      <trkpt lat="43.7902" lon="3.48421">
        <ele>672</ele>
        <time>2015-04-11T11:44:47.226Z</time>
      </trkpt>
      <trkpt lat="43.79018" lon="3.48398">
        <ele>667</ele>
        <time>2015-04-11T11:45:17.154Z</time>
      </trkpt>
      <trkpt lat="43.79019" lon="3.48397">
        <ele>661</ele>
        <time>2015-04-11T11:45:21.417Z</time>
      </trkpt>
      <trkpt lat="43.79019" lon="3.48393">
        <ele>668</ele>
        <time>2015-04-11T11:47:57.267Z</time>
      </trkpt>
      <trkpt lat="43.79018" lon="3.48388">
        <ele>673</ele>
        <time>2015-04-11T11:50:03.261Z</time>
      </trkpt>
      <trkpt lat="43.79019" lon="3.48389">
        <ele>675</ele>
        <time>2015-04-11T11:50:07.525Z</time>
      </trkpt>
      <trkpt lat="43.79017" lon="3.48384">
        <ele>671</ele>
        <time>2015-04-11T11:50:24.200Z</time>
      </trkpt>
      <trkpt lat="43.79018" lon="3.48381">
        <ele>678</ele>
        <time>2015-04-11T11:51:34.604Z</time>
      </trkpt>
      <trkpt lat="43.79017" lon="3.4838">
        <ele>681</ele>
        <time>2015-04-11T11:51:37.279Z</time>
      </trkpt>
      <trkpt lat="43.79015" lon="3.4838">
        <ele>662</ele>
        <time>2015-04-11T11:52:20.156Z</time>
      </trkpt>
      <trkpt lat="43.79006" lon="3.48375">
        <ele>659</ele>
        <time>2015-04-11T11:53:07.142Z</time>
      </trkpt>
      <trkpt lat="43.79006" lon="3.48374">
        <ele>659</ele>
        <time>2015-04-11T11:53:08.143Z</time>
      </trkpt>
      <trkpt lat="43.79004" lon="3.48371">
        <ele>667</ele>
        <time>2015-04-11T11:53:11.227Z</time>
      </trkpt>
      <trkpt lat="43.78995" lon="3.48365">
        <ele>669</ele>
        <time>2015-04-11T11:53:23.248Z</time>
      </trkpt>
      <trkpt lat="43.78993" lon="3.48363">
        <ele>673</ele>
        <time>2015-04-11T11:53:33.331Z</time>
      </trkpt>
      <trkpt lat="43.78993" lon="3.48362">
        <ele>670</ele>
        <time>2015-04-11T11:53:35.151Z</time>
      </trkpt>
      <trkpt lat="43.78986" lon="3.48356">
        <ele>667</ele>
        <time>2015-04-11T11:53:58.542Z</time>
      </trkpt>
      <trkpt lat="43.78978" lon="3.4835">
        <ele>669</ele>
        <time>2015-04-11T11:54:08.262Z</time>
      </trkpt>
      <trkpt lat="43.78973" lon="3.48338">
        <ele>669</ele>
        <time>2015-04-11T11:54:19.333Z</time>
      </trkpt>
      <trkpt lat="43.78967" lon="3.48328">
        <ele>668</ele>
        <time>2015-04-11T11:54:34.215Z</time>
      </trkpt>
      <trkpt lat="43.78966" lon="3.48328">
        <ele>667</ele>
        <time>2015-04-11T11:54:35.232Z</time>
      </trkpt>
      <trkpt lat="43.78961" lon="3.48317">
        <ele>670</ele>
        <time>2015-04-11T11:54:45.238Z</time>
      </trkpt>
      <trkpt lat="43.78956" lon="3.48308">
        <ele>671</ele>
        <time>2015-04-11T11:54:53.261Z</time>
      </trkpt>
      <trkpt lat="43.78952" lon="3.48295">
        <ele>670</ele>
        <time>2015-04-11T11:55:05.267Z</time>
      </trkpt>
      <trkpt lat="43.78947" lon="3.48284">
        <ele>668</ele>
        <time>2015-04-11T11:55:18.220Z</time>
      </trkpt>
      <trkpt lat="43.7894" lon="3.48275">
        <ele>671</ele>
        <time>2015-04-11T11:55:27.205Z</time>
      </trkpt>
      <trkpt lat="43.78929" lon="3.48256">
        <ele>669</ele>
        <time>2015-04-11T11:55:44.209Z</time>
      </trkpt>
      <trkpt lat="43.78922" lon="3.48245">
        <ele>671</ele>
        <time>2015-04-11T11:55:54.237Z</time>
      </trkpt>
      <trkpt lat="43.78917" lon="3.48236">
        <ele>673</ele>
        <time>2015-04-11T11:56:06.233Z</time>
      </trkpt>
      <trkpt lat="43.78909" lon="3.48226">
        <ele>675</ele>
        <time>2015-04-11T11:56:18.332Z</time>
      </trkpt>
      <trkpt lat="43.78903" lon="3.48217">
        <ele>670</ele>
        <time>2015-04-11T11:56:29.288Z</time>
      </trkpt>
      <trkpt lat="43.78898" lon="3.48208">
        <ele>670</ele>
        <time>2015-04-11T11:56:42.180Z</time>
      </trkpt>
      <trkpt lat="43.78896" lon="3.48205">
        <ele>674</ele>
        <time>2015-04-11T11:56:44.193Z</time>
      </trkpt>
      <trkpt lat="43.78895" lon="3.48201">
        <ele>674</ele>
        <time>2015-04-11T11:56:46.220Z</time>
      </trkpt>
      <trkpt lat="43.78889" lon="3.4819">
        <ele>672</ele>
        <time>2015-04-11T11:56:55.543Z</time>
      </trkpt>
      <trkpt lat="43.78881" lon="3.48183">
        <ele>669</ele>
        <time>2015-04-11T11:57:03.342Z</time>
      </trkpt>
      <trkpt lat="43.78875" lon="3.48174">
        <ele>671</ele>
        <time>2015-04-11T11:57:13.444Z</time>
      </trkpt>
      <trkpt lat="43.78875" lon="3.48173">
        <ele>673</ele>
        <time>2015-04-11T11:57:14.320Z</time>
      </trkpt>
      <trkpt lat="43.7887" lon="3.48167">
        <ele>678</ele>
        <time>2015-04-11T11:57:35.132Z</time>
      </trkpt>
      <trkpt lat="43.78867" lon="3.48165">
        <ele>673</ele>
        <time>2015-04-11T11:57:39.135Z</time>
      </trkpt>
      <trkpt lat="43.78861" lon="3.48154">
        <ele>677</ele>
        <time>2015-04-11T11:57:49.206Z</time>
      </trkpt>
      <trkpt lat="43.78859" lon="3.48149">
        <ele>674</ele>
        <time>2015-04-11T11:57:56.376Z</time>
      </trkpt>
      <trkpt lat="43.78849" lon="3.48144">
        <ele>673</ele>
        <time>2015-04-11T11:58:04.206Z</time>
      </trkpt>
      <trkpt lat="43.78844" lon="3.48135">
        <ele>674</ele>
        <time>2015-04-11T11:58:17.206Z</time>
      </trkpt>
      <trkpt lat="43.78845" lon="3.48121">
        <ele>680</ele>
        <time>2015-04-11T11:58:33.236Z</time>
      </trkpt>
      <trkpt lat="43.78851" lon="3.48113">
        <ele>675</ele>
        <time>2015-04-11T11:58:49.333Z</time>
      </trkpt>
      <trkpt lat="43.78851" lon="3.48112">
        <ele>675</ele>
        <time>2015-04-11T11:58:51.464Z</time>
      </trkpt>
      <trkpt lat="43.78852" lon="3.48108">
        <ele>666</ele>
        <time>2015-04-11T11:59:58.252Z</time>
      </trkpt>
      <trkpt lat="43.78853" lon="3.48108">
        <ele>666</ele>
        <time>2015-04-11T12:00:01.123Z</time>
      </trkpt>
      <trkpt lat="43.78848" lon="3.48118">
        <ele>678</ele>
        <time>2015-04-11T12:00:22.221Z</time>
      </trkpt>
      <trkpt lat="43.78841" lon="3.48128">
        <ele>679</ele>
        <time>2015-04-11T12:00:46.225Z</time>
      </trkpt>
      <trkpt lat="43.78833" lon="3.48122">
        <ele>676</ele>
        <time>2015-04-11T12:01:02.217Z</time>
      </trkpt>
      <trkpt lat="43.78827" lon="3.48112">
        <ele>671</ele>
        <time>2015-04-11T12:01:11.208Z</time>
      </trkpt>
      <trkpt lat="43.78821" lon="3.48105">
        <ele>673</ele>
        <time>2015-04-11T12:01:18.265Z</time>
      </trkpt>
      <trkpt lat="43.78814" lon="3.48093">
        <ele>677</ele>
        <time>2015-04-11T12:01:26.345Z</time>
      </trkpt>
      <trkpt lat="43.788" lon="3.48073">
        <ele>676</ele>
        <time>2015-04-11T12:01:45.346Z</time>
      </trkpt>
      <trkpt lat="43.78794" lon="3.48063">
        <ele>674</ele>
        <time>2015-04-11T12:01:54.588Z</time>
      </trkpt>
      <trkpt lat="43.78789" lon="3.48057">
        <ele>681</ele>
        <time>2015-04-11T12:02:09.341Z</time>
      </trkpt>
      <trkpt lat="43.78787" lon="3.48056">
        <ele>681</ele>
        <time>2015-04-11T12:02:10.234Z</time>
      </trkpt>
      <trkpt lat="43.78782" lon="3.48046">
        <ele>676</ele>
        <time>2015-04-11T12:02:20.215Z</time>
      </trkpt>
      <trkpt lat="43.78775" lon="3.48035">
        <ele>680</ele>
        <time>2015-04-11T12:02:30.265Z</time>
      </trkpt>
      <trkpt lat="43.78768" lon="3.48028">
        <ele>678</ele>
        <time>2015-04-11T12:02:36.287Z</time>
      </trkpt>
      <trkpt lat="43.78759" lon="3.48021">
        <ele>678</ele>
        <time>2015-04-11T12:02:48.239Z</time>
      </trkpt>
      <trkpt lat="43.78755" lon="3.48019">
        <ele>676</ele>
        <time>2015-04-11T12:02:55.257Z</time>
      </trkpt>
      <trkpt lat="43.78752" lon="3.48016">
        <ele>680</ele>
        <time>2015-04-11T12:03:00.395Z</time>
      </trkpt>
      <trkpt lat="43.78744" lon="3.48012">
        <ele>679</ele>
        <time>2015-04-11T12:03:10.290Z</time>
      </trkpt>
      <trkpt lat="43.78738" lon="3.48004">
        <ele>681</ele>
        <time>2015-04-11T12:03:19.368Z</time>
      </trkpt>
      <trkpt lat="43.7873" lon="3.47994">
        <ele>681</ele>
        <time>2015-04-11T12:03:26.411Z</time>
      </trkpt>
      <trkpt lat="43.78721" lon="3.47985">
        <ele>682</ele>
        <time>2015-04-11T12:03:34.511Z</time>
      </trkpt>
      <trkpt lat="43.78714" lon="3.47976">
        <ele>684</ele>
        <time>2015-04-11T12:03:44.253Z</time>
      </trkpt>
      <trkpt lat="43.78707" lon="3.47966">
        <ele>686</ele>
        <time>2015-04-11T12:03:55.256Z</time>
      </trkpt>
      <trkpt lat="43.78698" lon="3.47957">
        <ele>682</ele>
        <time>2015-04-11T12:04:03.436Z</time>
      </trkpt>
      <trkpt lat="43.78693" lon="3.47946">
        <ele>687</ele>
        <time>2015-04-11T12:04:12.198Z</time>
      </trkpt>
      <trkpt lat="43.78687" lon="3.47938">
        <ele>686</ele>
        <time>2015-04-11T12:04:24.317Z</time>
      </trkpt>
      <trkpt lat="43.7868" lon="3.47927">
        <ele>685</ele>
        <time>2015-04-11T12:04:32.213Z</time>
      </trkpt>
      <trkpt lat="43.78674" lon="3.47915">
        <ele>686</ele>
        <time>2015-04-11T12:04:49.198Z</time>
      </trkpt>
      <trkpt lat="43.78666" lon="3.47909">
        <ele>688</ele>
        <time>2015-04-11T12:04:57.216Z</time>
      </trkpt>
      <trkpt lat="43.78658" lon="3.47903">
        <ele>693</ele>
        <time>2015-04-11T12:05:03.299Z</time>
      </trkpt>
      <trkpt lat="43.7865" lon="3.47895">
        <ele>692</ele>
        <time>2015-04-11T12:05:16.253Z</time>
      </trkpt>
      <trkpt lat="43.78643" lon="3.47883">
        <ele>689</ele>
        <time>2015-04-11T12:05:26.308Z</time>
      </trkpt>
      <trkpt lat="43.78637" lon="3.47876">
        <ele>690</ele>
        <time>2015-04-11T12:05:33.177Z</time>
      </trkpt>
      <trkpt lat="43.78635" lon="3.47875">
        <ele>689</ele>
        <time>2015-04-11T12:05:34.199Z</time>
      </trkpt>
      <trkpt lat="43.78629" lon="3.47866">
        <ele>690</ele>
        <time>2015-04-11T12:05:43.211Z</time>
      </trkpt>
      <trkpt lat="43.7862" lon="3.47859">
        <ele>691</ele>
        <time>2015-04-11T12:05:52.227Z</time>
      </trkpt>
      <trkpt lat="43.78612" lon="3.47848">
        <ele>691</ele>
        <time>2015-04-11T12:05:59.216Z</time>
      </trkpt>
      <trkpt lat="43.78597" lon="3.47832">
        <ele>688</ele>
        <time>2015-04-11T12:06:13.428Z</time>
      </trkpt>
      <trkpt lat="43.78592" lon="3.47822">
        <ele>689</ele>
        <time>2015-04-11T12:06:21.197Z</time>
      </trkpt>
      <trkpt lat="43.78586" lon="3.47811">
        <ele>692</ele>
        <time>2015-04-11T12:06:31.206Z</time>
      </trkpt>
      <trkpt lat="43.78585" lon="3.4781">
        <ele>695</ele>
        <time>2015-04-11T12:06:32.209Z</time>
      </trkpt>
      <trkpt lat="43.78568" lon="3.47797">
        <ele>697</ele>
        <time>2015-04-11T12:06:48.359Z</time>
      </trkpt>
      <trkpt lat="43.7856" lon="3.47792">
        <ele>695</ele>
        <time>2015-04-11T12:06:57.221Z</time>
      </trkpt>
      <trkpt lat="43.78555" lon="3.4779">
        <ele>698</ele>
        <time>2015-04-11T12:07:12.252Z</time>
      </trkpt>
      <trkpt lat="43.78552" lon="3.47787">
        <ele>695</ele>
        <time>2015-04-11T12:07:31.196Z</time>
      </trkpt>
      <trkpt lat="43.78549" lon="3.47787">
        <ele>697</ele>
        <time>2015-04-11T12:07:35.233Z</time>
      </trkpt>
      <trkpt lat="43.78542" lon="3.4778">
        <ele>697</ele>
        <time>2015-04-11T12:07:44.212Z</time>
      </trkpt>
      <trkpt lat="43.7854" lon="3.47778">
        <ele>696</ele>
        <time>2015-04-11T12:07:45.293Z</time>
      </trkpt>
      <trkpt lat="43.78533" lon="3.4777">
        <ele>696</ele>
        <time>2015-04-11T12:07:52.220Z</time>
      </trkpt>
      <trkpt lat="43.78527" lon="3.47762">
        <ele>695</ele>
        <time>2015-04-11T12:08:01.225Z</time>
      </trkpt>
      <trkpt lat="43.7852" lon="3.47752">
        <ele>696</ele>
        <time>2015-04-11T12:08:15.299Z</time>
      </trkpt>
      <trkpt lat="43.78514" lon="3.47741">
        <ele>694</ele>
        <time>2015-04-11T12:08:26.342Z</time>
      </trkpt>
      <trkpt lat="43.78499" lon="3.47725">
        <ele>705</ele>
        <time>2015-04-11T12:08:45.235Z</time>
      </trkpt>
      <trkpt lat="43.78492" lon="3.47719">
        <ele>699</ele>
        <time>2015-04-11T12:08:57.193Z</time>
      </trkpt>
      <trkpt lat="43.78483" lon="3.47714">
        <ele>700</ele>
        <time>2015-04-11T12:09:04.206Z</time>
      </trkpt>
      <trkpt lat="43.78474" lon="3.47707">
        <ele>702</ele>
        <time>2015-04-11T12:09:12.314Z</time>
      </trkpt>
      <trkpt lat="43.78464" lon="3.47703">
        <ele>702</ele>
        <time>2015-04-11T12:09:23.201Z</time>
      </trkpt>
      <trkpt lat="43.78455" lon="3.47699">
        <ele>703</ele>
        <time>2015-04-11T12:09:39.271Z</time>
      </trkpt>
      <trkpt lat="43.78446" lon="3.47698">
        <ele>702</ele>
        <time>2015-04-11T12:09:46.230Z</time>
      </trkpt>
      <trkpt lat="43.78445" lon="3.47699">
        <ele>707</ele>
        <time>2015-04-11T12:09:47.417Z</time>
      </trkpt>
      <trkpt lat="43.78437" lon="3.47696">
        <ele>706</ele>
        <time>2015-04-11T12:09:54.247Z</time>
      </trkpt>
      <trkpt lat="43.78428" lon="3.47692">
        <ele>706</ele>
        <time>2015-04-11T12:10:04.378Z</time>
      </trkpt>
      <trkpt lat="43.78418" lon="3.47689">
        <ele>702</ele>
        <time>2015-04-11T12:10:12.387Z</time>
      </trkpt>
      <trkpt lat="43.78402" lon="3.47679">
        <ele>705</ele>
        <time>2015-04-11T12:10:30.459Z</time>
      </trkpt>
      <trkpt lat="43.78385" lon="3.47669">
        <ele>710</ele>
        <time>2015-04-11T12:10:48.209Z</time>
      </trkpt>
      <trkpt lat="43.78375" lon="3.47665">
        <ele>712</ele>
        <time>2015-04-11T12:10:57.435Z</time>
      </trkpt>
      <trkpt lat="43.78367" lon="3.47664">
        <ele>712</ele>
        <time>2015-04-11T12:11:04.151Z</time>
      </trkpt>
      <trkpt lat="43.78347" lon="3.47665">
        <ele>711</ele>
        <time>2015-04-11T12:11:19.206Z</time>
      </trkpt>
      <trkpt lat="43.78317" lon="3.4767">
        <ele>713</ele>
        <time>2015-04-11T12:11:47.203Z</time>
      </trkpt>
      <trkpt lat="43.78306" lon="3.47672">
        <ele>702</ele>
        <time>2015-04-11T12:12:10.174Z</time>
      </trkpt>
      <trkpt lat="43.78303" lon="3.47672">
        <ele>703</ele>
        <time>2015-04-11T12:12:13.171Z</time>
      </trkpt>
      <trkpt lat="43.78294" lon="3.47672">
        <ele>711</ele>
        <time>2015-04-11T12:12:21.219Z</time>
      </trkpt>
      <trkpt lat="43.78284" lon="3.47676">
        <ele>711</ele>
        <time>2015-04-11T12:12:33.250Z</time>
      </trkpt>
      <trkpt lat="43.78273" lon="3.47678">
        <ele>711</ele>
        <time>2015-04-11T12:12:45.132Z</time>
      </trkpt>
      <trkpt lat="43.78265" lon="3.47679">
        <ele>709</ele>
        <time>2015-04-11T12:12:52.294Z</time>
      </trkpt>
      <trkpt lat="43.78257" lon="3.47677">
        <ele>715</ele>
        <time>2015-04-11T12:12:59.214Z</time>
      </trkpt>
      <trkpt lat="43.78246" lon="3.47679">
        <ele>715</ele>
        <time>2015-04-11T12:13:08.278Z</time>
      </trkpt>
      <trkpt lat="43.78237" lon="3.47679">
        <ele>711</ele>
        <time>2015-04-11T12:13:18.221Z</time>
      </trkpt>
      <trkpt lat="43.78227" lon="3.47676">
        <ele>712</ele>
        <time>2015-04-11T12:13:28.185Z</time>
      </trkpt>
      <trkpt lat="43.78217" lon="3.47672">
        <ele>710</ele>
        <time>2015-04-11T12:13:38.551Z</time>
      </trkpt>
      <trkpt lat="43.78209" lon="3.47667">
        <ele>710</ele>
        <time>2015-04-11T12:13:46.429Z</time>
      </trkpt>
      <trkpt lat="43.78199" lon="3.47664">
        <ele>712</ele>
        <time>2015-04-11T12:13:57.291Z</time>
      </trkpt>
      <trkpt lat="43.78192" lon="3.4766">
        <ele>708</ele>
        <time>2015-04-11T12:14:05.185Z</time>
      </trkpt>
      <trkpt lat="43.78191" lon="3.47658">
        <ele>708</ele>
        <time>2015-04-11T12:14:06.184Z</time>
      </trkpt>
      <trkpt lat="43.78181" lon="3.47657">
        <ele>711</ele>
        <time>2015-04-11T12:14:14.244Z</time>
      </trkpt>
      <trkpt lat="43.78172" lon="3.47654">
        <ele>707</ele>
        <time>2015-04-11T12:14:20.376Z</time>
      </trkpt>
      <trkpt lat="43.78164" lon="3.47651">
        <ele>707</ele>
        <time>2015-04-11T12:14:27.191Z</time>
      </trkpt>
      <trkpt lat="43.78143" lon="3.47649">
        <ele>710</ele>
        <time>2015-04-11T12:14:46.518Z</time>
      </trkpt>
      <trkpt lat="43.78135" lon="3.47646">
        <ele>707</ele>
        <time>2015-04-11T12:14:55.197Z</time>
      </trkpt>
      <trkpt lat="43.78125" lon="3.47646">
        <ele>709</ele>
        <time>2015-04-11T12:15:03.231Z</time>
      </trkpt>
      <trkpt lat="43.78104" lon="3.47644">
        <ele>707</ele>
        <time>2015-04-11T12:15:18.189Z</time>
      </trkpt>
      <trkpt lat="43.78094" lon="3.47642">
        <ele>708</ele>
        <time>2015-04-11T12:15:27.190Z</time>
      </trkpt>
      <trkpt lat="43.78056" lon="3.47633">
        <ele>712</ele>
        <time>2015-04-11T12:16:06.160Z</time>
      </trkpt>
      <trkpt lat="43.78047" lon="3.47629">
        <ele>712</ele>
        <time>2015-04-11T12:16:15.255Z</time>
      </trkpt>
      <trkpt lat="43.78039" lon="3.47625">
        <ele>710</ele>
        <time>2015-04-11T12:16:22.181Z</time>
      </trkpt>
      <trkpt lat="43.78029" lon="3.47618">
        <ele>708</ele>
        <time>2015-04-11T12:16:33.175Z</time>
      </trkpt>
      <trkpt lat="43.78022" lon="3.47609">
        <ele>710</ele>
        <time>2015-04-11T12:16:42.194Z</time>
      </trkpt>
      <trkpt lat="43.78016" lon="3.47599">
        <ele>711</ele>
        <time>2015-04-11T12:16:50.187Z</time>
      </trkpt>
      <trkpt lat="43.78011" lon="3.47589">
        <ele>709</ele>
        <time>2015-04-11T12:16:56.337Z</time>
      </trkpt>
      <trkpt lat="43.78004" lon="3.47578">
        <ele>710</ele>
        <time>2015-04-11T12:17:05.557Z</time>
      </trkpt>
      <trkpt lat="43.77999" lon="3.47568">
        <ele>713</ele>
        <time>2015-04-11T12:17:14.192Z</time>
      </trkpt>
      <trkpt lat="43.7799" lon="3.47545">
        <ele>710</ele>
        <time>2015-04-11T12:17:32.186Z</time>
      </trkpt>
      <trkpt lat="43.77983" lon="3.47532">
        <ele>711</ele>
        <time>2015-04-11T12:17:41.391Z</time>
      </trkpt>
      <trkpt lat="43.77978" lon="3.4752">
        <ele>711</ele>
        <time>2015-04-11T12:17:50.172Z</time>
      </trkpt>
      <trkpt lat="43.77972" lon="3.47509">
        <ele>712</ele>
        <time>2015-04-11T12:18:00.398Z</time>
      </trkpt>
      <trkpt lat="43.77968" lon="3.47498">
        <ele>710</ele>
        <time>2015-04-11T12:18:07.332Z</time>
      </trkpt>
      <trkpt lat="43.77966" lon="3.4749">
        <ele>707</ele>
        <time>2015-04-11T12:18:17.115Z</time>
      </trkpt>
      <trkpt lat="43.77963" lon="3.47487">
        <ele>708</ele>
        <time>2015-04-11T12:18:21.217Z</time>
      </trkpt>
      <trkpt lat="43.77955" lon="3.47466">
        <ele>710</ele>
        <time>2015-04-11T12:18:38.231Z</time>
      </trkpt>
      <trkpt lat="43.77949" lon="3.47454">
        <ele>716</ele>
        <time>2015-04-11T12:18:48.210Z</time>
      </trkpt>
      <trkpt lat="43.77945" lon="3.47442">
        <ele>713</ele>
        <time>2015-04-11T12:19:20.670Z</time>
      </trkpt>
      <trkpt lat="43.77938" lon="3.4743">
        <ele>719</ele>
        <time>2015-04-11T12:19:45.410Z</time>
      </trkpt>
      <trkpt lat="43.77934" lon="3.47418">
        <ele>712</ele>
        <time>2015-04-11T12:19:59.304Z</time>
      </trkpt>
      <trkpt lat="43.7793" lon="3.47407">
        <ele>713</ele>
        <time>2015-04-11T12:20:09.425Z</time>
      </trkpt>
      <trkpt lat="43.7792" lon="3.47388">
        <ele>717</ele>
        <time>2015-04-11T12:20:32.169Z</time>
      </trkpt>
      <trkpt lat="43.77918" lon="3.47386">
        <ele>717</ele>
        <time>2015-04-11T12:20:37.159Z</time>
      </trkpt>
      <trkpt lat="43.77911" lon="3.47369">
        <ele>711</ele>
        <time>2015-04-11T12:20:54.183Z</time>
      </trkpt>
      <trkpt lat="43.77911" lon="3.47368">
        <ele>712</ele>
        <time>2015-04-11T12:20:55.182Z</time>
      </trkpt>
      <trkpt lat="43.77911" lon="3.47368">
        <ele>713</ele>
        <time>2015-04-11T12:20:58.172Z</time>
      </trkpt>
      <trkpt lat="43.77902" lon="3.47348">
        <ele>713</ele>
        <time>2015-04-11T12:21:20.177Z</time>
      </trkpt>
      <trkpt lat="43.77896" lon="3.47337">
        <ele>716</ele>
        <time>2015-04-11T12:21:30.182Z</time>
      </trkpt>
      <trkpt lat="43.77889" lon="3.4733">
        <ele>716</ele>
        <time>2015-04-11T12:21:40.162Z</time>
      </trkpt>
      <trkpt lat="43.7788" lon="3.47321">
        <ele>715</ele>
        <time>2015-04-11T12:21:49.190Z</time>
      </trkpt>
      <trkpt lat="43.77877" lon="3.4732">
        <ele>719</ele>
        <time>2015-04-11T12:21:55.183Z</time>
      </trkpt>
      <trkpt lat="43.77875" lon="3.47317">
        <ele>719</ele>
        <time>2015-04-11T12:21:58.202Z</time>
      </trkpt>
      <trkpt lat="43.77868" lon="3.4731">
        <ele>719</ele>
        <time>2015-04-11T12:22:06.196Z</time>
      </trkpt>
      <trkpt lat="43.77853" lon="3.47295">
        <ele>719</ele>
        <time>2015-04-11T12:22:24.204Z</time>
      </trkpt>
      <trkpt lat="43.77845" lon="3.4729">
        <ele>719</ele>
        <time>2015-04-11T12:22:33.407Z</time>
      </trkpt>
      <trkpt lat="43.77843" lon="3.47289">
        <ele>717</ele>
        <time>2015-04-11T12:22:38.127Z</time>
      </trkpt>
      <trkpt lat="43.77834" lon="3.47284">
        <ele>723</ele>
        <time>2015-04-11T12:22:56.308Z</time>
      </trkpt>
      <trkpt lat="43.77829" lon="3.47282">
        <ele>724</ele>
        <time>2015-04-11T12:23:04.689Z</time>
      </trkpt>
      <trkpt lat="43.77829" lon="3.47281">
        <ele>723</ele>
        <time>2015-04-11T12:23:05.881Z</time>
      </trkpt>
      <trkpt lat="43.77819" lon="3.47275">
        <ele>721</ele>
        <time>2015-04-11T12:23:14.242Z</time>
      </trkpt>
      <trkpt lat="43.7781" lon="3.47271">
        <ele>723</ele>
        <time>2015-04-11T12:23:26.201Z</time>
      </trkpt>
      <trkpt lat="43.77801" lon="3.47267">
        <ele>722</ele>
        <time>2015-04-11T12:23:38.191Z</time>
      </trkpt>
      <trkpt lat="43.77792" lon="3.47262">
        <ele>720</ele>
        <time>2015-04-11T12:23:49.439Z</time>
      </trkpt>
      <trkpt lat="43.77782" lon="3.47259">
        <ele>725</ele>
        <time>2015-04-11T12:23:58.399Z</time>
      </trkpt>
      <trkpt lat="43.77774" lon="3.47254">
        <ele>723</ele>
        <time>2015-04-11T12:24:12.105Z</time>
      </trkpt>
      <trkpt lat="43.77765" lon="3.47252">
        <ele>724</ele>
        <time>2015-04-11T12:24:20.457Z</time>
      </trkpt>
      <trkpt lat="43.77747" lon="3.47242">
        <ele>722</ele>
        <time>2015-04-11T12:24:38.175Z</time>
      </trkpt>
      <trkpt lat="43.77739" lon="3.47237">
        <ele>723</ele>
        <time>2015-04-11T12:24:46.179Z</time>
      </trkpt>
      <trkpt lat="43.7773" lon="3.47229">
        <ele>722</ele>
        <time>2015-04-11T12:24:55.201Z</time>
      </trkpt>
      <trkpt lat="43.77722" lon="3.47221">
        <ele>719</ele>
        <time>2015-04-11T12:25:06.323Z</time>
      </trkpt>
      <trkpt lat="43.77716" lon="3.47213">
        <ele>720</ele>
        <time>2015-04-11T12:25:13.277Z</time>
      </trkpt>
      <trkpt lat="43.77702" lon="3.47192">
        <ele>723</ele>
        <time>2015-04-11T12:25:32.412Z</time>
      </trkpt>
      <trkpt lat="43.77696" lon="3.47185">
        <ele>722</ele>
        <time>2015-04-11T12:25:40.192Z</time>
      </trkpt>
      <trkpt lat="43.77689" lon="3.47175">
        <ele>718</ele>
        <time>2015-04-11T12:25:52.440Z</time>
      </trkpt>
      <trkpt lat="43.77681" lon="3.47165">
        <ele>720</ele>
        <time>2015-04-11T12:26:05.696Z</time>
      </trkpt>
      <trkpt lat="43.77673" lon="3.47159">
        <ele>720</ele>
        <time>2015-04-11T12:26:14.217Z</time>
      </trkpt>
      <trkpt lat="43.77673" lon="3.47159">
        <ele>722</ele>
        <time>2015-04-11T12:26:15.207Z</time>
      </trkpt>
      <trkpt lat="43.77668" lon="3.47154">
        <ele>723</ele>
        <time>2015-04-11T13:42:48.320Z</time>
      </trkpt>
      <trkpt lat="43.77664" lon="3.47142">
        <ele>722</ele>
        <time>2015-04-11T13:42:57.098Z</time>
      </trkpt>
      <trkpt lat="43.77656" lon="3.47132">
        <ele>723</ele>
        <time>2015-04-11T13:43:05.088Z</time>
      </trkpt>
      <trkpt lat="43.77648" lon="3.47125">
        <ele>728</ele>
        <time>2015-04-11T13:43:15.223Z</time>
      </trkpt>
      <trkpt lat="43.77633" lon="3.47109">
        <ele>723</ele>
        <time>2015-04-11T13:43:31.098Z</time>
      </trkpt>
      <trkpt lat="43.77625" lon="3.47104">
        <ele>719</ele>
        <time>2015-04-11T13:43:38.193Z</time>
      </trkpt>
      <trkpt lat="43.7761" lon="3.47085">
        <ele>718</ele>
        <time>2015-04-11T13:43:56.092Z</time>
      </trkpt>
      <trkpt lat="43.77587" lon="3.47062">
        <ele>719</ele>
        <time>2015-04-11T13:44:20.204Z</time>
      </trkpt>
      <trkpt lat="43.77579" lon="3.47055">
        <ele>715</ele>
        <time>2015-04-11T13:44:29.071Z</time>
      </trkpt>
      <trkpt lat="43.77571" lon="3.47046">
        <ele>718</ele>
        <time>2015-04-11T13:44:37.314Z</time>
      </trkpt>
      <trkpt lat="43.77556" lon="3.47028">
        <ele>721</ele>
        <time>2015-04-11T13:44:56.120Z</time>
      </trkpt>
      <trkpt lat="43.77549" lon="3.47018">
        <ele>718</ele>
        <time>2015-04-11T13:45:04.111Z</time>
      </trkpt>
      <trkpt lat="43.77543" lon="3.47007">
        <ele>717</ele>
        <time>2015-04-11T13:45:13.205Z</time>
      </trkpt>
      <trkpt lat="43.77538" lon="3.46998">
        <ele>722</ele>
        <time>2015-04-11T13:45:23.103Z</time>
      </trkpt>
      <trkpt lat="43.77536" lon="3.46997">
        <ele>721</ele>
        <time>2015-04-11T13:45:24.167Z</time>
      </trkpt>
      <trkpt lat="43.77531" lon="3.4699">
        <ele>718</ele>
        <time>2015-04-11T13:45:30.389Z</time>
      </trkpt>
      <trkpt lat="43.77525" lon="3.46977">
        <ele>720</ele>
        <time>2015-04-11T13:45:38.518Z</time>
      </trkpt>
      <trkpt lat="43.77518" lon="3.46966">
        <ele>716</ele>
        <time>2015-04-11T13:45:48.140Z</time>
      </trkpt>
      <trkpt lat="43.77514" lon="3.46956">
        <ele>725</ele>
        <time>2015-04-11T13:45:57.084Z</time>
      </trkpt>
      <trkpt lat="43.7751" lon="3.4693">
        <ele>725</ele>
        <time>2015-04-11T13:46:14.193Z</time>
      </trkpt>
      <trkpt lat="43.77511" lon="3.46903">
        <ele>723</ele>
        <time>2015-04-11T13:46:29.105Z</time>
      </trkpt>
      <trkpt lat="43.77508" lon="3.46891">
        <ele>720</ele>
        <time>2015-04-11T13:46:50.537Z</time>
      </trkpt>
      <trkpt lat="43.77505" lon="3.46878">
        <ele>718</ele>
        <time>2015-04-11T13:47:02.108Z</time>
      </trkpt>
      <trkpt lat="43.77504" lon="3.46876">
        <ele>720</ele>
        <time>2015-04-11T13:47:03.095Z</time>
      </trkpt>
      <trkpt lat="43.77501" lon="3.46863">
        <ele>718</ele>
        <time>2015-04-11T13:47:11.097Z</time>
      </trkpt>
      <trkpt lat="43.775" lon="3.4686">
        <ele>721</ele>
        <time>2015-04-11T13:47:22.091Z</time>
      </trkpt>
      <trkpt lat="43.775" lon="3.46854">
        <ele>719</ele>
        <time>2015-04-11T13:47:26.347Z</time>
      </trkpt>
      <trkpt lat="43.77495" lon="3.46844">
        <ele>720</ele>
        <time>2015-04-11T13:47:35.288Z</time>
      </trkpt>
      <trkpt lat="43.77488" lon="3.46834">
        <ele>715</ele>
        <time>2015-04-11T13:47:46.107Z</time>
      </trkpt>
      <trkpt lat="43.7748" lon="3.46826">
        <ele>720</ele>
        <time>2015-04-11T13:47:56.155Z</time>
      </trkpt>
      <trkpt lat="43.77472" lon="3.46821">
        <ele>723</ele>
        <time>2015-04-11T13:48:07.086Z</time>
      </trkpt>
      <trkpt lat="43.7747" lon="3.46822">
        <ele>721</ele>
        <time>2015-04-11T13:48:11.188Z</time>
      </trkpt>
      <trkpt lat="43.77467" lon="3.46821">
        <ele>721</ele>
        <time>2015-04-11T13:48:15.453Z</time>
      </trkpt>
      <trkpt lat="43.77459" lon="3.46815">
        <ele>728</ele>
        <time>2015-04-11T13:50:03.310Z</time>
      </trkpt>
      <trkpt lat="43.77457" lon="3.46815">
        <ele>725</ele>
        <time>2015-04-11T13:54:58.116Z</time>
      </trkpt>
      <trkpt lat="43.77455" lon="3.46818">
        <ele>724</ele>
        <time>2015-04-11T13:55:02.273Z</time>
      </trkpt>
      <trkpt lat="43.77447" lon="3.46822">
        <ele>721</ele>
        <time>2015-04-11T13:55:12.293Z</time>
      </trkpt>
      <trkpt lat="43.77437" lon="3.46821">
        <ele>726</ele>
        <time>2015-04-11T13:55:23.345Z</time>
      </trkpt>
      <trkpt lat="43.77427" lon="3.46817">
        <ele>716</ele>
        <time>2015-04-11T13:55:36.942Z</time>
      </trkpt>
      <trkpt lat="43.7741" lon="3.46809">
        <ele>717</ele>
        <time>2015-04-11T13:55:54.193Z</time>
      </trkpt>
      <trkpt lat="43.774" lon="3.46804">
        <ele>721</ele>
        <time>2015-04-11T13:56:06.210Z</time>
      </trkpt>
      <trkpt lat="43.77392" lon="3.46803">
        <ele>719</ele>
        <time>2015-04-11T13:56:13.445Z</time>
      </trkpt>
      <trkpt lat="43.77372" lon="3.46796">
        <ele>725</ele>
        <time>2015-04-11T13:56:30.086Z</time>
      </trkpt>
      <trkpt lat="43.77354" lon="3.46793">
        <ele>726</ele>
        <time>2015-04-11T13:56:49.371Z</time>
      </trkpt>
      <trkpt lat="43.77345" lon="3.46791">
        <ele>721</ele>
        <time>2015-04-11T13:56:58.301Z</time>
      </trkpt>
      <trkpt lat="43.77335" lon="3.46789">
        <ele>724</ele>
        <time>2015-04-11T13:57:07.085Z</time>
      </trkpt>
      <trkpt lat="43.77326" lon="3.46788">
        <ele>724</ele>
        <time>2015-04-11T13:57:16.096Z</time>
      </trkpt>
      <trkpt lat="43.77317" lon="3.46784">
        <ele>726</ele>
        <time>2015-04-11T13:57:25.123Z</time>
      </trkpt>
      <trkpt lat="43.77306" lon="3.46781">
        <ele>724</ele>
        <time>2015-04-11T13:57:36.348Z</time>
      </trkpt>
      <trkpt lat="43.77296" lon="3.46779">
        <ele>720</ele>
        <time>2015-04-11T13:57:44.105Z</time>
      </trkpt>
      <trkpt lat="43.77288" lon="3.46776">
        <ele>724</ele>
        <time>2015-04-11T13:57:52.564Z</time>
      </trkpt>
      <trkpt lat="43.77278" lon="3.46769">
        <ele>725</ele>
        <time>2015-04-11T13:58:04.086Z</time>
      </trkpt>
      <trkpt lat="43.7726" lon="3.46763">
        <ele>720</ele>
        <time>2015-04-11T13:58:22.061Z</time>
      </trkpt>
      <trkpt lat="43.77252" lon="3.46755">
        <ele>723</ele>
        <time>2015-04-11T13:58:32.123Z</time>
      </trkpt>
      <trkpt lat="43.77243" lon="3.46752">
        <ele>719</ele>
        <time>2015-04-11T13:58:40.276Z</time>
      </trkpt>
      <trkpt lat="43.77226" lon="3.46741">
        <ele>722</ele>
        <time>2015-04-11T13:58:56.621Z</time>
      </trkpt>
      <trkpt lat="43.77215" lon="3.46737">
        <ele>721</ele>
        <time>2015-04-11T13:59:07.099Z</time>
      </trkpt>
      <trkpt lat="43.77208" lon="3.46732">
        <ele>726</ele>
        <time>2015-04-11T13:59:15.087Z</time>
      </trkpt>
      <trkpt lat="43.77199" lon="3.46727">
        <ele>721</ele>
        <time>2015-04-11T13:59:25.122Z</time>
      </trkpt>
      <trkpt lat="43.7719" lon="3.46724">
        <ele>719</ele>
        <time>2015-04-11T13:59:33.104Z</time>
      </trkpt>
      <trkpt lat="43.77181" lon="3.4672">
        <ele>723</ele>
        <time>2015-04-11T13:59:44.193Z</time>
      </trkpt>
      <trkpt lat="43.77171" lon="3.46717">
        <ele>730</ele>
        <time>2015-04-11T13:59:53.081Z</time>
      </trkpt>
      <trkpt lat="43.77163" lon="3.46717">
        <ele>728</ele>
        <time>2015-04-11T14:00:02.251Z</time>
      </trkpt>
      <trkpt lat="43.77141" lon="3.46713">
        <ele>724</ele>
        <time>2015-04-11T14:00:19.084Z</time>
      </trkpt>
      <trkpt lat="43.77133" lon="3.46713">
        <ele>725</ele>
        <time>2015-04-11T14:00:26.251Z</time>
      </trkpt>
      <trkpt lat="43.77122" lon="3.46712">
        <ele>726</ele>
        <time>2015-04-11T14:00:37.236Z</time>
      </trkpt>
      <trkpt lat="43.77114" lon="3.46709">
        <ele>727</ele>
        <time>2015-04-11T14:00:45.069Z</time>
      </trkpt>
      <trkpt lat="43.77104" lon="3.46708">
        <ele>728</ele>
        <time>2015-04-11T14:00:54.201Z</time>
      </trkpt>
      <trkpt lat="43.77095" lon="3.46705">
        <ele>725</ele>
        <time>2015-04-11T14:01:02.372Z</time>
      </trkpt>
      <trkpt lat="43.77086" lon="3.46701">
        <ele>730</ele>
        <time>2015-04-11T14:01:13.094Z</time>
      </trkpt>
      <trkpt lat="43.77078" lon="3.46699">
        <ele>731</ele>
        <time>2015-04-11T14:01:21.081Z</time>
      </trkpt>
      <trkpt lat="43.77067" lon="3.46696">
        <ele>730</ele>
        <time>2015-04-11T14:01:33.078Z</time>
      </trkpt>
      <trkpt lat="43.77059" lon="3.46691">
        <ele>732</ele>
        <time>2015-04-11T14:01:50.131Z</time>
      </trkpt>
      <trkpt lat="43.77058" lon="3.46685">
        <ele>732</ele>
        <time>2015-04-11T14:02:04.280Z</time>
      </trkpt>
      <trkpt lat="43.7706" lon="3.4668">
        <ele>733</ele>
        <time>2015-04-11T14:02:08.010Z</time>
      </trkpt>
      <trkpt lat="43.77065" lon="3.4667">
        <ele>736</ele>
        <time>2015-04-11T14:02:16.085Z</time>
      </trkpt>
      <trkpt lat="43.7707" lon="3.46663">
        <ele>734</ele>
        <time>2015-04-11T14:02:27.016Z</time>
      </trkpt>
      <trkpt lat="43.77071" lon="3.46663">
        <ele>734</ele>
        <time>2015-04-11T14:02:28.011Z</time>
      </trkpt>
      <trkpt lat="43.77073" lon="3.46661">
        <ele>733</ele>
        <time>2015-04-11T14:02:31.014Z</time>
      </trkpt>
      <trkpt lat="43.77076" lon="3.4665">
        <ele>728</ele>
        <time>2015-04-11T14:02:50.064Z</time>
      </trkpt>
      <trkpt lat="43.77076" lon="3.46638">
        <ele>731</ele>
        <time>2015-04-11T14:03:00.234Z</time>
      </trkpt>
      <trkpt lat="43.77076" lon="3.46637">
        <ele>731</ele>
        <time>2015-04-11T14:03:01.118Z</time>
      </trkpt>
      <trkpt lat="43.77076" lon="3.46625">
        <ele>729</ele>
        <time>2015-04-11T14:03:10.504Z</time>
      </trkpt>
      <trkpt lat="43.77075" lon="3.46611">
        <ele>730</ele>
        <time>2015-04-11T14:03:22.595Z</time>
      </trkpt>
      <trkpt lat="43.77077" lon="3.46599">
        <ele>731</ele>
        <time>2015-04-11T14:03:33.072Z</time>
      </trkpt>
      <trkpt lat="43.77085" lon="3.46585">
        <ele>728</ele>
        <time>2015-04-11T14:03:48.074Z</time>
      </trkpt>
      <trkpt lat="43.77093" lon="3.46579">
        <ele>735</ele>
        <time>2015-04-11T14:03:56.071Z</time>
      </trkpt>
      <trkpt lat="43.771" lon="3.46571">
        <ele>730</ele>
        <time>2015-04-11T14:04:04.077Z</time>
      </trkpt>
      <trkpt lat="43.77106" lon="3.46561">
        <ele>723</ele>
        <time>2015-04-11T14:04:12.254Z</time>
      </trkpt>
      <trkpt lat="43.7711" lon="3.46552">
        <ele>726</ele>
        <time>2015-04-11T14:04:24.010Z</time>
      </trkpt>
      <trkpt lat="43.77111" lon="3.46548">
        <ele>732</ele>
        <time>2015-04-11T14:04:44.081Z</time>
      </trkpt>
      <trkpt lat="43.77115" lon="3.46539">
        <ele>727</ele>
        <time>2015-04-11T14:05:31.457Z</time>
      </trkpt>
      <trkpt lat="43.77114" lon="3.46537">
        <ele>728</ele>
        <time>2015-04-11T14:06:00.554Z</time>
      </trkpt>
      <trkpt lat="43.77113" lon="3.46537">
        <ele>726</ele>
        <time>2015-04-11T14:06:01.310Z</time>
      </trkpt>
      <trkpt lat="43.77119" lon="3.46529">
        <ele>724</ele>
        <time>2015-04-11T14:07:31.094Z</time>
      </trkpt>
      <trkpt lat="43.77117" lon="3.46529">
        <ele>717</ele>
        <time>2015-04-11T14:08:00.314Z</time>
      </trkpt>
      <trkpt lat="43.77118" lon="3.46525">
        <ele>726</ele>
        <time>2015-04-11T14:08:03.122Z</time>
      </trkpt>
      <trkpt lat="43.77117" lon="3.46516">
        <ele>722</ele>
        <time>2015-04-11T14:08:25.129Z</time>
      </trkpt>
      <trkpt lat="43.77117" lon="3.46515">
        <ele>724</ele>
        <time>2015-04-11T14:08:27.097Z</time>
      </trkpt>
      <trkpt lat="43.77119" lon="3.46502">
        <ele>736</ele>
        <time>2015-04-11T14:08:35.342Z</time>
      </trkpt>
      <trkpt lat="43.77117" lon="3.46489">
        <ele>730</ele>
        <time>2015-04-11T14:08:45.636Z</time>
      </trkpt>
      <trkpt lat="43.77115" lon="3.46477">
        <ele>732</ele>
        <time>2015-04-11T14:08:54.182Z</time>
      </trkpt>
      <trkpt lat="43.77114" lon="3.46472">
        <ele>732</ele>
        <time>2015-04-11T14:09:05.060Z</time>
      </trkpt>
      <trkpt lat="43.77113" lon="3.46471">
        <ele>731</ele>
        <time>2015-04-11T14:09:07.285Z</time>
      </trkpt>
      <trkpt lat="43.77113" lon="3.46458">
        <ele>734</ele>
        <time>2015-04-11T14:09:21.340Z</time>
      </trkpt>
      <trkpt lat="43.77112" lon="3.46457">
        <ele>727</ele>
        <time>2015-04-11T14:09:44.119Z</time>
      </trkpt>
      <trkpt lat="43.7711" lon="3.46455">
        <ele>729</ele>
        <time>2015-04-11T14:09:49.478Z</time>
      </trkpt>
      <trkpt lat="43.77108" lon="3.4644">
        <ele>734</ele>
        <time>2015-04-11T14:09:59.073Z</time>
      </trkpt>
      <trkpt lat="43.77105" lon="3.46429">
        <ele>733</ele>
        <time>2015-04-11T14:10:08.045Z</time>
      </trkpt>
      <trkpt lat="43.771" lon="3.46417">
        <ele>737</ele>
        <time>2015-04-11T14:10:18.032Z</time>
      </trkpt>
      <trkpt lat="43.77094" lon="3.46407">
        <ele>729</ele>
        <time>2015-04-11T14:10:26.082Z</time>
      </trkpt>
      <trkpt lat="43.77093" lon="3.46406">
        <ele>730</ele>
        <time>2015-04-11T14:10:27.032Z</time>
      </trkpt>
      <trkpt lat="43.7708" lon="3.46386">
        <ele>730</ele>
        <time>2015-04-11T14:10:51.999Z</time>
      </trkpt>
      <trkpt lat="43.77074" lon="3.46378">
        <ele>732</ele>
        <time>2015-04-11T14:10:59.996Z</time>
      </trkpt>
      <trkpt lat="43.77067" lon="3.46367">
        <ele>736</ele>
        <time>2015-04-11T14:11:12.189Z</time>
      </trkpt>
      <trkpt lat="43.77062" lon="3.46357">
        <ele>734</ele>
        <time>2015-04-11T14:11:20.084Z</time>
      </trkpt>
      <trkpt lat="43.77056" lon="3.46347">
        <ele>732</ele>
        <time>2015-04-11T14:11:29.159Z</time>
      </trkpt>
      <trkpt lat="43.77049" lon="3.46336">
        <ele>738</ele>
        <time>2015-04-11T14:11:43.081Z</time>
      </trkpt>
      <trkpt lat="43.77044" lon="3.46326">
        <ele>737</ele>
        <time>2015-04-11T14:11:53.107Z</time>
      </trkpt>
      <trkpt lat="43.7704" lon="3.46315">
        <ele>735</ele>
        <time>2015-04-11T14:12:03.141Z</time>
      </trkpt>
      <trkpt lat="43.77036" lon="3.46301">
        <ele>740</ele>
        <time>2015-04-11T14:12:13.068Z</time>
      </trkpt>
      <trkpt lat="43.77035" lon="3.463">
        <ele>736</ele>
        <time>2015-04-11T14:12:14.120Z</time>
      </trkpt>
      <trkpt lat="43.7703" lon="3.4629">
        <ele>741</ele>
        <time>2015-04-11T14:12:24.380Z</time>
      </trkpt>
      <trkpt lat="43.77021" lon="3.46266">
        <ele>739</ele>
        <time>2015-04-11T14:12:42.117Z</time>
      </trkpt>
      <trkpt lat="43.77021" lon="3.46265">
        <ele>738</ele>
        <time>2015-04-11T14:12:43.155Z</time>
      </trkpt>
      <trkpt lat="43.77026" lon="3.46253">
        <ele>746</ele>
        <time>2015-04-11T14:12:50.389Z</time>
      </trkpt>
      <trkpt lat="43.77032" lon="3.46244">
        <ele>745</ele>
        <time>2015-04-11T14:12:57.170Z</time>
      </trkpt>
      <trkpt lat="43.77039" lon="3.46233">
        <ele>745</ele>
        <time>2015-04-11T14:13:07.304Z</time>
      </trkpt>
      <trkpt lat="43.77048" lon="3.46227">
        <ele>745</ele>
        <time>2015-04-11T14:13:17.072Z</time>
      </trkpt>
      <trkpt lat="43.77055" lon="3.46222">
        <ele>743</ele>
        <time>2015-04-11T14:13:25.229Z</time>
      </trkpt>
      <trkpt lat="43.77065" lon="3.4622">
        <ele>744</ele>
        <time>2015-04-11T14:13:36.068Z</time>
      </trkpt>
      <trkpt lat="43.77084" lon="3.46218">
        <ele>745</ele>
        <time>2015-04-11T14:13:55.286Z</time>
      </trkpt>
      <trkpt lat="43.77092" lon="3.46216">
        <ele>745</ele>
        <time>2015-04-11T14:14:01.410Z</time>
      </trkpt>
      <trkpt lat="43.77097" lon="3.46215">
        <ele>748</ele>
        <time>2015-04-11T14:14:08.005Z</time>
      </trkpt>
      <trkpt lat="43.77099" lon="3.46215">
        <ele>746</ele>
        <time>2015-04-11T14:14:12.070Z</time>
      </trkpt>
      <trkpt lat="43.77109" lon="3.46214">
        <ele>747</ele>
        <time>2015-04-11T14:14:22.075Z</time>
      </trkpt>
      <trkpt lat="43.77111" lon="3.46212">
        <ele>746</ele>
        <time>2015-04-11T14:14:35.116Z</time>
      </trkpt>
      <trkpt lat="43.7711" lon="3.46212">
        <ele>746</ele>
        <time>2015-04-11T14:14:36.087Z</time>
      </trkpt>
      <trkpt lat="43.77111" lon="3.46211">
        <ele>748</ele>
        <time>2015-04-11T14:14:38.126Z</time>
      </trkpt>
      <trkpt lat="43.77111" lon="3.4621">
        <ele>748</ele>
        <time>2015-04-11T14:14:39.150Z</time>
      </trkpt>
      <trkpt lat="43.77119" lon="3.46212">
        <ele>747</ele>
        <time>2015-04-11T14:14:47.086Z</time>
      </trkpt>
      <trkpt lat="43.7713" lon="3.46218">
        <ele>748</ele>
        <time>2015-04-11T14:14:54.041Z</time>
      </trkpt>
      <trkpt lat="43.77139" lon="3.46219">
        <ele>747</ele>
        <time>2015-04-11T14:15:05.230Z</time>
      </trkpt>
      <trkpt lat="43.77139" lon="3.46218">
        <ele>747</ele>
        <time>2015-04-11T14:15:06.066Z</time>
      </trkpt>
      <trkpt lat="43.77148" lon="3.46218">
        <ele>749</ele>
        <time>2015-04-11T14:15:13.150Z</time>
      </trkpt>
      <trkpt lat="43.77158" lon="3.46214">
        <ele>750</ele>
        <time>2015-04-11T14:15:22.078Z</time>
      </trkpt>
      <trkpt lat="43.77165" lon="3.46207">
        <ele>749</ele>
        <time>2015-04-11T14:15:29.361Z</time>
      </trkpt>
      <trkpt lat="43.77169" lon="3.46195">
        <ele>755</ele>
        <time>2015-04-11T14:15:40.373Z</time>
      </trkpt>
      <trkpt lat="43.7717" lon="3.46183">
        <ele>753</ele>
        <time>2015-04-11T14:15:51.301Z</time>
      </trkpt>
      <trkpt lat="43.77169" lon="3.46182">
        <ele>754</ele>
        <time>2015-04-11T14:15:52.259Z</time>
      </trkpt>
      <trkpt lat="43.77163" lon="3.46174">
        <ele>763</ele>
        <time>2015-04-11T14:16:09.121Z</time>
      </trkpt>
      <trkpt lat="43.77159" lon="3.46175">
        <ele>760</ele>
        <time>2015-04-11T14:16:13.064Z</time>
      </trkpt>
      <trkpt lat="43.77167" lon="3.46172">
        <ele>754</ele>
        <time>2015-04-11T14:16:25.140Z</time>
      </trkpt>
      <trkpt lat="43.77177" lon="3.46174">
        <ele>758</ele>
        <time>2015-04-11T14:16:36.996Z</time>
      </trkpt>
      <trkpt lat="43.77186" lon="3.46169">
        <ele>752</ele>
        <time>2015-04-11T14:16:49.275Z</time>
      </trkpt>
      <trkpt lat="43.77191" lon="3.4616">
        <ele>760</ele>
        <time>2015-04-11T14:17:06.064Z</time>
      </trkpt>
      <trkpt lat="43.77194" lon="3.46148">
        <ele>752</ele>
        <time>2015-04-11T14:17:16.056Z</time>
      </trkpt>
      <trkpt lat="43.77196" lon="3.46134">
        <ele>752</ele>
        <time>2015-04-11T14:17:25.567Z</time>
      </trkpt>
      <trkpt lat="43.77195" lon="3.46133">
        <ele>753</ele>
        <time>2015-04-11T14:17:26.275Z</time>
      </trkpt>
      <trkpt lat="43.77196" lon="3.4612">
        <ele>756</ele>
        <time>2015-04-11T14:17:40.077Z</time>
      </trkpt>
      <trkpt lat="43.77196" lon="3.46107">
        <ele>752</ele>
        <time>2015-04-11T14:17:48.067Z</time>
      </trkpt>
      <trkpt lat="43.77195" lon="3.46094">
        <ele>753</ele>
        <time>2015-04-11T14:17:58.048Z</time>
      </trkpt>
      <trkpt lat="43.77189" lon="3.46084">
        <ele>750</ele>
        <time>2015-04-11T14:18:08.284Z</time>
      </trkpt>
      <trkpt lat="43.77184" lon="3.46063">
        <ele>748</ele>
        <time>2015-04-11T14:18:34.164Z</time>
      </trkpt>
      <trkpt lat="43.77185" lon="3.46059">
        <ele>761</ele>
        <time>2015-04-11T14:18:39.080Z</time>
      </trkpt>
      <trkpt lat="43.77186" lon="3.46047">
        <ele>750</ele>
        <time>2015-04-11T14:18:54.119Z</time>
      </trkpt>
      <trkpt lat="43.77186" lon="3.46047">
        <ele>754</ele>
        <time>2015-04-11T14:18:55.280Z</time>
      </trkpt>
      <trkpt lat="43.77185" lon="3.46045">
        <ele>755</ele>
        <time>2015-04-11T14:18:58.222Z</time>
      </trkpt>
      <trkpt lat="43.77189" lon="3.4604">
        <ele>764</ele>
        <time>2015-04-11T14:19:09.095Z</time>
      </trkpt>
      <trkpt lat="43.7719" lon="3.46034">
        <ele>770</ele>
        <time>2015-04-11T14:19:51.557Z</time>
      </trkpt>
      <trkpt lat="43.77197" lon="3.4603">
        <ele>751</ele>
        <time>2015-04-11T14:20:10.072Z</time>
      </trkpt>
      <trkpt lat="43.77198" lon="3.4603">
        <ele>753</ele>
        <time>2015-04-11T14:20:11.114Z</time>
      </trkpt>
      <trkpt lat="43.77201" lon="3.4603">
        <ele>750</ele>
        <time>2015-04-11T14:20:30.050Z</time>
      </trkpt>
      <trkpt lat="43.77203" lon="3.46028">
        <ele>760</ele>
        <time>2015-04-11T14:20:38.084Z</time>
      </trkpt>
      <trkpt lat="43.7721" lon="3.46025">
        <ele>757</ele>
        <time>2015-04-11T14:20:54.983Z</time>
      </trkpt>
      <trkpt lat="43.77218" lon="3.46019">
        <ele>760</ele>
        <time>2015-04-11T14:21:05.276Z</time>
      </trkpt>
      <trkpt lat="43.77223" lon="3.46015">
        <ele>754</ele>
        <time>2015-04-11T14:21:19.056Z</time>
      </trkpt>
      <trkpt lat="43.77223" lon="3.46015">
        <ele>755</ele>
        <time>2015-04-11T14:21:20.042Z</time>
      </trkpt>
      <trkpt lat="43.77223" lon="3.46015">
        <ele>757</ele>
        <time>2015-04-11T14:21:23.054Z</time>
      </trkpt>
      <trkpt lat="43.77223" lon="3.46015">
        <ele>757</ele>
        <time>2015-04-11T14:21:26.307Z</time>
      </trkpt>
      <trkpt lat="43.77221" lon="3.4601">
        <ele>748</ele>
        <time>2015-04-11T14:21:36.310Z</time>
      </trkpt>
      <trkpt lat="43.77219" lon="3.46006">
        <ele>755</ele>
        <time>2015-04-11T14:21:48.055Z</time>
      </trkpt>
      <trkpt lat="43.77217" lon="3.46004">
        <ele>752</ele>
        <time>2015-04-11T14:21:53.054Z</time>
      </trkpt>
      <trkpt lat="43.77215" lon="3.45995">
        <ele>752</ele>
        <time>2015-04-11T14:22:24.991Z</time>
      </trkpt>
      <trkpt lat="43.77212" lon="3.45997">
        <ele>747</ele>
        <time>2015-04-11T14:22:41.077Z</time>
      </trkpt>
      <trkpt lat="43.77213" lon="3.45995">
        <ele>750</ele>
        <time>2015-04-11T14:23:14.066Z</time>
      </trkpt>
      <trkpt lat="43.77214" lon="3.45995">
        <ele>751</ele>
        <time>2015-04-11T14:23:15.058Z</time>
      </trkpt>
      <trkpt lat="43.77219" lon="3.46">
        <ele>748</ele>
        <time>2015-04-11T14:23:44.056Z</time>
      </trkpt>
      <trkpt lat="43.77221" lon="3.46005">
        <ele>748</ele>
        <time>2015-04-11T14:23:53.631Z</time>
      </trkpt>
      <trkpt lat="43.77221" lon="3.46006">
        <ele>747</ele>
        <time>2015-04-11T14:23:54.132Z</time>
      </trkpt>
      <trkpt lat="43.77223" lon="3.46009">
        <ele>747</ele>
        <time>2015-04-11T14:24:04.143Z</time>
      </trkpt>
      <trkpt lat="43.77227" lon="3.4603">
        <ele>749</ele>
        <time>2015-04-11T14:24:34.180Z</time>
      </trkpt>
      <trkpt lat="43.77227" lon="3.46031">
        <ele>750</ele>
        <time>2015-04-11T14:24:36.102Z</time>
      </trkpt>
      <trkpt lat="43.77225" lon="3.46033">
        <ele>745</ele>
        <time>2015-04-11T14:24:50.540Z</time>
      </trkpt>
      <trkpt lat="43.7722" lon="3.46043">
        <ele>747</ele>
        <time>2015-04-11T14:24:59.148Z</time>
      </trkpt>
      <trkpt lat="43.77219" lon="3.46044">
        <ele>749</ele>
        <time>2015-04-11T14:25:00.355Z</time>
      </trkpt>
      <trkpt lat="43.7721" lon="3.46045">
        <ele>756</ele>
        <time>2015-04-11T14:25:11.064Z</time>
      </trkpt>
      <trkpt lat="43.7721" lon="3.46044">
        <ele>751</ele>
        <time>2015-04-11T14:25:12.147Z</time>
      </trkpt>
      <trkpt lat="43.77201" lon="3.46046">
        <ele>756</ele>
        <time>2015-04-11T14:25:20.042Z</time>
      </trkpt>
      <trkpt lat="43.772" lon="3.46047">
        <ele>757</ele>
        <time>2015-04-11T14:25:21.291Z</time>
      </trkpt>
      <trkpt lat="43.77197" lon="3.46047">
        <ele>743</ele>
        <time>2015-04-11T14:25:30.343Z</time>
      </trkpt>
      <trkpt lat="43.77189" lon="3.46054">
        <ele>761</ele>
        <time>2015-04-11T14:25:44.057Z</time>
      </trkpt>
      <trkpt lat="43.77189" lon="3.46055">
        <ele>762</ele>
        <time>2015-04-11T14:25:45.064Z</time>
      </trkpt>
      <trkpt lat="43.77188" lon="3.46067">
        <ele>757</ele>
        <time>2015-04-11T14:25:56.053Z</time>
      </trkpt>
      <trkpt lat="43.7719" lon="3.46082">
        <ele>746</ele>
        <time>2015-04-11T14:26:05.053Z</time>
      </trkpt>
      <trkpt lat="43.77194" lon="3.46095">
        <ele>754</ele>
        <time>2015-04-11T14:26:13.064Z</time>
      </trkpt>
      <trkpt lat="43.77194" lon="3.46107">
        <ele>753</ele>
        <time>2015-04-11T14:26:21.083Z</time>
      </trkpt>
      <trkpt lat="43.77194" lon="3.4612">
        <ele>755</ele>
        <time>2015-04-11T14:26:29.049Z</time>
      </trkpt>
      <trkpt lat="43.77194" lon="3.46134">
        <ele>754</ele>
        <time>2015-04-11T14:26:38.049Z</time>
      </trkpt>
      <trkpt lat="43.77192" lon="3.46148">
        <ele>755</ele>
        <time>2015-04-11T14:26:46.234Z</time>
      </trkpt>
      <trkpt lat="43.77188" lon="3.46158">
        <ele>753</ele>
        <time>2015-04-11T14:26:52.280Z</time>
      </trkpt>
      <trkpt lat="43.77181" lon="3.46169">
        <ele>748</ele>
        <time>2015-04-11T14:27:02.049Z</time>
      </trkpt>
      <trkpt lat="43.77175" lon="3.46172">
        <ele>752</ele>
        <time>2015-04-11T14:27:11.297Z</time>
      </trkpt>
      <trkpt lat="43.77174" lon="3.4617">
        <ele>753</ele>
        <time>2015-04-11T14:27:12.314Z</time>
      </trkpt>
      <trkpt lat="43.77173" lon="3.46168">
        <ele>751</ele>
        <time>2015-04-11T14:27:14.276Z</time>
      </trkpt>
      <trkpt lat="43.77165" lon="3.46161">
        <ele>752</ele>
        <time>2015-04-11T14:27:23.054Z</time>
      </trkpt>
      <trkpt lat="43.77157" lon="3.46155">
        <ele>757</ele>
        <time>2015-04-11T14:27:31.042Z</time>
      </trkpt>
      <trkpt lat="43.77156" lon="3.46155">
        <ele>755</ele>
        <time>2015-04-11T14:27:32.224Z</time>
      </trkpt>
      <trkpt lat="43.77149" lon="3.46149">
        <ele>755</ele>
        <time>2015-04-11T14:27:40.367Z</time>
      </trkpt>
      <trkpt lat="43.77149" lon="3.46148">
        <ele>755</ele>
        <time>2015-04-11T14:27:41.431Z</time>
      </trkpt>
      <trkpt lat="43.77132" lon="3.46135">
        <ele>755</ele>
        <time>2015-04-11T14:27:57.981Z</time>
      </trkpt>
      <trkpt lat="43.77125" lon="3.46133">
        <ele>750</ele>
        <time>2015-04-11T14:28:04.296Z</time>
      </trkpt>
      <trkpt lat="43.77118" lon="3.46127">
        <ele>749</ele>
        <time>2015-04-11T14:28:12.069Z</time>
      </trkpt>
      <trkpt lat="43.77116" lon="3.46128">
        <ele>749</ele>
        <time>2015-04-11T14:28:13.118Z</time>
      </trkpt>
      <trkpt lat="43.77108" lon="3.46123">
        <ele>747</ele>
        <time>2015-04-11T14:28:23.094Z</time>
      </trkpt>
      <trkpt lat="43.77098" lon="3.46121">
        <ele>744</ele>
        <time>2015-04-11T14:28:33Z</time>
      </trkpt>
      <trkpt lat="43.77091" lon="3.46116">
        <ele>743</ele>
        <time>2015-04-11T14:28:43.221Z</time>
      </trkpt>
      <trkpt lat="43.77084" lon="3.46108">
        <ele>739</ele>
        <time>2015-04-11T14:28:51.058Z</time>
      </trkpt>
      <trkpt lat="43.77066" lon="3.46103">
        <ele>744</ele>
        <time>2015-04-11T14:29:08.036Z</time>
      </trkpt>
      <trkpt lat="43.77058" lon="3.46104">
        <ele>750</ele>
        <time>2015-04-11T14:29:14.197Z</time>
      </trkpt>
      <trkpt lat="43.77056" lon="3.46103">
        <ele>750</ele>
        <time>2015-04-11T14:29:15.083Z</time>
      </trkpt>
      <trkpt lat="43.77047" lon="3.46101">
        <ele>746</ele>
        <time>2015-04-11T14:29:24.036Z</time>
      </trkpt>
      <trkpt lat="43.77038" lon="3.46095">
        <ele>752</ele>
        <time>2015-04-11T14:29:33.032Z</time>
      </trkpt>
      <trkpt lat="43.7703" lon="3.46087">
        <ele>761</ele>
        <time>2015-04-11T14:29:43.021Z</time>
      </trkpt>
      <trkpt lat="43.77023" lon="3.46078">
        <ele>766</ele>
        <time>2015-04-11T14:29:53.086Z</time>
      </trkpt>
      <trkpt lat="43.77022" lon="3.46074">
        <ele>764</ele>
        <time>2015-04-11T14:29:58.990Z</time>
      </trkpt>
      <trkpt lat="43.77021" lon="3.46074">
        <ele>764</ele>
        <time>2015-04-11T14:30:00.005Z</time>
      </trkpt>
      <trkpt lat="43.7702" lon="3.46072">
        <ele>761</ele>
        <time>2015-04-11T14:30:03.310Z</time>
      </trkpt>
      <trkpt lat="43.7702" lon="3.4607">
        <ele>766</ele>
        <time>2015-04-11T14:30:04.133Z</time>
      </trkpt>
      <trkpt lat="43.77016" lon="3.4606">
        <ele>767</ele>
        <time>2015-04-11T14:30:12.057Z</time>
      </trkpt>
      <trkpt lat="43.77011" lon="3.46048">
        <ele>767</ele>
        <time>2015-04-11T14:30:20.048Z</time>
      </trkpt>
      <trkpt lat="43.7701" lon="3.46041">
        <ele>768</ele>
        <time>2015-04-11T14:30:30.072Z</time>
      </trkpt>
      <trkpt lat="43.77009" lon="3.46039">
        <ele>766</ele>
        <time>2015-04-11T14:30:31.982Z</time>
      </trkpt>
      <trkpt lat="43.77004" lon="3.46026">
        <ele>769</ele>
        <time>2015-04-11T14:30:42.014Z</time>
      </trkpt>
      <trkpt lat="43.76999" lon="3.46001">
        <ele>771</ele>
        <time>2015-04-11T14:30:59.048Z</time>
      </trkpt>
      <trkpt lat="43.76995" lon="3.4599">
        <ele>774</ele>
        <time>2015-04-11T14:31:09.039Z</time>
      </trkpt>
      <trkpt lat="43.76993" lon="3.45976">
        <ele>771</ele>
        <time>2015-04-11T14:31:20.292Z</time>
      </trkpt>
      <trkpt lat="43.76991" lon="3.45965">
        <ele>771</ele>
        <time>2015-04-11T14:31:28.161Z</time>
      </trkpt>
      <trkpt lat="43.7699" lon="3.4595">
        <ele>779</ele>
        <time>2015-04-11T14:31:37.212Z</time>
      </trkpt>
      <trkpt lat="43.76989" lon="3.45945">
        <ele>775</ele>
        <time>2015-04-11T14:31:42.059Z</time>
      </trkpt>
      <trkpt lat="43.76988" lon="3.45935">
        <ele>772</ele>
        <time>2015-04-11T14:31:47.070Z</time>
      </trkpt>
      <trkpt lat="43.76987" lon="3.45921">
        <ele>775</ele>
        <time>2015-04-11T14:31:54.286Z</time>
      </trkpt>
      <trkpt lat="43.76983" lon="3.45907">
        <ele>775</ele>
        <time>2015-04-11T14:32:04.246Z</time>
      </trkpt>
      <trkpt lat="43.76974" lon="3.45886">
        <ele>780</ele>
        <time>2015-04-11T14:32:21.139Z</time>
      </trkpt>
      <trkpt lat="43.76968" lon="3.45874">
        <ele>772</ele>
        <time>2015-04-11T14:32:31.073Z</time>
      </trkpt>
      <trkpt lat="43.76967" lon="3.45873">
        <ele>771</ele>
        <time>2015-04-11T14:32:32.305Z</time>
      </trkpt>
      <trkpt lat="43.76965" lon="3.45869">
        <ele>770</ele>
        <time>2015-04-11T14:32:34.306Z</time>
      </trkpt>
      <trkpt lat="43.76958" lon="3.4586">
        <ele>765</ele>
        <time>2015-04-11T14:32:39.072Z</time>
      </trkpt>
      <trkpt lat="43.76952" lon="3.45856">
        <ele>763</ele>
        <time>2015-04-11T14:32:54.146Z</time>
      </trkpt>
      <trkpt lat="43.76951" lon="3.45854">
        <ele>762</ele>
        <time>2015-04-11T14:32:56.597Z</time>
      </trkpt>
      <trkpt lat="43.76943" lon="3.45845">
        <ele>769</ele>
        <time>2015-04-11T14:33:02.070Z</time>
      </trkpt>
      <trkpt lat="43.76936" lon="3.4584">
        <ele>769</ele>
        <time>2015-04-11T14:33:10.076Z</time>
      </trkpt>
      <trkpt lat="43.76925" lon="3.45835">
        <ele>776</ele>
        <time>2015-04-11T14:33:19.077Z</time>
      </trkpt>
      <trkpt lat="43.76917" lon="3.4583">
        <ele>770</ele>
        <time>2015-04-11T14:33:27.083Z</time>
      </trkpt>
      <trkpt lat="43.7691" lon="3.45821">
        <ele>774</ele>
        <time>2015-04-11T14:33:35.190Z</time>
      </trkpt>
      <trkpt lat="43.76904" lon="3.45811">
        <ele>778</ele>
        <time>2015-04-11T14:33:43.075Z</time>
      </trkpt>
      <trkpt lat="43.76897" lon="3.45801">
        <ele>772</ele>
        <time>2015-04-11T14:33:51.066Z</time>
      </trkpt>
      <trkpt lat="43.76884" lon="3.4577">
        <ele>772</ele>
        <time>2015-04-11T14:34:15.218Z</time>
      </trkpt>
      <trkpt lat="43.76884" lon="3.45769">
        <ele>772</ele>
        <time>2015-04-11T14:34:16.123Z</time>
      </trkpt>
      <trkpt lat="43.76885" lon="3.45753">
        <ele>779</ele>
        <time>2015-04-11T14:34:25.066Z</time>
      </trkpt>
      <trkpt lat="43.76888" lon="3.45741">
        <ele>778</ele>
        <time>2015-04-11T14:34:31.064Z</time>
      </trkpt>
      <trkpt lat="43.76891" lon="3.4573">
        <ele>773</ele>
        <time>2015-04-11T14:34:39.097Z</time>
      </trkpt>
      <trkpt lat="43.76897" lon="3.45716">
        <ele>773</ele>
        <time>2015-04-11T14:34:46.072Z</time>
      </trkpt>
      <trkpt lat="43.76911" lon="3.457">
        <ele>772</ele>
        <time>2015-04-11T14:35:04.081Z</time>
      </trkpt>
      <trkpt lat="43.76918" lon="3.4569">
        <ele>774</ele>
        <time>2015-04-11T14:35:12.068Z</time>
      </trkpt>
      <trkpt lat="43.76926" lon="3.45683">
        <ele>776</ele>
        <time>2015-04-11T14:35:21.376Z</time>
      </trkpt>
      <trkpt lat="43.76935" lon="3.45679">
        <ele>776</ele>
        <time>2015-04-11T14:35:29.171Z</time>
      </trkpt>
      <trkpt lat="43.76955" lon="3.45676">
        <ele>771</ele>
        <time>2015-04-11T14:35:48.065Z</time>
      </trkpt>
      <trkpt lat="43.76965" lon="3.45677">
        <ele>775</ele>
        <time>2015-04-11T14:35:55.102Z</time>
      </trkpt>
      <trkpt lat="43.76973" lon="3.45673">
        <ele>772</ele>
        <time>2015-04-11T14:36:06.198Z</time>
      </trkpt>
      <trkpt lat="43.76981" lon="3.4567">
        <ele>770</ele>
        <time>2015-04-11T14:36:14.173Z</time>
      </trkpt>
      <trkpt lat="43.76993" lon="3.45669">
        <ele>772</ele>
        <time>2015-04-11T14:36:23.063Z</time>
      </trkpt>
      <trkpt lat="43.77002" lon="3.45667">
        <ele>772</ele>
        <time>2015-04-11T14:36:31.052Z</time>
      </trkpt>
      <trkpt lat="43.7701" lon="3.45664">
        <ele>774</ele>
        <time>2015-04-11T14:36:39.161Z</time>
      </trkpt>
      <trkpt lat="43.77019" lon="3.45658">
        <ele>771</ele>
        <time>2015-04-11T14:36:53.089Z</time>
      </trkpt>
      <trkpt lat="43.7703" lon="3.45652">
        <ele>778</ele>
        <time>2015-04-11T14:37:06.697Z</time>
      </trkpt>
      <trkpt lat="43.77037" lon="3.45651">
        <ele>778</ele>
        <time>2015-04-11T14:37:17.037Z</time>
      </trkpt>
      <trkpt lat="43.7704" lon="3.45649">
        <ele>778</ele>
        <time>2015-04-11T14:37:18.085Z</time>
      </trkpt>
      <trkpt lat="43.77048" lon="3.45647">
        <ele>767</ele>
        <time>2015-04-11T14:38:12.154Z</time>
      </trkpt>
      <trkpt lat="43.77053" lon="3.4564">
        <ele>766</ele>
        <time>2015-04-11T14:38:12.990Z</time>
      </trkpt>
      <trkpt lat="43.77057" lon="3.45632">
        <ele>776</ele>
        <time>2015-04-11T14:38:21.988Z</time>
      </trkpt>
      <trkpt lat="43.77058" lon="3.45631">
        <ele>777</ele>
        <time>2015-04-11T14:38:22.991Z</time>
      </trkpt>
      <trkpt lat="43.77062" lon="3.45622">
        <ele>787</ele>
        <time>2015-04-11T14:38:45.049Z</time>
      </trkpt>
      <trkpt lat="43.77063" lon="3.4562">
        <ele>789</ele>
        <time>2015-04-11T14:38:47.275Z</time>
      </trkpt>
      <trkpt lat="43.77076" lon="3.45599">
        <ele>786</ele>
        <time>2015-04-11T14:39:04.059Z</time>
      </trkpt>
      <trkpt lat="43.77082" lon="3.45592">
        <ele>788</ele>
        <time>2015-04-11T14:39:25.070Z</time>
      </trkpt>
      <trkpt lat="43.77091" lon="3.4559">
        <ele>788</ele>
        <time>2015-04-11T14:39:35.196Z</time>
      </trkpt>
      <trkpt lat="43.771" lon="3.45587">
        <ele>786</ele>
        <time>2015-04-11T14:39:44.385Z</time>
      </trkpt>
      <trkpt lat="43.7711" lon="3.45585">
        <ele>785</ele>
        <time>2015-04-11T14:39:53.070Z</time>
      </trkpt>
      <trkpt lat="43.7712" lon="3.45585">
        <ele>785</ele>
        <time>2015-04-11T14:40:05.096Z</time>
      </trkpt>
      <trkpt lat="43.77132" lon="3.45587">
        <ele>787</ele>
        <time>2015-04-11T14:40:19.095Z</time>
      </trkpt>
      <trkpt lat="43.77132" lon="3.45588">
        <ele>786</ele>
        <time>2015-04-11T14:40:20.471Z</time>
      </trkpt>
      <trkpt lat="43.77132" lon="3.45589">
        <ele>783</ele>
        <time>2015-04-11T14:40:30.204Z</time>
      </trkpt>
      <trkpt lat="43.77135" lon="3.4559">
        <ele>791</ele>
        <time>2015-04-11T14:40:34.244Z</time>
      </trkpt>
      <trkpt lat="43.77145" lon="3.45589">
        <ele>791</ele>
        <time>2015-04-11T14:40:43.287Z</time>
      </trkpt>
      <trkpt lat="43.77154" lon="3.45587">
        <ele>790</ele>
        <time>2015-04-11T14:40:53.084Z</time>
      </trkpt>
      <trkpt lat="43.77163" lon="3.45584">
        <ele>790</ele>
        <time>2015-04-11T14:41:04.062Z</time>
      </trkpt>
      <trkpt lat="43.77172" lon="3.45582">
        <ele>794</ele>
        <time>2015-04-11T14:41:14.056Z</time>
      </trkpt>
      <trkpt lat="43.77177" lon="3.45578">
        <ele>792</ele>
        <time>2015-04-11T14:41:32.073Z</time>
      </trkpt>
      <trkpt lat="43.77178" lon="3.45578">
        <ele>794</ele>
        <time>2015-04-11T14:41:40.051Z</time>
      </trkpt>
      <trkpt lat="43.77186" lon="3.45571">
        <ele>791</ele>
        <time>2015-04-11T14:41:51.350Z</time>
      </trkpt>
      <trkpt lat="43.77194" lon="3.45565">
        <ele>797</ele>
        <time>2015-04-11T14:42:02.313Z</time>
      </trkpt>
      <trkpt lat="43.77199" lon="3.45554">
        <ele>798</ele>
        <time>2015-04-11T14:42:14.081Z</time>
      </trkpt>
      <trkpt lat="43.77211" lon="3.45531">
        <ele>798</ele>
        <time>2015-04-11T14:42:34.303Z</time>
      </trkpt>
      <trkpt lat="43.77217" lon="3.45521">
        <ele>800</ele>
        <time>2015-04-11T14:42:44.103Z</time>
      </trkpt>
      <trkpt lat="43.77226" lon="3.45515">
        <ele>794</ele>
        <time>2015-04-11T14:43:02.992Z</time>
      </trkpt>
      <trkpt lat="43.77227" lon="3.45513">
        <ele>799</ele>
        <time>2015-04-11T14:43:06.199Z</time>
      </trkpt>
      <trkpt lat="43.77227" lon="3.45512">
        <ele>796</ele>
        <time>2015-04-11T14:43:07.089Z</time>
      </trkpt>
      <trkpt lat="43.77234" lon="3.45508">
        <ele>798</ele>
        <time>2015-04-11T14:43:16.132Z</time>
      </trkpt>
      <trkpt lat="43.77243" lon="3.45501">
        <ele>804</ele>
        <time>2015-04-11T14:43:27.202Z</time>
      </trkpt>
      <trkpt lat="43.7726" lon="3.4549">
        <ele>799</ele>
        <time>2015-04-11T14:43:45.362Z</time>
      </trkpt>
      <trkpt lat="43.7726" lon="3.45489">
        <ele>799</ele>
        <time>2015-04-11T14:43:46.122Z</time>
      </trkpt>
      <trkpt lat="43.77267" lon="3.45481">
        <ele>800</ele>
        <time>2015-04-11T14:43:56.291Z</time>
      </trkpt>
      <trkpt lat="43.77268" lon="3.45481">
        <ele>800</ele>
        <time>2015-04-11T14:43:57.119Z</time>
      </trkpt>
      <trkpt lat="43.77274" lon="3.45473">
        <ele>800</ele>
        <time>2015-04-11T14:44:07.397Z</time>
      </trkpt>
      <trkpt lat="43.77274" lon="3.45471">
        <ele>800</ele>
        <time>2015-04-11T14:44:08.407Z</time>
      </trkpt>
      <trkpt lat="43.77277" lon="3.45461">
        <ele>809</ele>
        <time>2015-04-11T14:44:39.160Z</time>
      </trkpt>
      <trkpt lat="43.77279" lon="3.45459">
        <ele>805</ele>
        <time>2015-04-11T14:44:42.083Z</time>
      </trkpt>
      <trkpt lat="43.77289" lon="3.45457">
        <ele>805</ele>
        <time>2015-04-11T14:44:53.454Z</time>
      </trkpt>
      <trkpt lat="43.77296" lon="3.45452">
        <ele>807</ele>
        <time>2015-04-11T14:45:01.162Z</time>
      </trkpt>
      <trkpt lat="43.77304" lon="3.45445">
        <ele>805</ele>
        <time>2015-04-11T14:45:12.066Z</time>
      </trkpt>
      <trkpt lat="43.77313" lon="3.45439">
        <ele>809</ele>
        <time>2015-04-11T14:45:23.373Z</time>
      </trkpt>
      <trkpt lat="43.77321" lon="3.4543">
        <ele>807</ele>
        <time>2015-04-11T14:45:33.053Z</time>
      </trkpt>
      <trkpt lat="43.77326" lon="3.45419">
        <ele>816</ele>
        <time>2015-04-11T14:45:49.056Z</time>
      </trkpt>
      <trkpt lat="43.77331" lon="3.45406">
        <ele>805</ele>
        <time>2015-04-11T14:46:03.157Z</time>
      </trkpt>
      <trkpt lat="43.77337" lon="3.45396">
        <ele>811</ele>
        <time>2015-04-11T14:46:17.167Z</time>
      </trkpt>
      <trkpt lat="43.77346" lon="3.45373">
        <ele>803</ele>
        <time>2015-04-11T14:46:42.051Z</time>
      </trkpt>
      <trkpt lat="43.77351" lon="3.45363">
        <ele>809</ele>
        <time>2015-04-11T14:46:50.340Z</time>
      </trkpt>
      <trkpt lat="43.77356" lon="3.45351">
        <ele>811</ele>
        <time>2015-04-11T14:47:05.070Z</time>
      </trkpt>
      <trkpt lat="43.77363" lon="3.45342">
        <ele>804</ele>
        <time>2015-04-11T14:47:15.169Z</time>
      </trkpt>
      <trkpt lat="43.77371" lon="3.45335">
        <ele>805</ele>
        <time>2015-04-11T14:47:23.114Z</time>
      </trkpt>
      <trkpt lat="43.77378" lon="3.45326">
        <ele>811</ele>
        <time>2015-04-11T14:47:33.135Z</time>
      </trkpt>
      <trkpt lat="43.77378" lon="3.45325">
        <ele>810</ele>
        <time>2015-04-11T14:47:34.052Z</time>
      </trkpt>
      <trkpt lat="43.77376" lon="3.45312">
        <ele>811</ele>
        <time>2015-04-11T14:47:48.238Z</time>
      </trkpt>
      <trkpt lat="43.77378" lon="3.45299">
        <ele>815</ele>
        <time>2015-04-11T14:47:58.154Z</time>
      </trkpt>
      <trkpt lat="43.7738" lon="3.45294">
        <ele>810</ele>
        <time>2015-04-11T14:48:05.050Z</time>
      </trkpt>
      <trkpt lat="43.77383" lon="3.4529">
        <ele>807</ele>
        <time>2015-04-11T14:48:08.094Z</time>
      </trkpt>
      <trkpt lat="43.77392" lon="3.45269">
        <ele>813</ele>
        <time>2015-04-11T14:48:31.302Z</time>
      </trkpt>
      <trkpt lat="43.77393" lon="3.45266">
        <ele>803</ele>
        <time>2015-04-11T14:48:36.164Z</time>
      </trkpt>
      <trkpt lat="43.77393" lon="3.45262">
        <ele>807</ele>
        <time>2015-04-11T14:48:42.338Z</time>
      </trkpt>
      <trkpt lat="43.77391" lon="3.45258">
        <ele>801</ele>
        <time>2015-04-11T14:48:49.241Z</time>
      </trkpt>
      <trkpt lat="43.77391" lon="3.45252">
        <ele>807</ele>
        <time>2015-04-11T14:48:57.051Z</time>
      </trkpt>
      <trkpt lat="43.77387" lon="3.45245">
        <ele>812</ele>
        <time>2015-04-11T14:49:22.572Z</time>
      </trkpt>
      <trkpt lat="43.77386" lon="3.45232">
        <ele>805</ele>
        <time>2015-04-11T14:49:29.315Z</time>
      </trkpt>
      <trkpt lat="43.77386" lon="3.45216">
        <ele>798</ele>
        <time>2015-04-11T14:49:39.058Z</time>
      </trkpt>
      <trkpt lat="43.77388" lon="3.45213">
        <ele>792</ele>
        <time>2015-04-11T14:49:43.043Z</time>
      </trkpt>
      <trkpt lat="43.77388" lon="3.452">
        <ele>802</ele>
        <time>2015-04-11T14:49:53.553Z</time>
      </trkpt>
      <trkpt lat="43.77391" lon="3.45188">
        <ele>804</ele>
        <time>2015-04-11T14:50:01.161Z</time>
      </trkpt>
      <trkpt lat="43.77394" lon="3.45177">
        <ele>801</ele>
        <time>2015-04-11T14:50:09.366Z</time>
      </trkpt>
      <trkpt lat="43.774" lon="3.45165">
        <ele>803</ele>
        <time>2015-04-11T14:50:19.049Z</time>
      </trkpt>
      <trkpt lat="43.77405" lon="3.45156">
        <ele>806</ele>
        <time>2015-04-11T14:50:36.047Z</time>
      </trkpt>
      <trkpt lat="43.77409" lon="3.4514">
        <ele>800</ele>
        <time>2015-04-11T14:50:46.058Z</time>
      </trkpt>
      <trkpt lat="43.77411" lon="3.45127">
        <ele>792</ele>
        <time>2015-04-11T14:50:55.055Z</time>
      </trkpt>
      <trkpt lat="43.77411" lon="3.45114">
        <ele>797</ele>
        <time>2015-04-11T14:51:05.085Z</time>
      </trkpt>
      <trkpt lat="43.77419" lon="3.45091">
        <ele>794</ele>
        <time>2015-04-11T14:51:23.084Z</time>
      </trkpt>
      <trkpt lat="43.7743" lon="3.4507">
        <ele>798</ele>
        <time>2015-04-11T14:51:39.340Z</time>
      </trkpt>
      <trkpt lat="43.77435" lon="3.45059">
        <ele>799</ele>
        <time>2015-04-11T14:51:50.497Z</time>
      </trkpt>
      <trkpt lat="43.77441" lon="3.45034">
        <ele>782</ele>
        <time>2015-04-11T14:52:18.038Z</time>
      </trkpt>
      <trkpt lat="43.77441" lon="3.45032">
        <ele>785</ele>
        <time>2015-04-11T14:52:20.339Z</time>
      </trkpt>
      <trkpt lat="43.7744" lon="3.45032">
        <ele>790</ele>
        <time>2015-04-11T14:52:34.042Z</time>
      </trkpt>
      <trkpt lat="43.7744" lon="3.45031">
        <ele>797</ele>
        <time>2015-04-11T14:52:36.093Z</time>
      </trkpt>
      <trkpt lat="43.7744" lon="3.45031">
        <ele>801</ele>
        <time>2015-04-11T14:52:37.076Z</time>
      </trkpt>
      <trkpt lat="43.77444" lon="3.45019">
        <ele>807</ele>
        <time>2015-04-11T14:52:51.434Z</time>
      </trkpt>
      <trkpt lat="43.77447" lon="3.45012">
        <ele>820</ele>
        <time>2015-04-11T14:53:04.042Z</time>
      </trkpt>
      <trkpt lat="43.77447" lon="3.45011">
        <ele>822</ele>
        <time>2015-04-11T14:53:06.183Z</time>
      </trkpt>
      <trkpt lat="43.77449" lon="3.45">
        <ele>821</ele>
        <time>2015-04-11T14:53:11.204Z</time>
      </trkpt>
      <trkpt lat="43.77449" lon="3.44995">
        <ele>818</ele>
        <time>2015-04-11T14:53:14.700Z</time>
      </trkpt>
      <trkpt lat="43.7745" lon="3.4499">
        <ele>818</ele>
        <time>2015-04-11T14:53:17.286Z</time>
      </trkpt>
      <trkpt lat="43.77453" lon="3.44975">
        <ele>811</ele>
        <time>2015-04-11T14:53:23.344Z</time>
      </trkpt>
      <trkpt lat="43.77455" lon="3.44963">
        <ele>813</ele>
        <time>2015-04-11T14:53:30.986Z</time>
      </trkpt>
      <trkpt lat="43.77458" lon="3.4496">
        <ele>818</ele>
        <time>2015-04-11T14:53:38.105Z</time>
      </trkpt>
      <trkpt lat="43.77459" lon="3.4496">
        <ele>813</ele>
        <time>2015-04-11T14:53:41.133Z</time>
      </trkpt>
      <trkpt lat="43.77464" lon="3.44949">
        <ele>811</ele>
        <time>2015-04-11T14:53:52.300Z</time>
      </trkpt>
      <trkpt lat="43.77464" lon="3.44949">
        <ele>811</ele>
        <time>2015-04-11T14:53:53.072Z</time>
      </trkpt>
      <trkpt lat="43.77467" lon="3.44943">
        <ele>813</ele>
        <time>2015-04-11T14:54:03.090Z</time>
      </trkpt>
      <trkpt lat="43.77468" lon="3.44941">
        <ele>817</ele>
        <time>2015-04-11T14:54:16.550Z</time>
      </trkpt>
      <trkpt lat="43.77467" lon="3.44927">
        <ele>810</ele>
        <time>2015-04-11T14:54:31.059Z</time>
      </trkpt>
      <trkpt lat="43.77469" lon="3.44922">
        <ele>811</ele>
        <time>2015-04-11T14:54:32.065Z</time>
      </trkpt>
      <trkpt lat="43.7747" lon="3.44915">
        <ele>809</ele>
        <time>2015-04-11T14:54:40.088Z</time>
      </trkpt>
      <trkpt lat="43.77476" lon="3.44897">
        <ele>819</ele>
        <time>2015-04-11T14:55:07.071Z</time>
      </trkpt>
      <trkpt lat="43.77476" lon="3.44896">
        <ele>819</ele>
        <time>2015-04-11T14:55:08.094Z</time>
      </trkpt>
      <trkpt lat="43.77474" lon="3.44883">
        <ele>820</ele>
        <time>2015-04-11T14:55:17.090Z</time>
      </trkpt>
      <trkpt lat="43.7747" lon="3.44873">
        <ele>818</ele>
        <time>2015-04-11T14:55:25.053Z</time>
      </trkpt>
      <trkpt lat="43.77469" lon="3.44865">
        <ele>812</ele>
        <time>2015-04-11T14:55:37.069Z</time>
      </trkpt>
      <trkpt lat="43.77467" lon="3.4486">
        <ele>818</ele>
        <time>2015-04-11T14:55:40.020Z</time>
      </trkpt>
      <trkpt lat="43.77466" lon="3.44833">
        <ele>825</ele>
        <time>2015-04-11T14:55:54.404Z</time>
      </trkpt>
      <trkpt lat="43.77466" lon="3.44822">
        <ele>815</ele>
        <time>2015-04-11T14:56:01.071Z</time>
      </trkpt>
      <trkpt lat="43.77469" lon="3.44807">
        <ele>801</ele>
        <time>2015-04-11T14:56:20.140Z</time>
      </trkpt>
      <trkpt lat="43.77473" lon="3.44792">
        <ele>817</ele>
        <time>2015-04-11T14:56:31.391Z</time>
      </trkpt>
      <trkpt lat="43.77479" lon="3.44779">
        <ele>818</ele>
        <time>2015-04-11T14:56:42.268Z</time>
      </trkpt>
      <trkpt lat="43.77481" lon="3.44775">
        <ele>820</ele>
        <time>2015-04-11T14:56:50.050Z</time>
      </trkpt>
      <trkpt lat="43.77482" lon="3.44771">
        <ele>812</ele>
        <time>2015-04-11T14:56:53.556Z</time>
      </trkpt>
      <trkpt lat="43.77487" lon="3.44762">
        <ele>816</ele>
        <time>2015-04-11T14:57:00.304Z</time>
      </trkpt>
      <trkpt lat="43.77494" lon="3.44753">
        <ele>814</ele>
        <time>2015-04-11T14:57:11.097Z</time>
      </trkpt>
      <trkpt lat="43.77494" lon="3.44752">
        <ele>814</ele>
        <time>2015-04-11T14:57:12.060Z</time>
      </trkpt>
      <trkpt lat="43.77493" lon="3.44745">
        <ele>817</ele>
        <time>2015-04-11T14:57:25.067Z</time>
      </trkpt>
      <trkpt lat="43.77492" lon="3.44744">
        <ele>811</ele>
        <time>2015-04-11T14:57:27.379Z</time>
      </trkpt>
      <trkpt lat="43.77492" lon="3.44742">
        <ele>816</ele>
        <time>2015-04-11T14:57:28.405Z</time>
      </trkpt>
      <trkpt lat="43.77488" lon="3.44731">
        <ele>818</ele>
        <time>2015-04-11T14:57:37.126Z</time>
      </trkpt>
      <trkpt lat="43.77487" lon="3.44718">
        <ele>818</ele>
        <time>2015-04-11T14:57:50.065Z</time>
      </trkpt>
      <trkpt lat="43.7749" lon="3.44704">
        <ele>817</ele>
        <time>2015-04-11T14:58:00.353Z</time>
      </trkpt>
      <trkpt lat="43.7749" lon="3.44704">
        <ele>817</ele>
        <time>2015-04-11T14:58:04.329Z</time>
      </trkpt>
      <trkpt lat="43.77494" lon="3.44688">
        <ele>820</ele>
        <time>2015-04-11T14:58:17.072Z</time>
      </trkpt>
      <trkpt lat="43.77501" lon="3.44677">
        <ele>826</ele>
        <time>2015-04-11T14:58:27.114Z</time>
      </trkpt>
      <trkpt lat="43.77501" lon="3.44675">
        <ele>818</ele>
        <time>2015-04-11T14:58:30.093Z</time>
      </trkpt>
      <trkpt lat="43.77509" lon="3.44662">
        <ele>814</ele>
        <time>2015-04-11T14:58:41.070Z</time>
      </trkpt>
      <trkpt lat="43.7751" lon="3.44659">
        <ele>808</ele>
        <time>2015-04-11T14:58:50.171Z</time>
      </trkpt>
      <trkpt lat="43.77514" lon="3.44656">
        <ele>815</ele>
        <time>2015-04-11T14:58:52.432Z</time>
      </trkpt>
      <trkpt lat="43.7752" lon="3.44645">
        <ele>818</ele>
        <time>2015-04-11T14:59:04.068Z</time>
      </trkpt>
      <trkpt lat="43.77528" lon="3.44638">
        <ele>816</ele>
        <time>2015-04-11T14:59:13.238Z</time>
      </trkpt>
      <trkpt lat="43.77537" lon="3.44633">
        <ele>822</ele>
        <time>2015-04-11T14:59:23.079Z</time>
      </trkpt>
      <trkpt lat="43.77548" lon="3.4463">
        <ele>820</ele>
        <time>2015-04-11T14:59:35.173Z</time>
      </trkpt>
      <trkpt lat="43.77557" lon="3.44631">
        <ele>822</ele>
        <time>2015-04-11T14:59:46.486Z</time>
      </trkpt>
      <trkpt lat="43.77574" lon="3.44639">
        <ele>824</ele>
        <time>2015-04-11T15:00:12.290Z</time>
      </trkpt>
      <trkpt lat="43.77576" lon="3.44641">
        <ele>824</ele>
        <time>2015-04-11T15:00:13.047Z</time>
      </trkpt>
      <trkpt lat="43.77583" lon="3.44648">
        <ele>824</ele>
        <time>2015-04-11T15:00:22.405Z</time>
      </trkpt>
      <trkpt lat="43.77583" lon="3.44649">
        <ele>823</ele>
        <time>2015-04-11T15:00:23.486Z</time>
      </trkpt>
      <trkpt lat="43.77587" lon="3.44652">
        <ele>825</ele>
        <time>2015-04-11T15:00:34.044Z</time>
      </trkpt>
      <trkpt lat="43.77588" lon="3.44655">
        <ele>823</ele>
        <time>2015-04-11T15:00:37.429Z</time>
      </trkpt>
      <trkpt lat="43.77593" lon="3.44663">
        <ele>818</ele>
        <time>2015-04-11T15:00:44.411Z</time>
      </trkpt>
      <trkpt lat="43.77599" lon="3.44673">
        <ele>820</ele>
        <time>2015-04-11T15:00:54.129Z</time>
      </trkpt>
      <trkpt lat="43.7761" lon="3.44696">
        <ele>819</ele>
        <time>2015-04-11T15:01:14.223Z</time>
      </trkpt>
      <trkpt lat="43.77616" lon="3.44704">
        <ele>818</ele>
        <time>2015-04-11T15:01:26.489Z</time>
      </trkpt>
      <trkpt lat="43.77623" lon="3.44715">
        <ele>824</ele>
        <time>2015-04-11T15:01:41.116Z</time>
      </trkpt>
      <trkpt lat="43.7763" lon="3.4472">
        <ele>819</ele>
        <time>2015-04-11T15:01:52.067Z</time>
      </trkpt>
      <trkpt lat="43.77645" lon="3.44738">
        <ele>820</ele>
        <time>2015-04-11T15:02:11.444Z</time>
      </trkpt>
      <trkpt lat="43.77647" lon="3.4474">
        <ele>818</ele>
        <time>2015-04-11T15:02:15.049Z</time>
      </trkpt>
      <trkpt lat="43.77655" lon="3.44748">
        <ele>826</ele>
        <time>2015-04-11T15:02:28.443Z</time>
      </trkpt>
      <trkpt lat="43.77656" lon="3.4475">
        <ele>835</ele>
        <time>2015-04-11T15:02:44.251Z</time>
      </trkpt>
      <trkpt lat="43.77655" lon="3.4475">
        <ele>837</ele>
        <time>2015-04-11T15:02:45.314Z</time>
      </trkpt>
      <trkpt lat="43.77658" lon="3.44767">
        <ele>827</ele>
        <time>2015-04-11T15:03:04.079Z</time>
      </trkpt>
      <trkpt lat="43.77658" lon="3.44768">
        <ele>828</ele>
        <time>2015-04-11T15:03:05.426Z</time>
      </trkpt>
      <trkpt lat="43.7766" lon="3.44782">
        <ele>830</ele>
        <time>2015-04-11T15:03:16.431Z</time>
      </trkpt>
      <trkpt lat="43.77662" lon="3.44794">
        <ele>821</ele>
        <time>2015-04-11T15:03:30.056Z</time>
      </trkpt>
      <trkpt lat="43.77662" lon="3.44796">
        <ele>823</ele>
        <time>2015-04-11T15:03:32.069Z</time>
      </trkpt>
      <trkpt lat="43.77663" lon="3.448">
        <ele>823</ele>
        <time>2015-04-11T15:03:34.059Z</time>
      </trkpt>
      <trkpt lat="43.77665" lon="3.44811">
        <ele>832</ele>
        <time>2015-04-11T15:03:41.067Z</time>
      </trkpt>
      <trkpt lat="43.77665" lon="3.44825">
        <ele>824</ele>
        <time>2015-04-11T15:04:03.042Z</time>
      </trkpt>
      <trkpt lat="43.77668" lon="3.44837">
        <ele>827</ele>
        <time>2015-04-11T15:04:16.214Z</time>
      </trkpt>
      <trkpt lat="43.77675" lon="3.44847">
        <ele>830</ele>
        <time>2015-04-11T15:04:26.044Z</time>
      </trkpt>
      <trkpt lat="43.77681" lon="3.44856">
        <ele>824</ele>
        <time>2015-04-11T15:04:32.969Z</time>
      </trkpt>
      <trkpt lat="43.77687" lon="3.44862">
        <ele>827</ele>
        <time>2015-04-11T15:04:58.095Z</time>
      </trkpt>
      <trkpt lat="43.77687" lon="3.44863">
        <ele>828</ele>
        <time>2015-04-11T15:05:02.339Z</time>
      </trkpt>
      <trkpt lat="43.77697" lon="3.44869">
        <ele>828</ele>
        <time>2015-04-11T15:05:14.174Z</time>
      </trkpt>
      <trkpt lat="43.77703" lon="3.4488">
        <ele>830</ele>
        <time>2015-04-11T15:05:25.407Z</time>
      </trkpt>
      <trkpt lat="43.77707" lon="3.44892">
        <ele>827</ele>
        <time>2015-04-11T15:05:39.059Z</time>
      </trkpt>
      <trkpt lat="43.77708" lon="3.44905">
        <ele>822</ele>
        <time>2015-04-11T15:05:51.042Z</time>
      </trkpt>
      <trkpt lat="43.77713" lon="3.44914">
        <ele>824</ele>
        <time>2015-04-11T15:06:01.208Z</time>
      </trkpt>
      <trkpt lat="43.7772" lon="3.44926">
        <ele>826</ele>
        <time>2015-04-11T15:06:11.023Z</time>
      </trkpt>
      <trkpt lat="43.77725" lon="3.44937">
        <ele>822</ele>
        <time>2015-04-11T15:06:22.082Z</time>
      </trkpt>
      <trkpt lat="43.77729" lon="3.44947">
        <ele>825</ele>
        <time>2015-04-11T15:06:32.210Z</time>
      </trkpt>
      <trkpt lat="43.77732" lon="3.4496">
        <ele>828</ele>
        <time>2015-04-11T15:06:46.147Z</time>
      </trkpt>
      <trkpt lat="43.77737" lon="3.44971">
        <ele>830</ele>
        <time>2015-04-11T15:06:56.313Z</time>
      </trkpt>
      <trkpt lat="43.77734" lon="3.44982">
        <ele>826</ele>
        <time>2015-04-11T15:07:08.484Z</time>
      </trkpt>
      <trkpt lat="43.7773" lon="3.44993">
        <ele>830</ele>
        <time>2015-04-11T15:07:22.111Z</time>
      </trkpt>
      <trkpt lat="43.77726" lon="3.45004">
        <ele>827</ele>
        <time>2015-04-11T15:07:30.135Z</time>
      </trkpt>
      <trkpt lat="43.77726" lon="3.45016">
        <ele>825</ele>
        <time>2015-04-11T15:07:38.065Z</time>
      </trkpt>
      <trkpt lat="43.77726" lon="3.45019">
        <ele>825</ele>
        <time>2015-04-11T15:07:39.064Z</time>
      </trkpt>
      <trkpt lat="43.77731" lon="3.45029">
        <ele>831</ele>
        <time>2015-04-11T15:07:52.032Z</time>
      </trkpt>
      <trkpt lat="43.77737" lon="3.4504">
        <ele>826</ele>
        <time>2015-04-11T15:07:58.142Z</time>
      </trkpt>
      <trkpt lat="43.77744" lon="3.45048">
        <ele>824</ele>
        <time>2015-04-11T15:08:06.086Z</time>
      </trkpt>
      <trkpt lat="43.77752" lon="3.45055">
        <ele>834</ele>
        <time>2015-04-11T15:08:16.245Z</time>
      </trkpt>
      <trkpt lat="43.7776" lon="3.45059">
        <ele>827</ele>
        <time>2015-04-11T15:08:26.068Z</time>
      </trkpt>
      <trkpt lat="43.7777" lon="3.45063">
        <ele>827</ele>
        <time>2015-04-11T15:08:37.342Z</time>
      </trkpt>
      <trkpt lat="43.77779" lon="3.45065">
        <ele>828</ele>
        <time>2015-04-11T15:08:50.353Z</time>
      </trkpt>
      <trkpt lat="43.77785" lon="3.45069">
        <ele>823</ele>
        <time>2015-04-11T15:09:03.090Z</time>
      </trkpt>
      <trkpt lat="43.77787" lon="3.45072">
        <ele>824</ele>
        <time>2015-04-11T15:09:06.271Z</time>
      </trkpt>
      <trkpt lat="43.77787" lon="3.45073">
        <ele>825</ele>
        <time>2015-04-11T15:09:07.059Z</time>
      </trkpt>
      <trkpt lat="43.77794" lon="3.45081">
        <ele>823</ele>
        <time>2015-04-11T15:09:17.093Z</time>
      </trkpt>
      <trkpt lat="43.77811" lon="3.45087">
        <ele>817</ele>
        <time>2015-04-11T15:09:37.027Z</time>
      </trkpt>
      <trkpt lat="43.77818" lon="3.45099">
        <ele>819</ele>
        <time>2015-04-11T15:09:49.064Z</time>
      </trkpt>
      <trkpt lat="43.77824" lon="3.45107">
        <ele>818</ele>
        <time>2015-04-11T15:09:59.352Z</time>
      </trkpt>
      <trkpt lat="43.77832" lon="3.45112">
        <ele>820</ele>
        <time>2015-04-11T15:10:09.034Z</time>
      </trkpt>
      <trkpt lat="43.77841" lon="3.4512">
        <ele>816</ele>
        <time>2015-04-11T15:10:19.436Z</time>
      </trkpt>
      <trkpt lat="43.77846" lon="3.45131">
        <ele>819</ele>
        <time>2015-04-11T15:10:30.197Z</time>
      </trkpt>
      <trkpt lat="43.77853" lon="3.45141">
        <ele>821</ele>
        <time>2015-04-11T15:10:52.099Z</time>
      </trkpt>
      <trkpt lat="43.77856" lon="3.45147">
        <ele>820</ele>
        <time>2015-04-11T15:11:00.470Z</time>
      </trkpt>
      <trkpt lat="43.77859" lon="3.4515">
        <ele>817</ele>
        <time>2015-04-11T15:11:04.966Z</time>
      </trkpt>
      <trkpt lat="43.77866" lon="3.4516">
        <ele>820</ele>
        <time>2015-04-11T15:11:15.697Z</time>
      </trkpt>
      <trkpt lat="43.77868" lon="3.45171">
        <ele>819</ele>
        <time>2015-04-11T15:11:25.271Z</time>
      </trkpt>
      <trkpt lat="43.77873" lon="3.45177">
        <ele>821</ele>
        <time>2015-04-11T15:11:33.215Z</time>
      </trkpt>
      <trkpt lat="43.77879" lon="3.45185">
        <ele>819</ele>
        <time>2015-04-11T15:11:39.057Z</time>
      </trkpt>
      <trkpt lat="43.77884" lon="3.45196">
        <ele>821</ele>
        <time>2015-04-11T15:11:48.574Z</time>
      </trkpt>
      <trkpt lat="43.77897" lon="3.45207">
        <ele>824</ele>
        <time>2015-04-11T15:12:11.345Z</time>
      </trkpt>
      <trkpt lat="43.77901" lon="3.45211">
        <ele>835</ele>
        <time>2015-04-11T15:12:25.097Z</time>
      </trkpt>
      <trkpt lat="43.77906" lon="3.45214">
        <ele>831</ele>
        <time>2015-04-11T15:12:27.461Z</time>
      </trkpt>
      <trkpt lat="43.77914" lon="3.45221">
        <ele>824</ele>
        <time>2015-04-11T15:12:37.114Z</time>
      </trkpt>
      <trkpt lat="43.77923" lon="3.45226">
        <ele>829</ele>
        <time>2015-04-11T15:12:48.139Z</time>
      </trkpt>
      <trkpt lat="43.77933" lon="3.4523">
        <ele>831</ele>
        <time>2015-04-11T15:12:58.090Z</time>
      </trkpt>
      <trkpt lat="43.77949" lon="3.45243">
        <ele>828</ele>
        <time>2015-04-11T15:13:26.052Z</time>
      </trkpt>
      <trkpt lat="43.77957" lon="3.45248">
        <ele>828</ele>
        <time>2015-04-11T15:13:35.046Z</time>
      </trkpt>
      <trkpt lat="43.77964" lon="3.45258">
        <ele>831</ele>
        <time>2015-04-11T15:13:44.122Z</time>
      </trkpt>
      <trkpt lat="43.77964" lon="3.45262">
        <ele>830</ele>
        <time>2015-04-11T15:14:01.975Z</time>
      </trkpt>
      <trkpt lat="43.77967" lon="3.45263">
        <ele>831</ele>
        <time>2015-04-11T15:14:07.441Z</time>
      </trkpt>
      <trkpt lat="43.77974" lon="3.4527">
        <ele>835</ele>
        <time>2015-04-11T15:14:19.048Z</time>
      </trkpt>
      <trkpt lat="43.7798" lon="3.45279">
        <ele>835</ele>
        <time>2015-04-11T15:14:31.044Z</time>
      </trkpt>
      <trkpt lat="43.77986" lon="3.45291">
        <ele>831</ele>
        <time>2015-04-11T15:14:51.562Z</time>
      </trkpt>
      <trkpt lat="43.77989" lon="3.45301">
        <ele>832</ele>
        <time>2015-04-11T15:15:08.051Z</time>
      </trkpt>
      <trkpt lat="43.77989" lon="3.45304">
        <ele>834</ele>
        <time>2015-04-11T15:15:34.073Z</time>
      </trkpt>
      <trkpt lat="43.77989" lon="3.45303">
        <ele>842</ele>
        <time>2015-04-11T15:16:37.126Z</time>
      </trkpt>
      <trkpt lat="43.77989" lon="3.45307">
        <ele>837</ele>
        <time>2015-04-11T15:16:45.056Z</time>
      </trkpt>
      <trkpt lat="43.77986" lon="3.45317">
        <ele>837</ele>
        <time>2015-04-11T15:16:55.332Z</time>
      </trkpt>
      <trkpt lat="43.77985" lon="3.45318">
        <ele>838</ele>
        <time>2015-04-11T15:16:56.057Z</time>
      </trkpt>
      <trkpt lat="43.77982" lon="3.45329">
        <ele>838</ele>
        <time>2015-04-11T15:17:06.283Z</time>
      </trkpt>
      <trkpt lat="43.77979" lon="3.45342">
        <ele>836</ele>
        <time>2015-04-11T15:17:52.376Z</time>
      </trkpt>
      <trkpt lat="43.77973" lon="3.45353">
        <ele>839</ele>
        <time>2015-04-11T15:18:04.040Z</time>
      </trkpt>
      <trkpt lat="43.77969" lon="3.45363">
        <ele>839</ele>
        <time>2015-04-11T15:18:12.106Z</time>
      </trkpt>
      <trkpt lat="43.77962" lon="3.45375">
        <ele>837</ele>
        <time>2015-04-11T15:18:24.102Z</time>
      </trkpt>
      <trkpt lat="43.77955" lon="3.45382">
        <ele>840</ele>
        <time>2015-04-11T15:18:31.288Z</time>
      </trkpt>
      <trkpt lat="43.77946" lon="3.4539">
        <ele>839</ele>
        <time>2015-04-11T15:18:39.418Z</time>
      </trkpt>
      <trkpt lat="43.7794" lon="3.45399">
        <ele>840</ele>
        <time>2015-04-11T15:18:47.261Z</time>
      </trkpt>
      <trkpt lat="43.77932" lon="3.45408">
        <ele>841</ele>
        <time>2015-04-11T15:18:56.037Z</time>
      </trkpt>
      <trkpt lat="43.77927" lon="3.45417">
        <ele>839</ele>
        <time>2015-04-11T15:19:06.026Z</time>
      </trkpt>
      <trkpt lat="43.77919" lon="3.45427">
        <ele>841</ele>
        <time>2015-04-11T15:19:18.113Z</time>
      </trkpt>
      <trkpt lat="43.77913" lon="3.45435">
        <ele>841</ele>
        <time>2015-04-11T15:19:26.090Z</time>
      </trkpt>
      <trkpt lat="43.77902" lon="3.45458">
        <ele>841</ele>
        <time>2015-04-11T15:19:46.567Z</time>
      </trkpt>
      <trkpt lat="43.77898" lon="3.45471">
        <ele>841</ele>
        <time>2015-04-11T15:19:56.178Z</time>
      </trkpt>
      <trkpt lat="43.77893" lon="3.45481">
        <ele>838</ele>
        <time>2015-04-11T15:20:04.137Z</time>
      </trkpt>
      <trkpt lat="43.77891" lon="3.45494">
        <ele>839</ele>
        <time>2015-04-11T15:20:14.146Z</time>
      </trkpt>
      <trkpt lat="43.77888" lon="3.45505">
        <ele>839</ele>
        <time>2015-04-11T15:20:22.098Z</time>
      </trkpt>
      <trkpt lat="43.77885" lon="3.45519">
        <ele>841</ele>
        <time>2015-04-11T15:20:33.404Z</time>
      </trkpt>
      <trkpt lat="43.77886" lon="3.45531">
        <ele>835</ele>
        <time>2015-04-11T15:20:42.298Z</time>
      </trkpt>
      <trkpt lat="43.77888" lon="3.45543">
        <ele>840</ele>
        <time>2015-04-11T15:20:52.035Z</time>
      </trkpt>
      <trkpt lat="43.77888" lon="3.45545">
        <ele>841</ele>
        <time>2015-04-11T15:20:53.054Z</time>
      </trkpt>
      <trkpt lat="43.77892" lon="3.45556">
        <ele>833</ele>
        <time>2015-04-11T15:21:14.148Z</time>
      </trkpt>
      <trkpt lat="43.77901" lon="3.45556">
        <ele>832</ele>
        <time>2015-04-11T15:21:26.050Z</time>
      </trkpt>
      <trkpt lat="43.77923" lon="3.45532">
        <ele>831</ele>
        <time>2015-04-11T15:22:12.061Z</time>
      </trkpt>
      <trkpt lat="43.77928" lon="3.45529">
        <ele>823</ele>
        <time>2015-04-11T15:22:33.015Z</time>
      </trkpt>
      <trkpt lat="43.7793" lon="3.45527">
        <ele>825</ele>
        <time>2015-04-11T15:22:39.315Z</time>
      </trkpt>
      <trkpt lat="43.77931" lon="3.45527">
        <ele>825</ele>
        <time>2015-04-11T15:22:40.101Z</time>
      </trkpt>
      <trkpt lat="43.77939" lon="3.45524">
        <ele>828</ele>
        <time>2015-04-11T15:22:45.044Z</time>
      </trkpt>
      <trkpt lat="43.77949" lon="3.45518">
        <ele>825</ele>
        <time>2015-04-11T15:22:57.032Z</time>
      </trkpt>
      <trkpt lat="43.77951" lon="3.45515">
        <ele>823</ele>
        <time>2015-04-11T15:23:05.032Z</time>
      </trkpt>
      <trkpt lat="43.77952" lon="3.45515">
        <ele>822</ele>
        <time>2015-04-11T15:23:08.480Z</time>
      </trkpt>
      <trkpt lat="43.77958" lon="3.4551">
        <ele>822</ele>
        <time>2015-04-11T15:23:17.036Z</time>
      </trkpt>
      <trkpt lat="43.77965" lon="3.45506">
        <ele>810</ele>
        <time>2015-04-11T15:23:21.116Z</time>
      </trkpt>
      <trkpt lat="43.77972" lon="3.45505">
        <ele>821</ele>
        <time>2015-04-11T15:23:28.096Z</time>
      </trkpt>
      <trkpt lat="43.77987" lon="3.45497">
        <ele>823</ele>
        <time>2015-04-11T15:23:42.023Z</time>
      </trkpt>
      <trkpt lat="43.77998" lon="3.4549">
        <ele>822</ele>
        <time>2015-04-11T15:23:57.122Z</time>
      </trkpt>
      <trkpt lat="43.77998" lon="3.4549">
        <ele>819</ele>
        <time>2015-04-11T15:23:58.193Z</time>
      </trkpt>
      <trkpt lat="43.78006" lon="3.45483">
        <ele>819</ele>
        <time>2015-04-11T15:24:09.308Z</time>
      </trkpt>
      <trkpt lat="43.78016" lon="3.45482">
        <ele>818</ele>
        <time>2015-04-11T15:24:17.031Z</time>
      </trkpt>
      <trkpt lat="43.78034" lon="3.45474">
        <ele>813</ele>
        <time>2015-04-11T15:24:36.949Z</time>
      </trkpt>
      <trkpt lat="43.78043" lon="3.45477">
        <ele>812</ele>
        <time>2015-04-11T15:24:49.569Z</time>
      </trkpt>
      <trkpt lat="43.78051" lon="3.45483">
        <ele>811</ele>
        <time>2015-04-11T15:24:59.368Z</time>
      </trkpt>
      <trkpt lat="43.7806" lon="3.4549">
        <ele>806</ele>
        <time>2015-04-11T15:25:12.358Z</time>
      </trkpt>
      <trkpt lat="43.78068" lon="3.45494">
        <ele>810</ele>
        <time>2015-04-11T15:25:20.303Z</time>
      </trkpt>
      <trkpt lat="43.78078" lon="3.455">
        <ele>810</ele>
        <time>2015-04-11T15:25:32.029Z</time>
      </trkpt>
      <trkpt lat="43.78078" lon="3.45501">
        <ele>815</ele>
        <time>2015-04-11T15:25:32.972Z</time>
      </trkpt>
      <trkpt lat="43.7808" lon="3.45504">
        <ele>811</ele>
        <time>2015-04-11T15:25:37.294Z</time>
      </trkpt>
      <trkpt lat="43.78088" lon="3.45509">
        <ele>808</ele>
        <time>2015-04-11T15:25:49.261Z</time>
      </trkpt>
      <trkpt lat="43.78089" lon="3.4551">
        <ele>810</ele>
        <time>2015-04-11T15:25:50.299Z</time>
      </trkpt>
      <trkpt lat="43.78096" lon="3.45516">
        <ele>803</ele>
        <time>2015-04-11T15:26:00.106Z</time>
      </trkpt>
      <trkpt lat="43.78106" lon="3.4552">
        <ele>807</ele>
        <time>2015-04-11T15:26:11.022Z</time>
      </trkpt>
      <trkpt lat="43.78114" lon="3.45525">
        <ele>806</ele>
        <time>2015-04-11T15:26:20.035Z</time>
      </trkpt>
      <trkpt lat="43.78124" lon="3.45526">
        <ele>805</ele>
        <time>2015-04-11T15:26:28.084Z</time>
      </trkpt>
      <trkpt lat="43.78132" lon="3.45525">
        <ele>808</ele>
        <time>2015-04-11T15:26:38.102Z</time>
      </trkpt>
      <trkpt lat="43.78143" lon="3.45527">
        <ele>801</ele>
        <time>2015-04-11T15:26:49.021Z</time>
      </trkpt>
      <trkpt lat="43.78152" lon="3.45527">
        <ele>809</ele>
        <time>2015-04-11T15:27:01.044Z</time>
      </trkpt>
      <trkpt lat="43.78153" lon="3.45527">
        <ele>802</ele>
        <time>2015-04-11T15:27:06.088Z</time>
      </trkpt>
      <trkpt lat="43.78164" lon="3.45531">
        <ele>803</ele>
        <time>2015-04-11T15:27:18.376Z</time>
      </trkpt>
      <trkpt lat="43.78171" lon="3.45539">
        <ele>805</ele>
        <time>2015-04-11T15:27:25.994Z</time>
      </trkpt>
      <trkpt lat="43.78176" lon="3.45548">
        <ele>801</ele>
        <time>2015-04-11T15:27:35.361Z</time>
      </trkpt>
      <trkpt lat="43.78182" lon="3.4556">
        <ele>800</ele>
        <time>2015-04-11T15:27:45.106Z</time>
      </trkpt>
      <trkpt lat="43.78194" lon="3.45568">
        <ele>797</ele>
        <time>2015-04-11T15:28:08.014Z</time>
      </trkpt>
      <trkpt lat="43.78196" lon="3.45571">
        <ele>798</ele>
        <time>2015-04-11T15:28:14.798Z</time>
      </trkpt>
      <trkpt lat="43.78199" lon="3.45572">
        <ele>794</ele>
        <time>2015-04-11T15:28:26.044Z</time>
      </trkpt>
      <trkpt lat="43.78207" lon="3.45578">
        <ele>797</ele>
        <time>2015-04-11T15:28:35.054Z</time>
      </trkpt>
      <trkpt lat="43.78208" lon="3.4558">
        <ele>798</ele>
        <time>2015-04-11T15:28:40.010Z</time>
      </trkpt>
      <trkpt lat="43.78209" lon="3.45581">
        <ele>792</ele>
        <time>2015-04-11T15:28:42.013Z</time>
      </trkpt>
      <trkpt lat="43.78214" lon="3.45581">
        <ele>799</ele>
        <time>2015-04-11T15:28:50.186Z</time>
      </trkpt>
      <trkpt lat="43.78218" lon="3.45585">
        <ele>792</ele>
        <time>2015-04-11T15:29:12.288Z</time>
      </trkpt>
      <trkpt lat="43.78221" lon="3.45586">
        <ele>792</ele>
        <time>2015-04-11T15:29:18.157Z</time>
      </trkpt>
      <trkpt lat="43.78221" lon="3.45585">
        <ele>793</ele>
        <time>2015-04-11T15:29:19.034Z</time>
      </trkpt>
      <trkpt lat="43.78221" lon="3.45587">
        <ele>789</ele>
        <time>2015-04-11T15:29:33.038Z</time>
      </trkpt>
      <trkpt lat="43.78223" lon="3.45592">
        <ele>791</ele>
        <time>2015-04-11T15:29:39.079Z</time>
      </trkpt>
      <trkpt lat="43.78224" lon="3.45593">
        <ele>788</ele>
        <time>2015-04-11T15:29:41.340Z</time>
      </trkpt>
      <trkpt lat="43.78229" lon="3.45594">
        <ele>786</ele>
        <time>2015-04-11T15:29:51.102Z</time>
      </trkpt>
      <trkpt lat="43.7823" lon="3.45596">
        <ele>786</ele>
        <time>2015-04-11T15:29:55.443Z</time>
      </trkpt>
      <trkpt lat="43.78229" lon="3.45596">
        <ele>784</ele>
        <time>2015-04-11T15:29:56.145Z</time>
      </trkpt>
      <trkpt lat="43.78229" lon="3.45596">
        <ele>788</ele>
        <time>2015-04-11T15:29:58.168Z</time>
      </trkpt>
      <trkpt lat="43.78232" lon="3.456">
        <ele>783</ele>
        <time>2015-04-11T15:30:08.001Z</time>
      </trkpt>
      <trkpt lat="43.78236" lon="3.45603">
        <ele>785</ele>
        <time>2015-04-11T15:30:17.957Z</time>
      </trkpt>
      <trkpt lat="43.78239" lon="3.45604">
        <ele>784</ele>
        <time>2015-04-11T15:30:24.033Z</time>
      </trkpt>
      <trkpt lat="43.78245" lon="3.45601">
        <ele>788</ele>
        <time>2015-04-11T15:30:38.006Z</time>
      </trkpt>
      <trkpt lat="43.78249" lon="3.45602">
        <ele>782</ele>
        <time>2015-04-11T15:30:43.017Z</time>
      </trkpt>
      <trkpt lat="43.78253" lon="3.45603">
        <ele>779</ele>
        <time>2015-04-11T15:30:46.028Z</time>
      </trkpt>
      <trkpt lat="43.78262" lon="3.45608">
        <ele>781</ele>
        <time>2015-04-11T15:30:58.059Z</time>
      </trkpt>
      <trkpt lat="43.78263" lon="3.45608">
        <ele>777</ele>
        <time>2015-04-11T15:30:59.034Z</time>
      </trkpt>
      <trkpt lat="43.78263" lon="3.4561">
        <ele>779</ele>
        <time>2015-04-11T15:31:01.974Z</time>
      </trkpt>
      <trkpt lat="43.78264" lon="3.45611">
        <ele>776</ele>
        <time>2015-04-11T15:31:04.265Z</time>
      </trkpt>
      <trkpt lat="43.78272" lon="3.45613">
        <ele>769</ele>
        <time>2015-04-11T15:31:16.522Z</time>
      </trkpt>
      <trkpt lat="43.78283" lon="3.45618">
        <ele>768</ele>
        <time>2015-04-11T15:31:27.357Z</time>
      </trkpt>
      <trkpt lat="43.78301" lon="3.4562">
        <ele>770</ele>
        <time>2015-04-11T15:31:56.469Z</time>
      </trkpt>
      <trkpt lat="43.7831" lon="3.4562">
        <ele>769</ele>
        <time>2015-04-11T15:32:11.436Z</time>
      </trkpt>
      <trkpt lat="43.78316" lon="3.45621">
        <ele>774</ele>
        <time>2015-04-11T15:32:29.327Z</time>
      </trkpt>
      <trkpt lat="43.78319" lon="3.45623">
        <ele>770</ele>
        <time>2015-04-11T15:32:30.317Z</time>
      </trkpt>
      <trkpt lat="43.7833" lon="3.45627">
        <ele>775</ele>
        <time>2015-04-11T15:32:46.334Z</time>
      </trkpt>
      <trkpt lat="43.78337" lon="3.45632">
        <ele>770</ele>
        <time>2015-04-11T15:32:58.318Z</time>
      </trkpt>
      <trkpt lat="43.78337" lon="3.45631">
        <ele>771</ele>
        <time>2015-04-11T15:32:59.307Z</time>
      </trkpt>
      <trkpt lat="43.78346" lon="3.45629">
        <ele>769</ele>
        <time>2015-04-11T15:33:22.527Z</time>
      </trkpt>
      <trkpt lat="43.78361" lon="3.4563">
        <ele>764</ele>
        <time>2015-04-11T15:33:41.299Z</time>
      </trkpt>
      <trkpt lat="43.78365" lon="3.45633">
        <ele>765</ele>
        <time>2015-04-11T15:33:50.418Z</time>
      </trkpt>
      <trkpt lat="43.78366" lon="3.45633">
        <ele>768</ele>
        <time>2015-04-11T15:33:51.301Z</time>
      </trkpt>
      <trkpt lat="43.78373" lon="3.45633">
        <ele>763</ele>
        <time>2015-04-11T15:34:10.342Z</time>
      </trkpt>
      <trkpt lat="43.78373" lon="3.45633">
        <ele>758</ele>
        <time>2015-04-11T15:34:11.603Z</time>
      </trkpt>
      <trkpt lat="43.78382" lon="3.45631">
        <ele>770</ele>
        <time>2015-04-11T15:34:18.688Z</time>
      </trkpt>
      <trkpt lat="43.78385" lon="3.45631">
        <ele>765</ele>
        <time>2015-04-11T15:34:20.563Z</time>
      </trkpt>
      <trkpt lat="43.78392" lon="3.45632">
        <ele>768</ele>
        <time>2015-04-11T15:34:24.341Z</time>
      </trkpt>
      <trkpt lat="43.78396" lon="3.45633">
        <ele>770</ele>
        <time>2015-04-11T15:34:28.243Z</time>
      </trkpt>
      <trkpt lat="43.78398" lon="3.45633">
        <ele>767</ele>
        <time>2015-04-11T15:34:36.221Z</time>
      </trkpt>
      <trkpt lat="43.78399" lon="3.45632">
        <ele>765</ele>
        <time>2015-04-11T15:34:39.293Z</time>
      </trkpt>
      <trkpt lat="43.78406" lon="3.45632">
        <ele>768</ele>
        <time>2015-04-11T15:34:52.312Z</time>
      </trkpt>
      <trkpt lat="43.78417" lon="3.45631">
        <ele>761</ele>
        <time>2015-04-11T15:35:03.537Z</time>
      </trkpt>
      <trkpt lat="43.78422" lon="3.45629">
        <ele>756</ele>
        <time>2015-04-11T15:35:10.310Z</time>
      </trkpt>
      <trkpt lat="43.78429" lon="3.45632">
        <ele>754</ele>
        <time>2015-04-11T15:35:20.815Z</time>
      </trkpt>
      <trkpt lat="43.7844" lon="3.45635">
        <ele>752</ele>
        <time>2015-04-11T15:35:33.399Z</time>
      </trkpt>
      <trkpt lat="43.78454" lon="3.45641">
        <ele>751</ele>
        <time>2015-04-11T15:36:04.294Z</time>
      </trkpt>
      <trkpt lat="43.7846" lon="3.45641">
        <ele>752</ele>
        <time>2015-04-11T15:36:22.270Z</time>
      </trkpt>
      <trkpt lat="43.78465" lon="3.4564">
        <ele>750</ele>
        <time>2015-04-11T15:36:23.285Z</time>
      </trkpt>
      <trkpt lat="43.78474" lon="3.45638">
        <ele>753</ele>
        <time>2015-04-11T15:36:36.263Z</time>
      </trkpt>
      <trkpt lat="43.78482" lon="3.45643">
        <ele>741</ele>
        <time>2015-04-11T15:37:00.531Z</time>
      </trkpt>
      <trkpt lat="43.78484" lon="3.45642">
        <ele>735</ele>
        <time>2015-04-11T15:37:04.539Z</time>
      </trkpt>
      <trkpt lat="43.78493" lon="3.45644">
        <ele>730</ele>
        <time>2015-04-11T15:37:13.693Z</time>
      </trkpt>
      <trkpt lat="43.78499" lon="3.45642">
        <ele>731</ele>
        <time>2015-04-11T15:37:25.324Z</time>
      </trkpt>
      <trkpt lat="43.785" lon="3.45643">
        <ele>729</ele>
        <time>2015-04-11T15:37:26.550Z</time>
      </trkpt>
      <trkpt lat="43.78507" lon="3.45646">
        <ele>719</ele>
        <time>2015-04-11T15:37:44.291Z</time>
      </trkpt>
      <trkpt lat="43.78512" lon="3.45648">
        <ele>748</ele>
        <time>2015-04-11T15:37:49.284Z</time>
      </trkpt>
      <trkpt lat="43.7853" lon="3.4565">
        <ele>756</ele>
        <time>2015-04-11T15:38:08.268Z</time>
      </trkpt>
      <trkpt lat="43.78539" lon="3.45648">
        <ele>742</ele>
        <time>2015-04-11T15:38:25.337Z</time>
      </trkpt>
      <trkpt lat="43.7854" lon="3.45647">
        <ele>739</ele>
        <time>2015-04-11T15:38:26.360Z</time>
      </trkpt>
      <trkpt lat="43.78542" lon="3.45648">
        <ele>737</ele>
        <time>2015-04-11T15:38:30.204Z</time>
      </trkpt>
      <trkpt lat="43.78546" lon="3.45653">
        <ele>721</ele>
        <time>2015-04-11T15:38:50.200Z</time>
      </trkpt>
      <trkpt lat="43.78547" lon="3.45653">
        <ele>726</ele>
        <time>2015-04-11T15:38:51.197Z</time>
      </trkpt>
      <trkpt lat="43.78548" lon="3.45654">
        <ele>723</ele>
        <time>2015-04-11T15:38:57.277Z</time>
      </trkpt>
      <trkpt lat="43.7856" lon="3.45655">
        <ele>724</ele>
        <time>2015-04-11T15:39:14.358Z</time>
      </trkpt>
      <trkpt lat="43.78567" lon="3.45654">
        <ele>729</ele>
        <time>2015-04-11T15:39:20.664Z</time>
      </trkpt>
      <trkpt lat="43.7857" lon="3.45655">
        <ele>727</ele>
        <time>2015-04-11T15:39:39.271Z</time>
      </trkpt>
      <trkpt lat="43.78584" lon="3.45654">
        <ele>730</ele>
        <time>2015-04-11T15:40:16.245Z</time>
      </trkpt>
      <trkpt lat="43.78585" lon="3.45654">
        <ele>729</ele>
        <time>2015-04-11T15:40:17.255Z</time>
      </trkpt>
      <trkpt lat="43.7859" lon="3.45653">
        <ele>727</ele>
        <time>2015-04-11T15:40:23.231Z</time>
      </trkpt>
      <trkpt lat="43.78597" lon="3.45653">
        <ele>729</ele>
        <time>2015-04-11T15:40:30.319Z</time>
      </trkpt>
      <trkpt lat="43.78602" lon="3.45651">
        <ele>731</ele>
        <time>2015-04-11T15:40:47.269Z</time>
      </trkpt>
      <trkpt lat="43.78606" lon="3.45648">
        <ele>732</ele>
        <time>2015-04-11T15:40:48.269Z</time>
      </trkpt>
      <trkpt lat="43.78614" lon="3.45647">
        <ele>707</ele>
        <time>2015-04-11T15:41:05.248Z</time>
      </trkpt>
      <trkpt lat="43.78621" lon="3.45648">
        <ele>707</ele>
        <time>2015-04-11T15:41:14.273Z</time>
      </trkpt>
      <trkpt lat="43.78626" lon="3.4565">
        <ele>708</ele>
        <time>2015-04-11T15:41:15.272Z</time>
      </trkpt>
      <trkpt lat="43.78634" lon="3.45651">
        <ele>704</ele>
        <time>2015-04-11T15:41:23.285Z</time>
      </trkpt>
      <trkpt lat="43.78635" lon="3.45651">
        <ele>697</ele>
        <time>2015-04-11T15:41:24.497Z</time>
      </trkpt>
      <trkpt lat="43.78644" lon="3.45654">
        <ele>714</ele>
        <time>2015-04-11T15:41:34.242Z</time>
      </trkpt>
      <trkpt lat="43.78653" lon="3.45657">
        <ele>698</ele>
        <time>2015-04-11T15:41:42.177Z</time>
      </trkpt>
      <trkpt lat="43.78662" lon="3.45661">
        <ele>688</ele>
        <time>2015-04-11T15:41:51.189Z</time>
      </trkpt>
      <trkpt lat="43.78667" lon="3.45666">
        <ele>695</ele>
        <time>2015-04-11T15:42:05.231Z</time>
      </trkpt>
      <trkpt lat="43.78672" lon="3.4567">
        <ele>703</ele>
        <time>2015-04-11T15:42:15.279Z</time>
      </trkpt>
      <trkpt lat="43.78681" lon="3.45681">
        <ele>712</ele>
        <time>2015-04-11T15:42:23.407Z</time>
      </trkpt>
      <trkpt lat="43.78687" lon="3.45691">
        <ele>716</ele>
        <time>2015-04-11T15:42:44.426Z</time>
      </trkpt>
      <trkpt lat="43.78691" lon="3.45693">
        <ele>717</ele>
        <time>2015-04-11T15:42:46.581Z</time>
      </trkpt>
      <trkpt lat="43.78689" lon="3.45705">
        <ele>684</ele>
        <time>2015-04-11T15:43:25.303Z</time>
      </trkpt>
      <trkpt lat="43.7869" lon="3.45707">
        <ele>681</ele>
        <time>2015-04-11T15:43:28.336Z</time>
      </trkpt>
      <trkpt lat="43.78696" lon="3.45715">
        <ele>671</ele>
        <time>2015-04-11T15:44:25.332Z</time>
      </trkpt>
      <trkpt lat="43.78704" lon="3.45719">
        <ele>677</ele>
        <time>2015-04-11T15:44:34.451Z</time>
      </trkpt>
      <trkpt lat="43.7871" lon="3.45727">
        <ele>712</ele>
        <time>2015-04-11T15:45:36.240Z</time>
      </trkpt>
      <trkpt lat="43.78715" lon="3.45737">
        <ele>719</ele>
        <time>2015-04-11T15:45:59.922Z</time>
      </trkpt>
      <trkpt lat="43.78716" lon="3.45749">
        <ele>724</ele>
        <time>2015-04-11T15:46:10.072Z</time>
      </trkpt>
      <trkpt lat="43.78721" lon="3.45758">
        <ele>731</ele>
        <time>2015-04-11T15:46:27.108Z</time>
      </trkpt>
      <trkpt lat="43.78724" lon="3.45764">
        <ele>732</ele>
        <time>2015-04-11T15:46:30.220Z</time>
      </trkpt>
      <trkpt lat="43.78726" lon="3.45778">
        <ele>733</ele>
        <time>2015-04-11T15:46:38.380Z</time>
      </trkpt>
      <trkpt lat="43.78726" lon="3.4578">
        <ele>731</ele>
        <time>2015-04-11T15:46:39.949Z</time>
      </trkpt>
      <trkpt lat="43.78731" lon="3.45796">
        <ele>726</ele>
        <time>2015-04-11T15:46:55.226Z</time>
      </trkpt>
      <trkpt lat="43.78732" lon="3.458">
        <ele>721</ele>
        <time>2015-04-11T15:46:59.015Z</time>
      </trkpt>
      <trkpt lat="43.78734" lon="3.45803">
        <ele>721</ele>
        <time>2015-04-11T15:47:02.005Z</time>
      </trkpt>
      <trkpt lat="43.78737" lon="3.45806">
        <ele>726</ele>
        <time>2015-04-11T15:47:04.953Z</time>
      </trkpt>
      <trkpt lat="43.78739" lon="3.45819">
        <ele>724</ele>
        <time>2015-04-11T15:47:16.962Z</time>
      </trkpt>
      <trkpt lat="43.78742" lon="3.45823">
        <ele>724</ele>
        <time>2015-04-11T15:47:19.047Z</time>
      </trkpt>
      <trkpt lat="43.78743" lon="3.45828">
        <ele>727</ele>
        <time>2015-04-11T15:47:24.197Z</time>
      </trkpt>
      <trkpt lat="43.78747" lon="3.45832">
        <ele>717</ele>
        <time>2015-04-11T15:47:26.990Z</time>
      </trkpt>
      <trkpt lat="43.78748" lon="3.45835">
        <ele>712</ele>
        <time>2015-04-11T15:47:30.068Z</time>
      </trkpt>
      <trkpt lat="43.78748" lon="3.45836">
        <ele>715</ele>
        <time>2015-04-11T15:47:30.923Z</time>
      </trkpt>
      <trkpt lat="43.7875" lon="3.45844">
        <ele>713</ele>
        <time>2015-04-11T15:47:37.993Z</time>
      </trkpt>
      <trkpt lat="43.78753" lon="3.45858">
        <ele>707</ele>
        <time>2015-04-11T15:47:48.012Z</time>
      </trkpt>
      <trkpt lat="43.78755" lon="3.45871">
        <ele>696</ele>
        <time>2015-04-11T15:47:55.955Z</time>
      </trkpt>
      <trkpt lat="43.78758" lon="3.45879">
        <ele>698</ele>
        <time>2015-04-11T15:48:03.951Z</time>
      </trkpt>
      <trkpt lat="43.78761" lon="3.45881">
        <ele>699</ele>
        <time>2015-04-11T15:48:04.972Z</time>
      </trkpt>
      <trkpt lat="43.78763" lon="3.45892">
        <ele>694</ele>
        <time>2015-04-11T15:48:11.087Z</time>
      </trkpt>
      <trkpt lat="43.78763" lon="3.45894">
        <ele>695</ele>
        <time>2015-04-11T15:48:12.142Z</time>
      </trkpt>
      <trkpt lat="43.78766" lon="3.45906">
        <ele>698</ele>
        <time>2015-04-11T15:48:23.016Z</time>
      </trkpt>
      <trkpt lat="43.78771" lon="3.45914">
        <ele>689</ele>
        <time>2015-04-11T15:48:30.957Z</time>
      </trkpt>
      <trkpt lat="43.78775" lon="3.45926">
        <ele>691</ele>
        <time>2015-04-11T15:48:39.980Z</time>
      </trkpt>
      <trkpt lat="43.78776" lon="3.45941">
        <ele>695</ele>
        <time>2015-04-11T15:48:52.168Z</time>
      </trkpt>
      <trkpt lat="43.78778" lon="3.45953">
        <ele>696</ele>
        <time>2015-04-11T15:49:01.949Z</time>
      </trkpt>
      <trkpt lat="43.78779" lon="3.45954">
        <ele>694</ele>
        <time>2015-04-11T15:49:02.973Z</time>
      </trkpt>
      <trkpt lat="43.78781" lon="3.45965">
        <ele>696</ele>
        <time>2015-04-11T15:49:13.130Z</time>
      </trkpt>
      <trkpt lat="43.7879" lon="3.45974">
        <ele>690</ele>
        <time>2015-04-11T15:49:23.963Z</time>
      </trkpt>
      <trkpt lat="43.78798" lon="3.45978">
        <ele>691</ele>
        <time>2015-04-11T15:49:37.389Z</time>
      </trkpt>
      <trkpt lat="43.78807" lon="3.4598">
        <ele>696</ele>
        <time>2015-04-11T15:49:46.977Z</time>
      </trkpt>
      <trkpt lat="43.78826" lon="3.45984">
        <ele>691</ele>
        <time>2015-04-11T15:50:06.981Z</time>
      </trkpt>
      <trkpt lat="43.78833" lon="3.4599">
        <ele>687</ele>
        <time>2015-04-11T15:50:15.954Z</time>
      </trkpt>
      <trkpt lat="43.78833" lon="3.45991">
        <ele>692</ele>
        <time>2015-04-11T15:50:18.231Z</time>
      </trkpt>
      <trkpt lat="43.7884" lon="3.45997">
        <ele>694</ele>
        <time>2015-04-11T15:50:28.999Z</time>
      </trkpt>
      <trkpt lat="43.78842" lon="3.45997">
        <ele>696</ele>
        <time>2015-04-11T15:50:29.988Z</time>
      </trkpt>
      <trkpt lat="43.78849" lon="3.46002">
        <ele>688</ele>
        <time>2015-04-11T15:50:42.924Z</time>
      </trkpt>
      <trkpt lat="43.78859" lon="3.46006">
        <ele>691</ele>
        <time>2015-04-11T15:50:57.958Z</time>
      </trkpt>
      <trkpt lat="43.78866" lon="3.4601">
        <ele>685</ele>
        <time>2015-04-11T15:51:06.110Z</time>
      </trkpt>
      <trkpt lat="43.78879" lon="3.46015">
        <ele>694</ele>
        <time>2015-04-11T15:51:13.992Z</time>
      </trkpt>
      <trkpt lat="43.78886" lon="3.4602">
        <ele>693</ele>
        <time>2015-04-11T15:51:17.879Z</time>
      </trkpt>
      <trkpt lat="43.78893" lon="3.46028">
        <ele>687</ele>
        <time>2015-04-11T15:51:37.902Z</time>
      </trkpt>
      <trkpt lat="43.78894" lon="3.46027">
        <ele>687</ele>
        <time>2015-04-11T15:51:39.111Z</time>
      </trkpt>
      <trkpt lat="43.789" lon="3.46024">
        <ele>690</ele>
        <time>2015-04-11T15:51:49.683Z</time>
      </trkpt>
      <trkpt lat="43.78905" lon="3.46023">
        <ele>689</ele>
        <time>2015-04-11T15:51:53.775Z</time>
      </trkpt>
      <trkpt lat="43.78915" lon="3.46024">
        <ele>690</ele>
        <time>2015-04-11T15:51:58.774Z</time>
      </trkpt>
      <trkpt lat="43.78918" lon="3.46023">
        <ele>688</ele>
        <time>2015-04-11T15:51:59.774Z</time>
      </trkpt>
      <trkpt lat="43.78925" lon="3.46019">
        <ele>688</ele>
        <time>2015-04-11T15:52:04.976Z</time>
      </trkpt>
      <trkpt lat="43.78928" lon="3.46019">
        <ele>684</ele>
        <time>2015-04-11T15:52:07.973Z</time>
      </trkpt>
      <trkpt lat="43.78932" lon="3.46017">
        <ele>691</ele>
        <time>2015-04-11T15:52:11.748Z</time>
      </trkpt>
      <trkpt lat="43.78941" lon="3.46013">
        <ele>685</ele>
        <time>2015-04-11T15:52:20.765Z</time>
      </trkpt>
      <trkpt lat="43.78949" lon="3.46005">
        <ele>683</ele>
        <time>2015-04-11T15:52:27.758Z</time>
      </trkpt>
      <trkpt lat="43.7895" lon="3.45992">
        <ele>687</ele>
        <time>2015-04-11T15:52:35.782Z</time>
      </trkpt>
      <trkpt lat="43.78957" lon="3.45983">
        <ele>683</ele>
        <time>2015-04-11T15:52:45.775Z</time>
      </trkpt>
      <trkpt lat="43.78966" lon="3.45977">
        <ele>687</ele>
        <time>2015-04-11T15:52:57.668Z</time>
      </trkpt>
      <trkpt lat="43.78973" lon="3.45969">
        <ele>683</ele>
        <time>2015-04-11T15:53:05.689Z</time>
      </trkpt>
      <trkpt lat="43.78978" lon="3.4596">
        <ele>684</ele>
        <time>2015-04-11T15:53:13.755Z</time>
      </trkpt>
      <trkpt lat="43.78986" lon="3.45953">
        <ele>680</ele>
        <time>2015-04-11T15:53:20.756Z</time>
      </trkpt>
      <trkpt lat="43.78992" lon="3.45944">
        <ele>687</ele>
        <time>2015-04-11T15:53:26.974Z</time>
      </trkpt>
      <trkpt lat="43.78993" lon="3.45942">
        <ele>685</ele>
        <time>2015-04-11T15:53:27.959Z</time>
      </trkpt>
      <trkpt lat="43.79" lon="3.45937">
        <ele>683</ele>
        <time>2015-04-11T15:53:38.816Z</time>
      </trkpt>
      <trkpt lat="43.79002" lon="3.45938">
        <ele>680</ele>
        <time>2015-04-11T15:53:39.758Z</time>
      </trkpt>
      <trkpt lat="43.79009" lon="3.45937">
        <ele>671</ele>
        <time>2015-04-11T15:53:44.740Z</time>
      </trkpt>
      <trkpt lat="43.79018" lon="3.45931">
        <ele>669</ele>
        <time>2015-04-11T15:53:51.224Z</time>
      </trkpt>
      <trkpt lat="43.79026" lon="3.45922">
        <ele>677</ele>
        <time>2015-04-11T15:54:00.931Z</time>
      </trkpt>
      <trkpt lat="43.79031" lon="3.45911">
        <ele>677</ele>
        <time>2015-04-11T15:54:12.372Z</time>
      </trkpt>
      <trkpt lat="43.7904" lon="3.45904">
        <ele>672</ele>
        <time>2015-04-11T15:54:22.731Z</time>
      </trkpt>
      <trkpt lat="43.79047" lon="3.45898">
        <ele>677</ele>
        <time>2015-04-11T15:54:55.747Z</time>
      </trkpt>
      <trkpt lat="43.7905" lon="3.45893">
        <ele>678</ele>
        <time>2015-04-11T15:54:56.720Z</time>
      </trkpt>
      <trkpt lat="43.79052" lon="3.45882">
        <ele>685</ele>
        <time>2015-04-11T15:55:14.726Z</time>
      </trkpt>
      <trkpt lat="43.79056" lon="3.45876">
        <ele>686</ele>
        <time>2015-04-11T15:55:15.672Z</time>
      </trkpt>
      <trkpt lat="43.79057" lon="3.45875">
        <ele>694</ele>
        <time>2015-04-11T15:55:46.529Z</time>
      </trkpt>
    </trkseg>
  </trk>
</gpx>